GFSGL_prec_precacc_015.txt.gz
Total_Precipitation_Accumulation
0.00 0.00 0.00 0.00 0.00 0.00 0.00 0.00 0.00 0.00 0.00 0.00 0.00 0.00 0.00 0.00 0.00 0.00 0.00 0.00 0.00 0.00 0.00 0.00 0.00 0.02 0.01 0.01 0.01 0.00 0.00 0.01 0.00 0.00 0.00 0.00 0.00 0.00 0.00 0.00 0.00 0.00 0.00
0.00 0.00 0.00 0.00 0.00 0.00 0.01 0.01 0.00 0.00 0.00 0.00 0.00 0.00 0.00 0.00 0.00 0.00 0.00 0.00 0.00 0.00 0.00 0.00 0.00 0.00 0.02 0.01 0.01 0.00 0.01 0.01 0.01 0.00 0.00 0.00 0.00 0.00 0.00 0.00 0.00 0.00 0.00
0.00 0.00 0.00 0.00 0.00 0.00 0.01 0.02 0.01 0.00 0.00 0.00 0.00 0.00 0.00 0.00 0.00 0.00 0.00 0.00 0.00 0.00 0.00 0.00 0.00 0.01 0.03 0.01 0.02 0.00 0.00 0.01 0.03 0.03 0.00 0.00 0.00 0.00 0.00 0.00 0.00 0.00 0.00
0.00 0.00 0.00 0.00 0.00 0.03 0.09 0.06 0.01 0.01 0.01 0.02 0.02 0.01 0.00 0.00 0.00 0.00 0.00 0.00 0.00 0.00 0.00 0.00 0.02 0.02 0.02 0.03 0.02 0.03 0.02 0.04 0.03 0.04 0.02 0.00 0.00 0.00 0.00 0.00 0.00 0.00 0.00
0.00 0.00 0.00 0.00 0.04 0.17 0.27 0.34 0.23 0.16 0.10 0.04 0.02 0.00 0.00 0.00 0.01 0.00 0.00 0.00 0.00 0.00 0.00 0.02 0.01 0.00 0.00 0.01 0.04 0.02 0.03 0.04 0.01 0.00 0.00 0.00 0.00 0.00 0.01 0.00 0.00 0.00 0.00
0.00 0.00 0.00 0.00 0.04 0.14 0.37 0.73 0.41 0.23 0.16 0.15 0.09 0.04 0.02 0.02 0.03 0.00 0.01 0.00 0.00 0.00 0.03 0.06 0.04 0.02 0.04 0.14 0.14 0.03 0.02 0.03 0.07 0.06 0.01 0.02 0.04 0.03 0.04 0.04 0.02 0.01 0.00
0.00 0.00 0.00 0.00 0.07 0.13 0.15 0.22 0.26 0.33 0.31 0.14 0.05 0.03 0.03 0.07 0.20 0.09 0.03 0.00 0.00 0.03 0.07 0.09 0.07 0.03 0.08 0.04 0.10 0.13 0.09 0.05 0.05 0.07 0.02 0.04 0.06 0.04 0.06 0.03 0.02 0.02 0.01
0.00 0.00 0.00 0.00 0.04 0.10 0.12 0.13 0.12 0.10 0.05 0.05 0.09 0.13 0.09 0.10 0.11 0.09 0.06 0.01 0.04 0.05 0.09 0.13 0.12 0.11 0.13 0.05 0.11 0.12 0.07 0.06 0.06 0.06 0.05 0.02 0.02 0.01 0.01 0.01 0.01 0.01 0.01
0.00 0.00 0.00 0.00 0.01 0.05 0.06 0.05 0.05 0.02 0.02 0.04 0.09 0.09 0.12 0.10 0.17 0.15 0.12 0.03 0.03 0.06 0.08 0.10 0.15 0.10 0.17 0.23 0.14 0.16 0.07 0.02 0.02 0.02 0.01 0.01 0.00 0.00 0.00 0.01 0.00 0.01 0.01
0.00 0.00 0.00 0.01 0.01 0.00 0.00 0.02 0.06 0.12 0.13 0.07 0.04 0.05 0.07 0.09 0.16 0.13 0.13 0.09 0.08 0.11 0.12 0.12 0.13 0.06 0.22 0.23 0.10 0.10 0.03 0.01 0.01 0.00 0.01 0.00 0.00 0.00 0.00 0.00 0.01 0.03 0.03
0.00 0.01 0.02 0.02 0.01 0.01 0.05 0.16 0.21 0.12 0.04 0.02 0.02 0.02 0.03 0.10 0.20 0.09 0.08 0.09 0.08 0.10 0.14 0.20 0.20 0.26 0.19 0.16 0.11 0.04 0.01 0.01 0.00 0.00 0.00 0.00 0.00 0.00 0.00 0.00 0.01 0.02 0.01
0.00 0.01 0.02 0.01 0.01 0.03 0.18 0.15 0.08 0.04 0.04 0.04 0.04 0.09 0.13 0.19 0.18 0.10 0.07 0.05 0.07 0.06 0.11 0.14 0.21 0.17 0.12 0.12 0.09 0.03 0.00 0.00 0.00 0.00 0.00 0.00 0.00 0.00 0.00 0.00 0.00 0.00 0.01
0.00 0.00 0.00 0.01 0.01 0.06 0.13 0.09 0.02 0.04 0.04 0.04 0.05 0.11 0.20 0.24 0.21 0.15 0.14 0.04 0.03 0.03 0.05 0.16 0.13 0.12 0.08 0.04 0.02 0.01 0.00 0.00 0.00 0.00 0.00 0.00 0.00 0.00 0.00 0.00 0.00 0.00 0.02
0.01 0.00 0.01 0.01 0.02 0.03 0.04 0.02 0.01 0.02 0.02 0.06 0.12 0.16 0.12 0.10 0.04 0.02 0.03 0.03 0.00 0.01 0.03 0.04 0.02 0.01 0.00 0.00 0.00 0.00 0.00 0.00 0.00 0.00 0.00 0.00 0.00 0.00 0.00 0.00 0.00 0.00 0.02
0.03 0.04 0.02 0.01 0.02 0.02 0.01 0.01 0.01 0.01 0.02 0.03 0.04 0.04 0.02 0.04 0.05 0.03 0.00 0.00 0.00 0.00 0.00 0.00 0.00 0.00 0.00 0.00 0.00 0.00 0.00 0.00 0.00 0.00 0.00 0.00 0.00 0.00 0.00 0.00 0.00 0.00 0.05
0.09 0.04 0.00 0.00 0.01 0.01 0.00 0.00 0.00 0.00 0.00 0.00 0.01 0.02 0.04 0.03 0.04 0.01 0.00 0.01 0.00 0.00 0.00 0.00 0.00 0.00 0.00 0.00 0.00 0.00 0.00 0.00 0.00 0.00 0.00 0.00 0.00 0.00 0.00 0.00 0.00 0.00 0.01
0.01 0.01 0.00 0.00 0.00 0.00 0.00 0.00 0.00 0.00 0.00 0.00 0.00 0.00 0.00 0.00 0.00 0.00 0.00 0.00 0.00 0.00 0.00 0.00 0.00 0.00 0.00 0.00 0.00 0.00 0.00 0.00 0.00 0.00 0.00 0.00 0.00 0.00 0.00 0.00 0.00 0.00 0.00
0.00 0.00 0.00 0.00 0.00 0.00 0.00 0.00 0.00 0.01 0.00 0.00 0.00 0.00 0.00 0.00 0.00 0.00 0.00 0.00 0.00 0.00 0.00 0.00 0.00 0.00 0.00 0.00 0.00 0.00 0.00 0.00 0.00 0.00 0.00 0.00 0.00 0.00 0.00 0.00 0.00 0.00 0.00
0.00 0.00 0.00 0.00 0.00 0.01 0.00 0.00 0.00 0.01 0.00 0.01 0.00 0.00 0.00 0.00 0.00 0.00 0.00 0.00 0.00 0.00 0.00 0.00 0.00 0.00 0.00 0.00 0.00 0.00 0.00 0.00 0.00 0.00 0.00 0.00 0.00 0.00 0.00 0.00 0.00 0.00 0.00
0.06 0.03 0.01 0.01 0.05 0.02 0.00 0.00 0.00 0.00 0.01 0.01 0.00 0.00 0.00 0.00 0.00 0.00 0.00 0.00 0.00 0.00 0.00 0.00 0.00 0.00 0.00 0.00 0.00 0.00 0.00 0.00 0.00 0.00 0.00 0.00 0.00 0.00 0.00 0.00 0.00 0.00 0.00
0.07 0.08 0.02 0.01 0.04 0.02 0.00 0.00 0.00 0.00 0.00 0.00 0.00 0.00 0.00 0.00 0.00 0.00 0.00 0.00 0.00 0.00 0.00 0.00 0.00 0.00 0.00 0.00 0.00 0.00 0.00 0.00 0.00 0.00 0.00 0.00 0.00 0.00 0.00 0.00 0.00 0.00 0.00
0.01 0.01 0.00 0.00 0.01 0.01 0.01 0.00 0.00 0.00 0.00 0.00 0.02 0.01 0.00 0.00 0.00 0.00 0.00 0.00 0.00 0.00 0.00 0.00 0.00 0.00 0.00 0.00 0.00 0.00 0.00 0.00 0.00 0.00 0.00 0.00 0.00 0.00 0.00 0.00 0.00 0.00 0.00
0.00 0.00 0.00 0.00 0.00 0.03 0.03 0.01 0.01 0.03 0.02 0.01 0.01 0.00 0.00 0.00 0.00 0.00 0.00 0.00 0.00 0.00 0.00 0.00 0.00 0.00 0.00 0.00 0.00 0.00 0.00 0.00 0.00 0.00 0.00 0.00 0.00 0.00 0.00 0.00 0.00 0.00 0.00
0.01 0.01 0.02 0.01 0.03 0.04 0.02 0.03 0.04 0.04 0.05 0.03 0.02 0.00 0.00 0.00 0.00 0.00 0.00 0.00 0.00 0.00 0.00 0.00 0.00 0.00 0.00 0.00 0.00 0.00 0.00 0.00 0.00 0.00 0.00 0.00 0.00 0.00 0.00 0.00 0.00 0.00 0.00
0.01 0.01 0.04 0.04 0.02 0.02 0.01 0.01 0.01 0.01 0.00 0.00 0.00 0.00 0.00 0.00 0.00 0.00 0.00 0.00 0.00 0.00 0.00 0.00 0.00 0.00 0.00 0.00 0.00 0.00 0.00 0.00 0.00 0.00 0.00 0.00 0.00 0.00 0.00 0.00 0.00 0.00 0.00
0.00 0.00 0.00 0.00 0.01 0.00 0.00 0.00 0.00 0.00 0.01 0.00 0.00 0.00 0.00 0.00 0.00 0.00 0.00 0.00 0.00 0.00 0.00 0.00 0.00 0.00 0.00 0.00 0.00 0.00 0.00 0.00 0.00 0.00 0.00 0.00 0.00 0.00 0.00 0.00 0.00 0.00 0.00

GFSGL_prec_precacc_021.txt.gz
Total_Precipitation_Accumulation
0.00 0.00 0.00 0.00 0.00 0.00 0.00 0.00 0.00 0.00 0.00 0.00 0.00 0.00 0.00 0.00 0.00 0.00 0.00 0.00 0.00 0.00 0.00 0.00 0.00 0.02 0.01 0.01 0.01 0.00 0.00 0.01 0.00 0.00 0.00 0.00 0.00 0.00 0.00 0.00 0.00 0.00 0.00
0.00 0.00 0.00 0.00 0.00 0.00 0.01 0.01 0.00 0.00 0.00 0.00 0.00 0.00 0.00 0.00 0.00 0.00 0.00 0.00 0.00 0.00 0.00 0.00 0.00 0.00 0.02 0.01 0.01 0.00 0.01 0.01 0.01 0.00 0.00 0.00 0.00 0.00 0.00 0.00 0.00 0.00 0.00
0.00 0.00 0.00 0.00 0.00 0.00 0.01 0.02 0.01 0.00 0.00 0.00 0.00 0.00 0.00 0.00 0.00 0.00 0.00 0.00 0.00 0.00 0.00 0.00 0.00 0.01 0.03 0.01 0.02 0.00 0.00 0.01 0.03 0.03 0.00 0.00 0.00 0.00 0.00 0.00 0.00 0.00 0.00
0.00 0.00 0.00 0.00 0.00 0.03 0.09 0.06 0.01 0.01 0.01 0.02 0.02 0.01 0.00 0.00 0.00 0.01 0.01 0.01 0.01 0.01 0.03 0.02 0.02 0.02 0.02 0.03 0.02 0.03 0.02 0.04 0.03 0.04 0.03 0.01 0.00 0.00 0.00 0.00 0.00 0.00 0.00
0.00 0.00 0.00 0.00 0.04 0.17 0.27 0.34 0.23 0.16 0.10 0.04 0.02 0.00 0.00 0.00 0.01 0.00 0.02 0.03 0.09 0.07 0.05 0.07 0.04 0.01 0.00 0.01 0.04 0.02 0.03 0.04 0.04 0.09 0.07 0.02 0.01 0.02 0.03 0.01 0.00 0.00 0.00
0.00 0.00 0.00 0.00 0.04 0.14 0.37 0.73 0.41 0.23 0.16 0.15 0.09 0.04 0.02 0.02 0.03 0.01 0.03 0.14 0.16 0.17 0.12 0.10 0.08 0.04 0.04 0.14 0.14 0.03 0.05 0.09 0.22 0.21 0.10 0.06 0.06 0.06 0.07 0.05 0.02 0.01 0.00
0.00 0.00 0.00 0.00 0.07 0.13 0.15 0.22 0.26 0.33 0.31 0.14 0.05 0.03 0.03 0.08 0.27 0.13 0.18 0.15 0.18 0.15 0.12 0.12 0.09 0.06 0.12 0.06 0.11 0.18 0.22 0.19 0.17 0.18 0.07 0.08 0.09 0.08 0.08 0.04 0.02 0.02 0.01
0.00 0.00 0.00 0.00 0.04 0.10 0.12 0.13 0.12 0.10 0.05 0.05 0.10 0.16 0.15 0.15 0.17 0.15 0.12 0.09 0.10 0.08 0.13 0.15 0.12 0.15 0.20 0.13 0.19 0.20 0.17 0.16 0.18 0.17 0.10 0.05 0.05 0.05 0.04 0.01 0.01 0.01 0.01
0.00 0.00 0.00 0.00 0.01 0.05 0.06 0.05 0.05 0.02 0.02 0.05 0.24 0.39 0.25 0.19 0.19 0.17 0.16 0.07 0.08 0.14 0.17 0.11 0.16 0.15 0.25 0.31 0.22 0.23 0.12 0.08 0.11 0.06 0.03 0.04 0.04 0.05 0.03 0.01 0.00 0.01 0.01
0.00 0.00 0.00 0.01 0.01 0.00 0.00 0.02 0.06 0.13 0.17 0.10 0.09 0.13 0.15 0.18 0.23 0.16 0.19 0.14 0.14 0.13 0.13 0.12 0.14 0.09 0.28 0.31 0.17 0.17 0.08 0.10 0.08 0.05 0.05 0.02 0.00 0.00 0.00 0.00 0.01 0.03 0.03
0.00 0.01 0.02 0.02 0.01 0.01 0.05 0.17 0.24 0.24 0.11 0.03 0.07 0.29 0.27 0.19 0.26 0.15 0.15 0.12 0.11 0.11 0.14 0.20 0.20 0.26 0.22 0.22 0.17 0.15 0.10 0.08 0.05 0.02 0.01 0.00 0.00 0.00 0.00 0.00 0.01 0.02 0.01
0.00 0.01 0.02 0.01 0.01 0.03 0.19 0.23 0.16 0.14 0.21 0.27 0.34 0.30 0.20 0.25 0.22 0.16 0.14 0.08 0.08 0.06 0.12 0.15 0.21 0.17 0.17 0.18 0.19 0.14 0.06 0.01 0.00 0.00 0.00 0.00 0.00 0.00 0.00 0.00 0.00 0.00 0.01
0.00 0.00 0.00 0.01 0.01 0.06 0.17 0.15 0.16 0.15 0.17 0.14 0.12 0.15 0.23 0.26 0.22 0.16 0.14 0.04 0.03 0.03 0.06 0.16 0.15 0.16 0.16 0.14 0.09 0.05 0.01 0.00 0.00 0.00 0.00 0.00 0.00 0.00 0.00 0.00 0.00 0.00 0.02
0.01 0.00 0.01 0.01 0.02 0.04 0.14 0.21 0.07 0.16 0.19 0.24 0.29 0.31 0.19 0.13 0.06 0.02 0.03 0.03 0.00 0.01 0.04 0.04 0.04 0.02 0.01 0.00 0.00 0.00 0.00 0.00 0.00 0.00 0.00 0.00 0.00 0.00 0.00 0.00 0.00 0.00 0.02
0.03 0.12 0.15 0.17 0.16 0.19 0.20 0.31 0.43 0.52 0.46 0.42 0.43 0.30 0.09 0.04 0.05 0.03 0.00 0.00 0.00 0.00 0.01 0.00 0.00 0.00 0.00 0.00 0.00 0.00 0.00 0.00 0.00 0.00 0.00 0.00 0.00 0.00 0.00 0.00 0.00 0.00 0.05
0.22 0.37 0.45 0.53 0.60 0.65 0.73 0.81 0.91 0.75 0.57 0.43 0.29 0.16 0.08 0.04 0.05 0.02 0.01 0.01 0.00 0.00 0.00 0.00 0.00 0.00 0.00 0.00 0.00 0.00 0.00 0.00 0.00 0.00 0.00 0.00 0.00 0.00 0.00 0.00 0.00 0.00 0.01
0.23 0.18 0.17 0.29 0.49 0.57 0.73 0.76 0.65 0.59 0.41 0.16 0.16 0.04 0.00 0.00 0.00 0.00 0.00 0.00 0.00 0.00 0.00 0.00 0.00 0.00 0.00 0.00 0.00 0.00 0.00 0.00 0.00 0.00 0.00 0.00 0.00 0.00 0.00 0.00 0.00 0.00 0.00
0.66 0.80 0.83 0.60 0.42 0.27 0.30 0.45 0.67 0.67 0.39 0.09 0.01 0.00 0.00 0.00 0.00 0.00 0.00 0.00 0.00 0.00 0.00 0.00 0.00 0.00 0.00 0.00 0.00 0.00 0.00 0.00 0.00 0.00 0.00 0.00 0.00 0.00 0.00 0.00 0.00 0.00 0.00
0.97 0.62 0.63 0.82 0.63 0.20 0.07 0.04 0.02 0.05 0.04 0.01 0.00 0.00 0.00 0.00 0.00 0.00 0.00 0.00 0.00 0.00 0.00 0.00 0.00 0.00 0.00 0.00 0.00 0.00 0.00 0.00 0.00 0.00 0.00 0.00 0.00 0.00 0.00 0.00 0.00 0.00 0.00
0.71 0.90 0.39 0.16 0.20 0.16 0.04 0.00 0.00 0.01 0.01 0.01 0.00 0.00 0.00 0.00 0.00 0.00 0.00 0.00 0.00 0.00 0.00 0.00 0.00 0.00 0.00 0.00 0.00 0.00 0.00 0.00 0.00 0.00 0.00 0.00 0.00 0.00 0.00 0.00 0.00 0.00 0.00
0.46 0.34 0.10 0.04 0.11 0.15 0.08 0.03 0.01 0.00 0.00 0.00 0.00 0.00 0.00 0.00 0.00 0.00 0.00 0.00 0.00 0.00 0.00 0.00 0.00 0.00 0.00 0.00 0.00 0.00 0.00 0.00 0.00 0.00 0.00 0.00 0.00 0.00 0.00 0.00 0.00 0.00 0.00
0.14 0.10 0.05 0.07 0.10 0.06 0.08 0.08 0.05 0.01 0.00 0.01 0.02 0.01 0.00 0.00 0.00 0.00 0.00 0.00 0.00 0.00 0.00 0.00 0.00 0.00 0.00 0.00 0.00 0.00 0.00 0.00 0.00 0.00 0.00 0.00 0.00 0.00 0.00 0.00 0.00 0.00 0.00
0.01 0.01 0.04 0.05 0.08 0.12 0.10 0.06 0.04 0.04 0.04 0.06 0.07 0.03 0.00 0.00 0.00 0.00 0.00 0.00 0.00 0.00 0.00 0.00 0.00 0.00 0.00 0.00 0.00 0.00 0.00 0.00 0.00 0.00 0.00 0.00 0.00 0.00 0.00 0.00 0.00 0.00 0.00
0.02 0.01 0.03 0.04 0.08 0.13 0.10 0.11 0.13 0.11 0.12 0.10 0.06 0.03 0.01 0.00 0.00 0.00 0.00 0.00 0.00 0.00 0.00 0.00 0.00 0.00 0.00 0.00 0.00 0.00 0.00 0.00 0.00 0.00 0.00 0.00 0.00 0.00 0.00 0.00 0.00 0.00 0.00
0.02 0.01 0.05 0.05 0.06 0.06 0.07 0.06 0.04 0.02 0.02 0.01 0.01 0.00 0.00 0.00 0.00 0.00 0.00 0.00 0.00 0.00 0.00 0.00 0.00 0.00 0.00 0.00 0.00 0.00 0.00 0.00 0.00 0.00 0.00 0.00 0.00 0.00 0.00 0.00 0.00 0.00 0.00
0.02 0.03 0.02 0.03 0.04 0.02 0.04 0.03 0.01 0.01 0.01 0.00 0.00 0.00 0.00 0.00 0.00 0.00 0.00 0.00 0.00 0.00 0.00 0.00 0.00 0.00 0.00 0.00 0.00 0.00 0.00 0.00 0.00 0.00 0.00 0.00 0.00 0.00 0.00 0.00 0.00 0.00 0.00

GFSGL_prec_precacc_024.txt.gz
Total_Precipitation_Accumulation
0.00 0.00 0.00 0.00 0.00 0.00 0.00 0.00 0.00 0.00 0.00 0.00 0.00 0.00 0.00 0.00 0.00 0.00 0.00 0.00 0.00 0.00 0.00 0.00 0.00 0.02 0.01 0.01 0.01 0.00 0.00 0.01 0.00 0.00 0.00 0.00 0.00 0.00 0.00 0.00 0.00 0.00 0.00
0.00 0.00 0.00 0.00 0.00 0.00 0.01 0.01 0.00 0.00 0.00 0.00 0.00 0.00 0.00 0.00 0.00 0.00 0.00 0.00 0.00 0.00 0.00 0.00 0.00 0.00 0.02 0.01 0.01 0.00 0.01 0.01 0.01 0.00 0.00 0.00 0.00 0.00 0.00 0.00 0.00 0.00 0.00
0.00 0.00 0.00 0.00 0.00 0.00 0.01 0.02 0.01 0.00 0.00 0.00 0.00 0.00 0.00 0.00 0.00 0.00 0.00 0.00 0.00 0.00 0.00 0.00 0.00 0.01 0.03 0.01 0.02 0.00 0.00 0.01 0.03 0.03 0.00 0.00 0.00 0.00 0.00 0.00 0.00 0.00 0.00
0.00 0.00 0.00 0.00 0.00 0.03 0.09 0.06 0.01 0.01 0.01 0.02 0.02 0.01 0.00 0.00 0.00 0.01 0.01 0.01 0.01 0.02 0.05 0.06 0.04 0.03 0.02 0.03 0.02 0.03 0.02 0.04 0.03 0.04 0.03 0.01 0.00 0.00 0.00 0.00 0.00 0.00 0.00
0.00 0.00 0.00 0.00 0.04 0.17 0.27 0.34 0.23 0.16 0.10 0.04 0.02 0.00 0.00 0.00 0.01 0.00 0.02 0.03 0.09 0.10 0.10 0.12 0.09 0.14 0.05 0.01 0.04 0.02 0.03 0.04 0.04 0.09 0.08 0.02 0.01 0.02 0.03 0.01 0.00 0.00 0.00
0.00 0.00 0.00 0.00 0.04 0.14 0.37 0.73 0.41 0.23 0.16 0.15 0.09 0.04 0.02 0.02 0.03 0.01 0.03 0.14 0.16 0.20 0.17 0.14 0.13 0.12 0.08 0.15 0.14 0.03 0.05 0.09 0.22 0.21 0.10 0.06 0.06 0.06 0.07 0.05 0.02 0.01 0.00
0.00 0.00 0.00 0.00 0.07 0.13 0.15 0.22 0.26 0.33 0.31 0.14 0.05 0.03 0.03 0.08 0.27 0.13 0.18 0.15 0.18 0.19 0.15 0.15 0.13 0.08 0.12 0.06 0.11 0.18 0.22 0.20 0.19 0.19 0.08 0.08 0.09 0.08 0.08 0.04 0.03 0.02 0.01
0.00 0.00 0.00 0.00 0.04 0.10 0.12 0.13 0.12 0.10 0.05 0.05 0.10 0.16 0.15 0.15 0.17 0.15 0.12 0.09 0.10 0.11 0.17 0.17 0.13 0.15 0.20 0.13 0.19 0.20 0.17 0.16 0.20 0.18 0.11 0.06 0.05 0.05 0.05 0.02 0.01 0.01 0.01
0.00 0.00 0.00 0.00 0.01 0.05 0.06 0.05 0.05 0.02 0.02 0.05 0.24 0.39 0.25 0.19 0.19 0.17 0.16 0.07 0.09 0.16 0.20 0.14 0.16 0.15 0.25 0.31 0.22 0.24 0.12 0.08 0.13 0.07 0.04 0.04 0.04 0.05 0.03 0.01 0.00 0.01 0.01
0.00 0.00 0.00 0.01 0.01 0.00 0.00 0.02 0.06 0.13 0.17 0.10 0.09 0.13 0.15 0.18 0.23 0.16 0.19 0.14 0.14 0.14 0.15 0.13 0.14 0.09 0.28 0.31 0.18 0.19 0.10 0.11 0.09 0.05 0.05 0.02 0.00 0.00 0.00 0.00 0.01 0.03 0.03
0.00 0.01 0.02 0.02 0.01 0.01 0.05 0.17 0.24 0.24 0.11 0.03 0.07 0.29 0.27 0.19 0.26 0.15 0.15 0.12 0.11 0.11 0.15 0.20 0.20 0.26 0.22 0.22 0.17 0.15 0.10 0.08 0.05 0.02 0.01 0.00 0.00 0.00 0.00 0.00 0.01 0.02 0.01
0.00 0.01 0.02 0.01 0.01 0.03 0.19 0.23 0.16 0.14 0.21 0.27 0.34 0.30 0.20 0.25 0.22 0.16 0.14 0.08 0.08 0.06 0.12 0.15 0.21 0.17 0.17 0.18 0.20 0.14 0.06 0.01 0.00 0.00 0.00 0.00 0.00 0.00 0.00 0.00 0.00 0.00 0.01
0.00 0.00 0.00 0.01 0.01 0.06 0.17 0.15 0.16 0.15 0.17 0.15 0.14 0.18 0.25 0.28 0.23 0.17 0.15 0.07 0.03 0.03 0.06 0.16 0.15 0.16 0.16 0.14 0.09 0.06 0.01 0.00 0.00 0.00 0.00 0.00 0.00 0.00 0.00 0.00 0.00 0.00 0.02
0.01 0.00 0.01 0.01 0.02 0.04 0.14 0.21 0.07 0.16 0.20 0.27 0.34 0.38 0.39 0.35 0.21 0.11 0.08 0.06 0.01 0.01 0.04 0.04 0.04 0.03 0.01 0.00 0.00 0.00 0.00 0.00 0.00 0.00 0.00 0.00 0.00 0.00 0.00 0.00 0.00 0.00 0.02
0.03 0.12 0.15 0.17 0.16 0.19 0.21 0.31 0.43 0.52 0.49 0.58 0.69 0.72 0.61 0.48 0.36 0.27 0.16 0.07 0.01 0.00 0.01 0.00 0.00 0.00 0.00 0.00 0.00 0.00 0.00 0.00 0.00 0.00 0.00 0.00 0.00 0.00 0.00 0.00 0.00 0.00 0.05
0.22 0.37 0.45 0.53 0.60 0.65 0.73 0.83 1.00 0.93 0.87 1.03 1.00 0.95 1.28 1.71 1.60 0.78 0.40 0.10 0.01 0.00 0.00 0.00 0.00 0.00 0.00 0.00 0.00 0.00 0.00 0.00 0.00 0.00 0.00 0.00 0.00 0.00 0.00 0.00 0.00 0.00 0.01
0.23 0.18 0.17 0.29 0.49 0.57 0.74 0.79 0.82 0.85 0.85 0.96 1.13 1.10 1.04 0.79 0.66 0.44 0.20 0.03 0.00 0.00 0.00 0.00 0.00 0.00 0.00 0.00 0.00 0.00 0.00 0.00 0.00 0.00 0.00 0.00 0.00 0.00 0.00 0.00 0.00 0.00 0.00
0.66 0.82 0.85 0.62 0.46 0.31 0.41 0.59 0.82 0.89 0.85 0.64 0.38 0.33 0.21 0.15 0.14 0.08 0.04 0.00 0.00 0.00 0.00 0.00 0.00 0.00 0.00 0.00 0.00 0.00 0.00 0.00 0.00 0.00 0.00 0.00 0.00 0.00 0.00 0.00 0.00 0.00 0.00
1.05 0.74 0.78 1.00 0.95 0.72 0.56 0.49 0.33 0.23 0.21 0.19 0.14 0.12 0.12 0.09 0.09 0.08 0.06 0.01 0.00 0.00 0.00 0.00 0.00 0.00 0.00 0.00 0.00 0.00 0.00 0.00 0.00 0.00 0.00 0.00 0.00 0.00 0.00 0.00 0.00 0.00 0.00
1.32 1.87 1.62 1.40 1.08 0.68 0.61 0.51 0.47 0.42 0.35 0.32 0.22 0.07 0.02 0.01 0.02 0.01 0.00 0.00 0.00 0.00 0.00 0.00 0.00 0.00 0.00 0.00 0.00 0.00 0.00 0.00 0.00 0.00 0.00 0.00 0.00 0.00 0.00 0.00 0.00 0.00 0.00
0.78 0.81 0.89 1.02 0.96 0.45 0.26 0.18 0.21 0.21 0.16 0.16 0.11 0.08 0.02 0.00 0.00 0.00 0.00 0.00 0.00 0.00 0.00 0.00 0.00 0.00 0.00 0.00 0.00 0.00 0.00 0.00 0.00 0.00 0.00 0.00 0.00 0.00 0.00 0.00 0.00 0.00 0.00
0.32 0.33 0.26 0.28 0.19 0.13 0.14 0.14 0.12 0.11 0.11 0.13 0.10 0.05 0.00 0.00 0.00 0.00 0.00 0.00 0.00 0.00 0.00 0.00 0.00 0.00 0.00 0.00 0.00 0.00 0.00 0.00 0.00 0.00 0.00 0.00 0.00 0.00 0.00 0.00 0.00 0.00 0.00
0.12 0.14 0.13 0.12 0.17 0.19 0.16 0.12 0.11 0.17 0.20 0.19 0.16 0.05 0.01 0.00 0.00 0.00 0.00 0.00 0.00 0.00 0.00 0.00 0.00 0.00 0.00 0.00 0.00 0.00 0.00 0.00 0.00 0.00 0.00 0.00 0.00 0.00 0.00 0.00 0.00 0.00 0.00
0.05 0.08 0.12 0.19 0.26 0.29 0.24 0.21 0.21 0.18 0.19 0.17 0.12 0.06 0.02 0.00 0.00 0.00 0.00 0.00 0.00 0.00 0.00 0.00 0.00 0.00 0.00 0.00 0.00 0.00 0.00 0.00 0.00 0.00 0.00 0.00 0.00 0.00 0.00 0.00 0.00 0.00 0.00
0.03 0.03 0.07 0.10 0.13 0.21 0.28 0.24 0.19 0.13 0.09 0.07 0.06 0.03 0.02 0.01 0.00 0.00 0.00 0.00 0.00 0.00 0.00 0.00 0.00 0.00 0.00 0.00 0.00 0.00 0.00 0.00 0.00 0.00 0.00 0.00 0.00 0.00 0.00 0.00 0.00 0.00 0.00
0.02 0.03 0.02 0.03 0.04 0.05 0.17 0.15 0.08 0.10 0.08 0.05 0.04 0.03 0.02 0.02 0.01 0.02 0.00 0.00 0.00 0.00 0.00 0.00 0.00 0.00 0.00 0.00 0.00 0.00 0.00 0.00 0.00 0.00 0.00 0.00 0.00 0.00 0.00 0.00 0.00 0.00 0.00

GFSGL_prec_precacc_027.txt.gz
Total_Precipitation_Accumulation
0.00 0.00 0.00 0.00 0.00 0.00 0.00 0.00 0.00 0.00 0.00 0.00 0.00 0.00 0.00 0.00 0.00 0.00 0.00 0.00 0.00 0.00 0.00 0.00 0.00 0.02 0.01 0.01 0.01 0.00 0.00 0.01 0.00 0.00 0.00 0.00 0.00 0.00 0.00 0.00 0.00 0.00 0.00
0.00 0.00 0.00 0.00 0.00 0.00 0.01 0.01 0.00 0.00 0.00 0.00 0.00 0.00 0.00 0.00 0.00 0.00 0.00 0.00 0.00 0.00 0.00 0.00 0.00 0.00 0.02 0.01 0.01 0.00 0.01 0.01 0.01 0.00 0.00 0.00 0.00 0.00 0.00 0.00 0.00 0.00 0.00
0.00 0.00 0.00 0.00 0.00 0.00 0.01 0.02 0.01 0.00 0.00 0.00 0.00 0.00 0.00 0.00 0.00 0.00 0.00 0.00 0.00 0.00 0.00 0.00 0.00 0.01 0.03 0.01 0.02 0.00 0.00 0.01 0.03 0.03 0.00 0.00 0.00 0.00 0.00 0.00 0.00 0.00 0.00
0.00 0.00 0.00 0.00 0.00 0.03 0.09 0.06 0.01 0.01 0.01 0.02 0.02 0.01 0.00 0.00 0.00 0.01 0.01 0.01 0.01 0.02 0.05 0.07 0.04 0.03 0.02 0.03 0.02 0.03 0.02 0.04 0.03 0.04 0.03 0.01 0.00 0.00 0.00 0.00 0.00 0.00 0.00
0.00 0.00 0.00 0.00 0.04 0.17 0.27 0.34 0.23 0.16 0.10 0.04 0.02 0.00 0.00 0.00 0.01 0.00 0.02 0.03 0.09 0.10 0.10 0.12 0.09 0.16 0.07 0.01 0.04 0.02 0.03 0.04 0.04 0.09 0.08 0.02 0.01 0.02 0.03 0.01 0.00 0.00 0.00
0.00 0.00 0.00 0.00 0.04 0.14 0.37 0.73 0.41 0.23 0.16 0.15 0.09 0.04 0.02 0.02 0.03 0.01 0.03 0.14 0.16 0.20 0.17 0.14 0.13 0.13 0.13 0.16 0.14 0.03 0.05 0.09 0.22 0.21 0.10 0.06 0.06 0.06 0.07 0.05 0.02 0.01 0.00
0.00 0.00 0.00 0.00 0.07 0.13 0.15 0.22 0.26 0.33 0.31 0.14 0.05 0.03 0.03 0.08 0.27 0.13 0.18 0.15 0.18 0.19 0.15 0.15 0.13 0.08 0.13 0.06 0.11 0.18 0.22 0.20 0.19 0.19 0.08 0.09 0.09 0.08 0.08 0.04 0.03 0.03 0.01
0.00 0.00 0.00 0.00 0.04 0.10 0.12 0.13 0.12 0.10 0.05 0.05 0.10 0.16 0.15 0.15 0.17 0.15 0.12 0.09 0.10 0.11 0.17 0.17 0.13 0.16 0.20 0.13 0.20 0.20 0.17 0.16 0.20 0.18 0.11 0.06 0.06 0.05 0.05 0.03 0.02 0.01 0.01
0.00 0.00 0.00 0.00 0.01 0.05 0.06 0.05 0.05 0.02 0.02 0.05 0.24 0.39 0.25 0.19 0.19 0.17 0.16 0.07 0.09 0.16 0.20 0.14 0.16 0.16 0.27 0.31 0.22 0.24 0.12 0.08 0.13 0.07 0.04 0.04 0.04 0.05 0.03 0.02 0.01 0.01 0.01
0.00 0.00 0.00 0.01 0.01 0.00 0.00 0.02 0.06 0.13 0.17 0.10 0.09 0.13 0.15 0.18 0.23 0.16 0.19 0.14 0.14 0.14 0.15 0.13 0.15 0.09 0.28 0.31 0.18 0.19 0.10 0.11 0.09 0.05 0.05 0.02 0.00 0.00 0.00 0.01 0.01 0.03 0.03
0.00 0.01 0.02 0.02 0.01 0.01 0.05 0.17 0.24 0.24 0.11 0.03 0.07 0.29 0.27 0.19 0.26 0.15 0.15 0.12 0.11 0.11 0.15 0.20 0.20 0.26 0.22 0.22 0.17 0.15 0.10 0.08 0.05 0.02 0.01 0.00 0.00 0.00 0.00 0.00 0.01 0.02 0.01
0.00 0.01 0.02 0.01 0.01 0.03 0.19 0.23 0.16 0.14 0.21 0.27 0.34 0.30 0.20 0.25 0.22 0.16 0.14 0.08 0.08 0.06 0.12 0.15 0.21 0.17 0.17 0.19 0.20 0.14 0.06 0.01 0.00 0.00 0.00 0.00 0.00 0.00 0.00 0.00 0.00 0.00 0.01
0.00 0.00 0.00 0.01 0.01 0.06 0.17 0.15 0.16 0.17 0.20 0.16 0.14 0.18 0.26 0.29 0.23 0.17 0.15 0.07 0.04 0.04 0.11 0.23 0.20 0.19 0.19 0.16 0.09 0.06 0.01 0.00 0.00 0.00 0.00 0.00 0.00 0.00 0.00 0.00 0.00 0.00 0.02
0.01 0.00 0.01 0.01 0.02 0.04 0.14 0.21 0.08 0.17 0.22 0.29 0.36 0.43 0.44 0.38 0.22 0.13 0.16 0.18 0.14 0.12 0.14 0.14 0.15 0.10 0.02 0.00 0.00 0.00 0.00 0.00 0.00 0.00 0.00 0.00 0.00 0.00 0.00 0.00 0.00 0.00 0.02
0.03 0.12 0.15 0.17 0.16 0.19 0.21 0.32 0.45 0.58 0.52 0.58 0.70 0.74 0.65 0.58 0.53 0.58 0.60 0.55 0.53 0.44 0.23 0.12 0.06 0.01 0.00 0.00 0.00 0.00 0.00 0.00 0.00 0.00 0.00 0.00 0.00 0.00 0.00 0.00 0.00 0.00 0.05
0.22 0.37 0.45 0.53 0.60 0.65 0.73 0.83 1.01 0.94 0.88 1.05 1.03 0.97 1.35 1.94 2.35 2.19 2.36 2.30 1.88 1.30 0.55 0.18 0.04 0.00 0.00 0.00 0.00 0.00 0.00 0.00 0.00 0.00 0.00 0.00 0.00 0.00 0.00 0.00 0.00 0.00 0.01
0.23 0.18 0.17 0.29 0.49 0.57 0.74 0.79 0.82 0.94 0.95 1.00 1.18 1.22 1.18 0.93 0.87 0.87 0.83 0.70 0.70 0.70 0.41 0.14 0.03 0.00 0.00 0.00 0.00 0.00 0.00 0.00 0.00 0.00 0.00 0.00 0.00 0.00 0.00 0.00 0.00 0.00 0.00
0.66 0.83 0.85 0.63 0.46 0.31 0.41 0.60 0.83 0.90 0.89 0.76 0.57 0.57 0.42 0.31 0.25 0.18 0.16 0.11 0.08 0.05 0.04 0.03 0.01 0.00 0.00 0.00 0.00 0.00 0.00 0.00 0.00 0.00 0.00 0.00 0.00 0.00 0.00 0.00 0.00 0.00 0.00
1.05 0.75 0.81 1.06 1.04 0.82 0.63 0.57 0.38 0.25 0.23 0.21 0.18 0.20 0.20 0.19 0.20 0.20 0.16 0.10 0.06 0.03 0.01 0.01 0.00 0.00 0.00 0.00 0.00 0.00 0.00 0.00 0.00 0.00 0.00 0.00 0.00 0.00 0.00 0.00 0.00 0.00 0.00
1.32 1.88 1.62 1.44 1.40 1.35 1.26 1.14 1.02 0.82 0.58 0.41 0.29 0.20 0.14 0.15 0.20 0.22 0.20 0.16 0.12 0.09 0.06 0.01 0.00 0.00 0.00 0.00 0.00 0.00 0.00 0.00 0.00 0.00 0.00 0.00 0.00 0.00 0.00 0.00 0.00 0.00 0.00
0.78 0.81 0.89 1.04 1.41 1.58 1.55 1.62 1.59 1.51 1.39 1.05 0.44 0.30 0.26 0.19 0.17 0.15 0.12 0.09 0.06 0.05 0.01 0.00 0.00 0.00 0.00 0.00 0.00 0.00 0.00 0.00 0.00 0.00 0.00 0.00 0.00 0.00 0.00 0.00 0.00 0.00 0.00
0.32 0.33 0.27 0.29 0.28 0.28 0.31 0.38 0.44 0.41 0.42 0.32 0.16 0.12 0.07 0.04 0.03 0.02 0.01 0.00 0.00 0.00 0.00 0.00 0.00 0.00 0.00 0.00 0.00 0.00 0.00 0.00 0.00 0.00 0.00 0.00 0.00 0.00 0.00 0.00 0.00 0.00 0.00
0.12 0.14 0.13 0.12 0.17 0.21 0.18 0.12 0.11 0.18 0.22 0.23 0.25 0.12 0.04 0.04 0.02 0.01 0.00 0.00 0.00 0.00 0.00 0.00 0.00 0.00 0.00 0.00 0.00 0.00 0.00 0.00 0.00 0.00 0.00 0.00 0.00 0.00 0.00 0.00 0.00 0.00 0.00
0.05 0.09 0.14 0.19 0.26 0.31 0.26 0.24 0.24 0.22 0.26 0.27 0.24 0.14 0.05 0.01 0.00 0.00 0.00 0.00 0.00 0.00 0.00 0.00 0.00 0.00 0.00 0.00 0.00 0.00 0.00 0.00 0.00 0.00 0.00 0.00 0.00 0.00 0.00 0.00 0.00 0.00 0.00
0.03 0.03 0.07 0.10 0.14 0.23 0.30 0.26 0.21 0.15 0.11 0.12 0.15 0.09 0.06 0.05 0.01 0.00 0.00 0.00 0.00 0.00 0.00 0.00 0.00 0.00 0.00 0.00 0.00 0.00 0.00 0.00 0.00 0.00 0.00 0.00 0.00 0.00 0.00 0.00 0.00 0.00 0.00
0.02 0.03 0.02 0.03 0.04 0.06 0.20 0.29 0.28 0.44 0.22 0.10 0.09 0.09 0.08 0.06 0.04 0.03 0.01 0.00 0.00 0.00 0.00 0.00 0.00 0.00 0.00 0.00 0.00 0.00 0.00 0.00 0.00 0.00 0.00 0.00 0.00 0.00 0.00 0.00 0.00 0.00 0.00

GFSGL_prec_precacc_030.txt.gz
Total_Precipitation_Accumulation
0.00 0.00 0.00 0.00 0.00 0.00 0.00 0.00 0.00 0.00 0.00 0.00 0.00 0.00 0.00 0.00 0.00 0.00 0.00 0.00 0.00 0.00 0.00 0.00 0.00 0.02 0.01 0.01 0.01 0.00 0.00 0.01 0.00 0.00 0.00 0.00 0.00 0.00 0.00 0.00 0.00 0.00 0.00
0.00 0.00 0.00 0.00 0.00 0.00 0.01 0.01 0.00 0.00 0.00 0.00 0.00 0.00 0.00 0.00 0.00 0.00 0.00 0.00 0.00 0.00 0.00 0.00 0.00 0.00 0.02 0.01 0.01 0.00 0.01 0.01 0.01 0.00 0.00 0.00 0.00 0.00 0.00 0.00 0.00 0.00 0.00
0.00 0.00 0.00 0.00 0.00 0.00 0.01 0.02 0.01 0.00 0.00 0.00 0.00 0.00 0.00 0.00 0.00 0.00 0.00 0.00 0.00 0.00 0.00 0.00 0.00 0.01 0.03 0.01 0.02 0.00 0.00 0.01 0.03 0.03 0.00 0.00 0.00 0.00 0.00 0.00 0.00 0.00 0.00
0.00 0.00 0.00 0.00 0.00 0.03 0.09 0.06 0.01 0.01 0.01 0.02 0.02 0.01 0.00 0.00 0.00 0.01 0.01 0.01 0.01 0.02 0.05 0.07 0.04 0.03 0.02 0.03 0.02 0.03 0.02 0.04 0.03 0.04 0.03 0.01 0.00 0.00 0.00 0.00 0.00 0.00 0.00
0.00 0.00 0.00 0.00 0.04 0.17 0.27 0.34 0.23 0.16 0.10 0.04 0.02 0.00 0.00 0.00 0.01 0.00 0.02 0.03 0.09 0.10 0.10 0.12 0.09 0.16 0.07 0.02 0.04 0.02 0.03 0.04 0.04 0.09 0.08 0.02 0.01 0.02 0.03 0.01 0.00 0.00 0.00
0.00 0.00 0.00 0.00 0.04 0.14 0.37 0.73 0.41 0.23 0.16 0.15 0.09 0.04 0.02 0.02 0.03 0.01 0.03 0.14 0.16 0.20 0.17 0.14 0.13 0.13 0.13 0.16 0.15 0.04 0.07 0.09 0.22 0.21 0.10 0.06 0.06 0.06 0.07 0.05 0.02 0.01 0.00
0.00 0.00 0.00 0.00 0.07 0.13 0.15 0.22 0.26 0.33 0.31 0.14 0.05 0.03 0.03 0.08 0.27 0.13 0.18 0.15 0.18 0.19 0.15 0.15 0.13 0.08 0.13 0.06 0.13 0.19 0.22 0.22 0.19 0.19 0.08 0.09 0.10 0.10 0.10 0.04 0.04 0.04 0.02
0.00 0.00 0.00 0.00 0.04 0.10 0.12 0.13 0.12 0.10 0.05 0.05 0.10 0.16 0.15 0.15 0.17 0.15 0.12 0.09 0.10 0.11 0.17 0.17 0.13 0.16 0.20 0.13 0.20 0.20 0.17 0.16 0.20 0.18 0.11 0.07 0.09 0.07 0.05 0.03 0.06 0.02 0.02
0.00 0.00 0.00 0.00 0.01 0.05 0.06 0.05 0.05 0.02 0.02 0.05 0.24 0.39 0.25 0.19 0.19 0.17 0.16 0.07 0.09 0.16 0.20 0.14 0.16 0.16 0.27 0.31 0.22 0.24 0.12 0.09 0.13 0.07 0.04 0.04 0.05 0.05 0.03 0.02 0.03 0.04 0.02
0.00 0.00 0.00 0.01 0.01 0.00 0.00 0.02 0.06 0.13 0.17 0.10 0.09 0.13 0.15 0.18 0.23 0.16 0.19 0.14 0.14 0.14 0.15 0.13 0.15 0.09 0.28 0.31 0.18 0.19 0.10 0.13 0.12 0.06 0.05 0.02 0.00 0.00 0.00 0.02 0.02 0.03 0.03
0.00 0.01 0.02 0.02 0.01 0.01 0.05 0.17 0.24 0.24 0.11 0.03 0.07 0.29 0.28 0.19 0.26 0.15 0.15 0.12 0.11 0.11 0.15 0.20 0.20 0.26 0.23 0.27 0.23 0.23 0.17 0.14 0.09 0.03 0.01 0.00 0.00 0.00 0.00 0.00 0.01 0.02 0.01
0.00 0.01 0.02 0.01 0.01 0.03 0.19 0.23 0.16 0.14 0.22 0.28 0.35 0.30 0.20 0.25 0.22 0.16 0.14 0.08 0.08 0.06 0.12 0.15 0.21 0.17 0.19 0.21 0.26 0.26 0.18 0.06 0.03 0.01 0.01 0.00 0.00 0.00 0.00 0.00 0.00 0.00 0.01
0.00 0.00 0.00 0.01 0.01 0.06 0.17 0.15 0.16 0.17 0.20 0.16 0.14 0.19 0.26 0.29 0.23 0.18 0.15 0.07 0.04 0.04 0.11 0.23 0.22 0.24 0.24 0.24 0.19 0.16 0.07 0.01 0.00 0.00 0.00 0.00 0.00 0.00 0.00 0.00 0.00 0.00 0.02
0.01 0.00 0.01 0.01 0.02 0.04 0.14 0.21 0.08 0.17 0.22 0.29 0.36 0.43 0.44 0.38 0.22 0.14 0.16 0.18 0.16 0.18 0.18 0.18 0.26 0.24 0.19 0.17 0.16 0.11 0.03 0.00 0.00 0.00 0.00 0.00 0.00 0.00 0.00 0.00 0.00 0.00 0.02
0.03 0.12 0.15 0.17 0.16 0.19 0.21 0.32 0.45 0.59 0.52 0.58 0.70 0.74 0.65 0.58 0.54 0.59 0.63 0.57 0.58 0.76 0.81 0.73 0.60 0.36 0.22 0.15 0.10 0.05 0.02 0.00 0.00 0.00 0.00 0.00 0.00 0.00 0.00 0.00 0.00 0.00 0.05
0.22 0.37 0.45 0.53 0.60 0.65 0.73 0.83 1.01 0.94 0.88 1.05 1.03 0.97 1.35 1.95 2.36 2.19 2.38 2.38 2.05 1.76 1.57 1.27 0.77 0.38 0.25 0.22 0.17 0.08 0.01 0.00 0.00 0.00 0.00 0.00 0.00 0.00 0.00 0.00 0.00 0.00 0.01
0.23 0.18 0.17 0.29 0.49 0.57 0.74 0.80 0.83 0.94 0.95 1.01 1.18 1.23 1.18 0.93 0.87 0.89 0.87 0.77 0.78 0.82 0.60 0.31 0.23 0.23 0.23 0.22 0.18 0.09 0.02 0.00 0.00 0.00 0.00 0.00 0.00 0.00 0.00 0.00 0.00 0.00 0.00
0.67 0.83 0.85 0.63 0.46 0.31 0.41 0.60 0.83 0.91 0.89 0.77 0.58 0.58 0.43 0.32 0.27 0.25 0.28 0.19 0.19 0.14 0.13 0.12 0.09 0.08 0.06 0.05 0.04 0.02 0.00 0.00 0.00 0.00 0.00 0.00 0.00 0.00 0.00 0.00 0.00 0.00 0.00
1.05 0.75 0.82 1.06 1.04 0.82 0.63 0.60 0.42 0.29 0.26 0.24 0.20 0.28 0.30 0.29 0.30 0.30 0.23 0.12 0.11 0.10 0.10 0.11 0.09 0.08 0.04 0.00 0.00 0.00 0.00 0.00 0.00 0.00 0.00 0.00 0.00 0.00 0.00 0.00 0.00 0.00 0.00
1.32 1.88 1.62 1.44 1.40 1.35 1.26 1.14 1.04 0.89 0.78 0.73 0.67 0.57 0.55 0.61 0.53 0.42 0.33 0.24 0.19 0.18 0.15 0.10 0.09 0.07 0.02 0.00 0.00 0.00 0.00 0.00 0.00 0.00 0.00 0.00 0.00 0.00 0.00 0.00 0.00 0.00 0.00
0.78 0.81 0.89 1.04 1.41 1.58 1.55 1.62 1.59 1.55 1.57 1.60 1.58 1.63 1.74 1.62 1.47 1.21 0.62 0.21 0.11 0.06 0.04 0.02 0.01 0.01 0.01 0.00 0.00 0.00 0.00 0.00 0.00 0.00 0.00 0.00 0.00 0.00 0.00 0.00 0.00 0.00 0.00
0.32 0.33 0.27 0.29 0.28 0.28 0.31 0.38 0.44 0.43 0.51 0.67 0.70 0.73 0.81 0.93 0.96 0.89 0.43 0.12 0.03 0.02 0.02 0.02 0.01 0.00 0.00 0.00 0.00 0.00 0.00 0.00 0.00 0.00 0.00 0.00 0.00 0.00 0.00 0.00 0.00 0.00 0.00
0.12 0.14 0.14 0.12 0.17 0.21 0.18 0.12 0.11 0.18 0.23 0.24 0.26 0.14 0.09 0.15 0.13 0.14 0.10 0.05 0.04 0.04 0.05 0.03 0.01 0.00 0.00 0.00 0.00 0.00 0.00 0.00 0.00 0.00 0.00 0.00 0.00 0.00 0.00 0.00 0.00 0.00 0.00
0.05 0.10 0.14 0.19 0.26 0.31 0.26 0.25 0.24 0.23 0.28 0.29 0.27 0.19 0.12 0.11 0.16 0.21 0.17 0.11 0.07 0.03 0.00 0.00 0.00 0.00 0.00 0.00 0.00 0.00 0.00 0.00 0.00 0.00 0.00 0.00 0.00 0.00 0.00 0.00 0.00 0.00 0.00
0.03 0.03 0.08 0.11 0.15 0.24 0.31 0.26 0.22 0.16 0.13 0.15 0.20 0.16 0.08 0.05 0.02 0.01 0.00 0.00 0.00 0.00 0.00 0.00 0.00 0.00 0.00 0.00 0.00 0.00 0.00 0.00 0.00 0.00 0.00 0.00 0.00 0.00 0.00 0.00 0.00 0.00 0.00
0.02 0.03 0.02 0.03 0.04 0.06 0.20 0.30 0.29 0.45 0.23 0.11 0.11 0.11 0.09 0.07 0.04 0.03 0.01 0.00 0.00 0.00 0.00 0.00 0.00 0.00 0.00 0.00 0.00 0.00 0.00 0.00 0.00 0.00 0.00 0.00 0.00 0.00 0.00 0.00 0.00 0.00 0.00

GFSGL_prec_precacc_033.txt.gz
Total_Precipitation_Accumulation
0.00 0.00 0.00 0.00 0.00 0.00 0.00 0.00 0.00 0.00 0.00 0.00 0.00 0.00 0.00 0.00 0.00 0.00 0.00 0.00 0.00 0.00 0.00 0.00 0.00 0.02 0.01 0.01 0.01 0.00 0.00 0.01 0.00 0.00 0.00 0.00 0.00 0.00 0.00 0.00 0.00 0.00 0.00
0.00 0.00 0.00 0.00 0.00 0.00 0.01 0.01 0.00 0.00 0.00 0.00 0.00 0.00 0.00 0.00 0.00 0.00 0.00 0.00 0.00 0.00 0.00 0.00 0.00 0.00 0.02 0.01 0.01 0.00 0.01 0.01 0.01 0.00 0.00 0.00 0.00 0.00 0.00 0.00 0.00 0.00 0.00
0.00 0.00 0.00 0.00 0.00 0.00 0.01 0.02 0.01 0.00 0.00 0.00 0.00 0.00 0.00 0.00 0.00 0.00 0.00 0.00 0.00 0.00 0.00 0.00 0.00 0.01 0.03 0.01 0.02 0.00 0.00 0.01 0.03 0.03 0.00 0.00 0.00 0.00 0.00 0.00 0.00 0.00 0.00
0.00 0.00 0.00 0.00 0.00 0.03 0.09 0.06 0.01 0.01 0.01 0.02 0.02 0.01 0.00 0.00 0.00 0.01 0.01 0.01 0.01 0.02 0.05 0.07 0.04 0.03 0.02 0.03 0.02 0.03 0.02 0.04 0.03 0.04 0.03 0.01 0.00 0.00 0.00 0.00 0.00 0.00 0.00
0.00 0.00 0.00 0.00 0.04 0.17 0.27 0.34 0.23 0.16 0.10 0.04 0.02 0.00 0.00 0.00 0.01 0.00 0.02 0.03 0.09 0.10 0.10 0.12 0.09 0.16 0.07 0.02 0.04 0.02 0.03 0.04 0.04 0.09 0.08 0.02 0.01 0.02 0.03 0.01 0.00 0.00 0.00
0.00 0.00 0.00 0.00 0.04 0.14 0.37 0.73 0.41 0.23 0.16 0.15 0.09 0.04 0.02 0.02 0.03 0.01 0.03 0.14 0.16 0.20 0.17 0.14 0.13 0.13 0.13 0.16 0.15 0.04 0.07 0.09 0.22 0.21 0.10 0.06 0.06 0.06 0.07 0.05 0.02 0.01 0.00
0.00 0.00 0.00 0.00 0.07 0.13 0.15 0.22 0.26 0.33 0.31 0.14 0.05 0.03 0.03 0.08 0.27 0.13 0.18 0.15 0.18 0.19 0.15 0.15 0.13 0.08 0.13 0.06 0.13 0.19 0.22 0.23 0.20 0.20 0.08 0.09 0.10 0.11 0.12 0.08 0.05 0.07 0.03
0.00 0.00 0.00 0.00 0.04 0.10 0.12 0.13 0.12 0.10 0.05 0.05 0.10 0.16 0.15 0.15 0.17 0.15 0.12 0.09 0.10 0.11 0.17 0.17 0.13 0.16 0.20 0.13 0.20 0.20 0.17 0.16 0.26 0.23 0.12 0.07 0.10 0.08 0.07 0.05 0.08 0.04 0.04
0.00 0.00 0.00 0.00 0.01 0.05 0.06 0.05 0.05 0.02 0.02 0.05 0.24 0.39 0.25 0.19 0.19 0.17 0.16 0.07 0.09 0.16 0.20 0.14 0.16 0.16 0.27 0.31 0.22 0.24 0.12 0.09 0.17 0.16 0.06 0.05 0.05 0.05 0.04 0.03 0.05 0.09 0.04
0.00 0.00 0.00 0.01 0.01 0.00 0.00 0.02 0.06 0.13 0.17 0.10 0.09 0.13 0.15 0.18 0.23 0.16 0.19 0.14 0.14 0.14 0.15 0.13 0.15 0.09 0.28 0.31 0.18 0.19 0.10 0.13 0.13 0.12 0.09 0.03 0.02 0.01 0.00 0.02 0.04 0.05 0.04
0.00 0.01 0.02 0.02 0.01 0.01 0.05 0.17 0.24 0.24 0.11 0.03 0.07 0.29 0.28 0.19 0.26 0.15 0.15 0.12 0.11 0.11 0.15 0.20 0.20 0.26 0.23 0.27 0.23 0.23 0.19 0.16 0.17 0.08 0.09 0.07 0.02 0.01 0.00 0.00 0.01 0.02 0.01
0.00 0.01 0.02 0.01 0.01 0.03 0.19 0.23 0.16 0.14 0.22 0.28 0.35 0.30 0.20 0.25 0.22 0.16 0.14 0.08 0.08 0.06 0.12 0.15 0.21 0.17 0.19 0.21 0.26 0.26 0.20 0.14 0.06 0.07 0.06 0.03 0.01 0.00 0.00 0.00 0.00 0.00 0.01
0.00 0.00 0.00 0.01 0.01 0.06 0.17 0.15 0.16 0.17 0.20 0.16 0.14 0.19 0.26 0.29 0.23 0.18 0.15 0.07 0.04 0.04 0.11 0.23 0.22 0.24 0.24 0.24 0.19 0.18 0.15 0.10 0.02 0.01 0.01 0.01 0.00 0.00 0.00 0.00 0.00 0.00 0.02
0.01 0.00 0.01 0.01 0.02 0.04 0.14 0.21 0.08 0.17 0.22 0.29 0.36 0.43 0.44 0.38 0.22 0.14 0.16 0.18 0.16 0.18 0.18 0.18 0.29 0.27 0.22 0.18 0.19 0.19 0.16 0.13 0.03 0.04 0.04 0.05 0.02 0.00 0.00 0.00 0.00 0.00 0.02
0.03 0.12 0.15 0.17 0.16 0.19 0.21 0.32 0.45 0.59 0.52 0.58 0.70 0.74 0.65 0.58 0.54 0.59 0.63 0.57 0.58 0.76 0.81 0.74 0.65 0.49 0.39 0.32 0.27 0.23 0.21 0.14 0.12 0.13 0.20 0.23 0.06 0.00 0.00 0.00 0.00 0.00 0.05
0.22 0.37 0.45 0.53 0.60 0.65 0.73 0.83 1.01 0.94 0.88 1.05 1.03 0.97 1.35 1.95 2.36 2.20 2.38 2.38 2.05 1.77 1.59 1.35 0.87 0.58 0.56 0.50 0.44 0.33 0.23 0.21 0.17 0.15 0.17 0.22 0.05 0.00 0.00 0.00 0.00 0.00 0.01
0.23 0.18 0.17 0.29 0.49 0.57 0.74 0.80 0.83 0.95 0.96 1.01 1.18 1.23 1.18 0.94 0.88 0.89 0.88 0.77 0.79 0.82 0.61 0.34 0.29 0.31 0.37 0.43 0.38 0.26 0.23 0.19 0.09 0.07 0.05 0.03 0.01 0.00 0.00 0.00 0.00 0.00 0.00
0.67 0.83 0.85 0.63 0.46 0.31 0.41 0.60 0.83 0.91 0.90 0.77 0.58 0.58 0.43 0.32 0.28 0.25 0.28 0.20 0.20 0.16 0.14 0.13 0.15 0.27 0.27 0.20 0.16 0.10 0.05 0.03 0.02 0.03 0.03 0.02 0.00 0.00 0.00 0.00 0.00 0.00 0.00
1.05 0.75 0.82 1.06 1.04 0.82 0.63 0.60 0.42 0.29 0.26 0.24 0.20 0.28 0.32 0.33 0.36 0.37 0.31 0.19 0.16 0.14 0.16 0.21 0.22 0.24 0.20 0.11 0.08 0.07 0.03 0.02 0.00 0.01 0.00 0.00 0.00 0.00 0.00 0.00 0.00 0.00 0.00
1.32 1.88 1.62 1.44 1.40 1.35 1.26 1.14 1.04 0.89 0.78 0.73 0.67 0.57 0.55 0.63 0.60 0.59 0.55 0.51 0.47 0.34 0.29 0.23 0.20 0.18 0.10 0.05 0.01 0.01 0.01 0.00 0.00 0.00 0.00 0.00 0.00 0.00 0.00 0.00 0.00 0.00 0.00
0.78 0.81 0.89 1.04 1.41 1.58 1.55 1.62 1.59 1.55 1.57 1.60 1.58 1.63 1.75 1.63 1.53 1.51 1.50 1.49 1.22 1.01 1.01 0.83 0.32 0.11 0.05 0.02 0.00 0.00 0.00 0.00 0.00 0.00 0.00 0.00 0.00 0.00 0.00 0.00 0.00 0.00 0.00
0.32 0.33 0.27 0.29 0.28 0.28 0.31 0.38 0.44 0.43 0.52 0.67 0.70 0.73 0.81 0.94 1.04 1.21 1.24 1.20 1.24 1.38 1.50 1.38 0.84 0.32 0.08 0.01 0.00 0.00 0.00 0.00 0.00 0.00 0.00 0.00 0.00 0.00 0.00 0.00 0.00 0.00 0.00
0.12 0.14 0.14 0.12 0.17 0.21 0.18 0.12 0.11 0.18 0.23 0.24 0.26 0.14 0.10 0.15 0.14 0.16 0.17 0.15 0.16 0.16 0.27 0.24 0.16 0.08 0.05 0.01 0.01 0.00 0.00 0.00 0.00 0.00 0.00 0.00 0.00 0.00 0.00 0.00 0.00 0.00 0.00
0.05 0.10 0.15 0.19 0.26 0.31 0.26 0.25 0.25 0.23 0.28 0.29 0.27 0.20 0.14 0.12 0.18 0.29 0.34 0.28 0.28 0.29 0.19 0.17 0.09 0.04 0.02 0.02 0.00 0.00 0.00 0.00 0.00 0.00 0.00 0.00 0.00 0.00 0.00 0.00 0.00 0.00 0.00
0.03 0.03 0.08 0.11 0.16 0.24 0.31 0.26 0.22 0.16 0.13 0.15 0.21 0.16 0.08 0.05 0.02 0.02 0.03 0.06 0.16 0.34 0.21 0.12 0.04 0.00 0.00 0.00 0.00 0.00 0.00 0.00 0.00 0.00 0.00 0.00 0.00 0.00 0.00 0.00 0.00 0.00 0.00
0.02 0.03 0.02 0.03 0.04 0.06 0.20 0.30 0.29 0.45 0.23 0.11 0.11 0.12 0.09 0.07 0.04 0.03 0.01 0.00 0.00 0.00 0.00 0.00 0.00 0.00 0.00 0.00 0.00 0.00 0.00 0.00 0.00 0.00 0.00 0.00 0.00 0.00 0.00 0.00 0.00 0.00 0.00

GFSGL_prec_precacc_036.txt.gz
Total_Precipitation_Accumulation
0.00 0.00 0.00 0.00 0.00 0.00 0.00 0.00 0.00 0.00 0.00 0.00 0.00 0.00 0.00 0.00 0.00 0.00 0.00 0.00 0.00 0.00 0.00 0.00 0.00 0.02 0.01 0.01 0.01 0.00 0.00 0.01 0.00 0.00 0.00 0.00 0.00 0.00 0.00 0.00 0.00 0.00 0.00
0.00 0.00 0.00 0.00 0.00 0.00 0.01 0.01 0.00 0.00 0.00 0.00 0.00 0.00 0.00 0.00 0.00 0.00 0.00 0.00 0.00 0.00 0.00 0.00 0.00 0.00 0.02 0.01 0.01 0.00 0.01 0.01 0.01 0.00 0.00 0.00 0.00 0.00 0.00 0.00 0.00 0.00 0.00
0.00 0.00 0.00 0.00 0.00 0.00 0.01 0.02 0.01 0.00 0.00 0.00 0.00 0.00 0.00 0.00 0.00 0.00 0.00 0.00 0.00 0.00 0.00 0.00 0.00 0.01 0.03 0.01 0.02 0.00 0.00 0.01 0.03 0.03 0.00 0.00 0.00 0.00 0.00 0.00 0.00 0.00 0.00
0.00 0.00 0.00 0.00 0.00 0.03 0.09 0.06 0.01 0.01 0.01 0.02 0.02 0.01 0.00 0.00 0.00 0.01 0.01 0.01 0.01 0.02 0.05 0.07 0.04 0.03 0.02 0.03 0.02 0.03 0.02 0.04 0.03 0.04 0.03 0.01 0.00 0.00 0.00 0.00 0.00 0.00 0.00
0.00 0.00 0.00 0.00 0.04 0.17 0.27 0.34 0.23 0.16 0.10 0.04 0.02 0.00 0.00 0.00 0.01 0.00 0.02 0.03 0.09 0.10 0.10 0.12 0.09 0.16 0.07 0.02 0.04 0.02 0.03 0.04 0.04 0.09 0.08 0.02 0.01 0.02 0.03 0.01 0.00 0.00 0.00
0.00 0.00 0.00 0.00 0.04 0.14 0.37 0.73 0.41 0.23 0.16 0.15 0.09 0.04 0.02 0.02 0.03 0.01 0.03 0.14 0.16 0.20 0.17 0.14 0.13 0.13 0.13 0.16 0.15 0.04 0.07 0.09 0.22 0.21 0.10 0.06 0.06 0.06 0.07 0.05 0.02 0.01 0.01
0.00 0.00 0.00 0.00 0.07 0.13 0.15 0.22 0.26 0.33 0.31 0.14 0.05 0.03 0.03 0.08 0.27 0.13 0.18 0.15 0.18 0.19 0.15 0.15 0.13 0.08 0.13 0.06 0.13 0.19 0.22 0.23 0.20 0.20 0.08 0.09 0.11 0.12 0.13 0.08 0.05 0.07 0.03
0.00 0.00 0.00 0.00 0.04 0.10 0.12 0.13 0.12 0.10 0.05 0.05 0.10 0.16 0.15 0.15 0.17 0.15 0.12 0.09 0.10 0.11 0.17 0.17 0.13 0.16 0.20 0.13 0.20 0.20 0.17 0.16 0.26 0.23 0.12 0.07 0.10 0.09 0.07 0.06 0.09 0.05 0.04
0.00 0.00 0.00 0.00 0.01 0.05 0.06 0.05 0.05 0.02 0.02 0.05 0.24 0.39 0.25 0.19 0.19 0.17 0.16 0.07 0.09 0.16 0.20 0.14 0.16 0.16 0.27 0.31 0.22 0.24 0.12 0.09 0.17 0.16 0.06 0.05 0.07 0.10 0.06 0.03 0.05 0.09 0.04
0.00 0.00 0.00 0.01 0.01 0.00 0.00 0.02 0.06 0.13 0.17 0.10 0.09 0.13 0.15 0.18 0.23 0.16 0.19 0.14 0.14 0.14 0.15 0.13 0.15 0.09 0.28 0.31 0.18 0.19 0.10 0.13 0.13 0.12 0.09 0.04 0.05 0.07 0.08 0.04 0.04 0.05 0.04
0.00 0.01 0.02 0.02 0.01 0.01 0.05 0.17 0.24 0.24 0.11 0.03 0.07 0.29 0.28 0.19 0.26 0.15 0.15 0.12 0.11 0.11 0.15 0.20 0.20 0.26 0.23 0.27 0.23 0.23 0.19 0.16 0.17 0.08 0.09 0.09 0.09 0.07 0.08 0.05 0.02 0.02 0.01
0.00 0.01 0.02 0.01 0.01 0.03 0.19 0.23 0.16 0.14 0.22 0.28 0.35 0.30 0.20 0.25 0.22 0.16 0.14 0.08 0.08 0.06 0.12 0.15 0.21 0.17 0.19 0.21 0.26 0.26 0.20 0.14 0.07 0.07 0.06 0.06 0.06 0.05 0.06 0.06 0.05 0.00 0.02
0.00 0.00 0.00 0.01 0.01 0.06 0.17 0.15 0.16 0.17 0.20 0.16 0.14 0.19 0.26 0.29 0.23 0.18 0.15 0.07 0.04 0.04 0.11 0.23 0.22 0.24 0.24 0.24 0.19 0.18 0.16 0.11 0.03 0.02 0.03 0.04 0.05 0.07 0.05 0.04 0.03 0.01 0.04
0.01 0.00 0.01 0.01 0.02 0.04 0.14 0.21 0.08 0.17 0.23 0.29 0.36 0.43 0.44 0.38 0.22 0.14 0.16 0.18 0.16 0.18 0.18 0.18 0.29 0.27 0.24 0.18 0.19 0.20 0.17 0.14 0.06 0.05 0.07 0.14 0.18 0.13 0.10 0.07 0.04 0.02 0.03
0.03 0.12 0.15 0.17 0.16 0.19 0.21 0.32 0.45 0.59 0.52 0.58 0.70 0.74 0.65 0.58 0.54 0.59 0.63 0.57 0.58 0.76 0.81 0.74 0.65 0.50 0.48 0.35 0.31 0.27 0.21 0.15 0.15 0.19 0.30 0.42 0.46 0.40 0.24 0.12 0.06 0.03 0.06
0.22 0.37 0.45 0.53 0.60 0.65 0.73 0.83 1.01 0.94 0.88 1.05 1.03 0.97 1.35 1.95 2.36 2.20 2.38 2.38 2.06 1.77 1.61 1.35 0.87 0.58 0.56 0.56 0.62 0.50 0.36 0.29 0.27 0.31 0.42 0.53 0.45 0.27 0.11 0.05 0.03 0.01 0.01
0.23 0.18 0.17 0.29 0.49 0.57 0.74 0.80 0.83 0.95 0.96 1.01 1.18 1.23 1.18 0.94 0.88 0.89 0.89 0.79 0.80 0.82 0.62 0.35 0.29 0.32 0.37 0.45 0.50 0.44 0.43 0.44 0.47 0.52 0.56 0.47 0.35 0.18 0.04 0.01 0.00 0.00 0.00
0.67 0.83 0.85 0.63 0.46 0.31 0.41 0.60 0.83 0.91 0.90 0.77 0.58 0.58 0.43 0.32 0.28 0.25 0.29 0.21 0.20 0.16 0.15 0.14 0.16 0.27 0.28 0.21 0.19 0.18 0.20 0.33 0.42 0.48 0.34 0.24 0.12 0.04 0.02 0.01 0.00 0.00 0.00
1.05 0.75 0.82 1.06 1.04 0.82 0.63 0.60 0.42 0.29 0.26 0.24 0.20 0.28 0.32 0.33 0.36 0.37 0.31 0.19 0.16 0.15 0.18 0.25 0.27 0.31 0.26 0.18 0.17 0.18 0.16 0.19 0.20 0.15 0.12 0.12 0.09 0.05 0.03 0.01 0.00 0.00 0.00
1.32 1.88 1.62 1.44 1.40 1.35 1.26 1.14 1.04 0.89 0.78 0.73 0.67 0.57 0.55 0.63 0.60 0.59 0.55 0.51 0.48 0.37 0.35 0.34 0.33 0.32 0.25 0.23 0.22 0.24 0.29 0.26 0.17 0.11 0.05 0.02 0.03 0.02 0.01 0.00 0.00 0.00 0.00
0.78 0.81 0.89 1.04 1.41 1.58 1.55 1.62 1.59 1.55 1.57 1.60 1.58 1.63 1.75 1.63 1.53 1.51 1.50 1.49 1.22 1.02 1.04 1.09 1.15 1.24 1.26 1.34 1.39 1.35 1.05 0.55 0.22 0.14 0.02 0.00 0.00 0.00 0.00 0.00 0.00 0.00 0.00
0.32 0.33 0.27 0.29 0.28 0.28 0.31 0.38 0.44 0.43 0.52 0.67 0.70 0.74 0.82 0.94 1.04 1.22 1.25 1.20 1.25 1.41 1.52 1.46 1.35 1.37 1.49 1.50 1.54 1.19 0.74 0.47 0.09 0.02 0.00 0.00 0.00 0.00 0.00 0.00 0.00 0.00 0.00
0.12 0.14 0.14 0.12 0.17 0.21 0.18 0.12 0.11 0.18 0.23 0.24 0.26 0.15 0.10 0.16 0.14 0.16 0.18 0.16 0.17 0.18 0.30 0.29 0.25 0.20 0.17 0.12 0.14 0.14 0.09 0.06 0.05 0.03 0.01 0.00 0.00 0.00 0.00 0.00 0.00 0.00 0.00
0.05 0.10 0.15 0.19 0.26 0.31 0.26 0.25 0.25 0.23 0.29 0.29 0.27 0.20 0.15 0.12 0.18 0.29 0.34 0.29 0.28 0.30 0.22 0.26 0.18 0.15 0.09 0.08 0.09 0.08 0.06 0.04 0.03 0.01 0.00 0.00 0.00 0.00 0.00 0.00 0.00 0.00 0.00
0.03 0.03 0.08 0.11 0.16 0.24 0.31 0.27 0.22 0.16 0.14 0.16 0.21 0.16 0.08 0.06 0.03 0.02 0.03 0.07 0.17 0.35 0.25 0.22 0.12 0.07 0.06 0.06 0.04 0.02 0.01 0.00 0.00 0.00 0.00 0.00 0.00 0.00 0.00 0.00 0.00 0.00 0.00
0.02 0.03 0.02 0.03 0.04 0.06 0.20 0.30 0.29 0.45 0.23 0.11 0.11 0.12 0.09 0.07 0.04 0.03 0.02 0.01 0.01 0.03 0.06 0.05 0.01 0.00 0.00 0.00 0.00 0.00 0.00 0.00 0.00 0.00 0.00 0.00 0.00 0.00 0.00 0.00 0.00 0.00 0.00

GFSGL_prec_precacc_039.txt.gz
Total_Precipitation_Accumulation
0.00 0.00 0.00 0.00 0.00 0.00 0.00 0.00 0.00 0.00 0.00 0.00 0.00 0.00 0.00 0.00 0.00 0.00 0.00 0.00 0.00 0.00 0.00 0.00 0.00 0.02 0.01 0.01 0.01 0.00 0.00 0.01 0.00 0.00 0.00 0.00 0.00 0.00 0.00 0.00 0.00 0.00 0.00
0.00 0.00 0.00 0.00 0.00 0.00 0.01 0.01 0.00 0.00 0.00 0.00 0.00 0.00 0.00 0.00 0.00 0.00 0.00 0.00 0.00 0.00 0.00 0.00 0.00 0.00 0.02 0.01 0.01 0.00 0.01 0.01 0.01 0.00 0.00 0.00 0.00 0.00 0.00 0.00 0.00 0.00 0.00
0.00 0.00 0.00 0.00 0.00 0.00 0.01 0.02 0.01 0.00 0.00 0.00 0.00 0.00 0.00 0.00 0.00 0.00 0.00 0.00 0.00 0.00 0.00 0.00 0.00 0.01 0.03 0.01 0.02 0.00 0.00 0.01 0.03 0.03 0.00 0.00 0.00 0.00 0.00 0.00 0.00 0.00 0.00
0.00 0.00 0.00 0.00 0.00 0.03 0.09 0.06 0.01 0.01 0.01 0.02 0.02 0.01 0.00 0.00 0.00 0.01 0.01 0.01 0.01 0.02 0.05 0.07 0.04 0.03 0.02 0.03 0.02 0.03 0.02 0.04 0.03 0.04 0.03 0.01 0.00 0.00 0.00 0.00 0.00 0.00 0.00
0.00 0.00 0.00 0.00 0.04 0.17 0.27 0.34 0.23 0.16 0.10 0.04 0.02 0.00 0.00 0.00 0.01 0.00 0.02 0.03 0.09 0.10 0.10 0.12 0.09 0.16 0.07 0.02 0.04 0.02 0.03 0.04 0.04 0.09 0.08 0.02 0.01 0.02 0.03 0.01 0.00 0.00 0.00
0.00 0.00 0.00 0.00 0.04 0.14 0.37 0.73 0.41 0.23 0.16 0.15 0.09 0.04 0.02 0.02 0.03 0.01 0.03 0.14 0.16 0.20 0.17 0.14 0.13 0.13 0.13 0.16 0.15 0.04 0.07 0.09 0.22 0.21 0.10 0.06 0.06 0.06 0.07 0.05 0.02 0.01 0.01
0.00 0.00 0.00 0.00 0.07 0.13 0.15 0.22 0.26 0.33 0.31 0.14 0.05 0.03 0.03 0.08 0.27 0.13 0.18 0.15 0.18 0.19 0.15 0.15 0.13 0.08 0.13 0.06 0.13 0.19 0.22 0.23 0.20 0.20 0.08 0.09 0.11 0.12 0.13 0.08 0.06 0.07 0.03
0.00 0.00 0.00 0.00 0.04 0.10 0.12 0.13 0.12 0.10 0.05 0.05 0.10 0.16 0.15 0.15 0.17 0.15 0.12 0.09 0.10 0.11 0.17 0.17 0.13 0.16 0.20 0.13 0.20 0.20 0.17 0.16 0.26 0.23 0.12 0.07 0.10 0.09 0.07 0.06 0.10 0.05 0.04
0.00 0.00 0.00 0.00 0.01 0.05 0.06 0.05 0.05 0.02 0.02 0.05 0.24 0.39 0.25 0.19 0.19 0.17 0.16 0.07 0.09 0.16 0.20 0.14 0.16 0.16 0.27 0.31 0.22 0.24 0.12 0.09 0.17 0.16 0.06 0.05 0.07 0.11 0.06 0.04 0.07 0.12 0.08
0.00 0.00 0.00 0.01 0.01 0.00 0.00 0.02 0.06 0.13 0.17 0.10 0.09 0.13 0.15 0.18 0.23 0.16 0.19 0.14 0.14 0.14 0.15 0.13 0.15 0.09 0.28 0.31 0.18 0.19 0.10 0.13 0.13 0.12 0.09 0.04 0.05 0.07 0.09 0.06 0.08 0.11 0.08
0.00 0.01 0.02 0.02 0.01 0.01 0.05 0.17 0.24 0.24 0.11 0.03 0.07 0.29 0.28 0.19 0.26 0.15 0.15 0.12 0.11 0.11 0.15 0.20 0.20 0.26 0.23 0.27 0.23 0.23 0.19 0.16 0.17 0.08 0.09 0.09 0.09 0.07 0.08 0.09 0.09 0.09 0.05
0.00 0.01 0.02 0.01 0.01 0.03 0.19 0.23 0.16 0.14 0.22 0.28 0.35 0.30 0.20 0.25 0.22 0.16 0.14 0.08 0.08 0.06 0.12 0.15 0.21 0.17 0.19 0.21 0.26 0.26 0.20 0.14 0.07 0.07 0.06 0.06 0.06 0.05 0.09 0.13 0.12 0.06 0.07
0.00 0.00 0.00 0.01 0.01 0.06 0.17 0.15 0.16 0.17 0.20 0.16 0.14 0.19 0.26 0.29 0.23 0.18 0.15 0.07 0.04 0.04 0.11 0.23 0.22 0.24 0.24 0.24 0.19 0.18 0.16 0.12 0.03 0.03 0.03 0.04 0.05 0.13 0.15 0.12 0.09 0.08 0.10
0.01 0.00 0.01 0.01 0.02 0.04 0.14 0.21 0.08 0.17 0.23 0.30 0.37 0.44 0.44 0.38 0.22 0.14 0.16 0.18 0.16 0.18 0.18 0.18 0.29 0.27 0.24 0.19 0.20 0.20 0.17 0.15 0.07 0.06 0.08 0.14 0.28 0.39 0.31 0.18 0.15 0.16 0.15
0.03 0.12 0.15 0.17 0.16 0.19 0.21 0.32 0.45 0.59 0.52 0.59 0.70 0.75 0.65 0.59 0.54 0.59 0.63 0.57 0.58 0.76 0.81 0.75 0.65 0.50 0.48 0.35 0.31 0.27 0.23 0.19 0.18 0.36 0.53 0.59 0.63 0.69 0.56 0.48 0.44 0.25 0.23
0.22 0.37 0.45 0.53 0.60 0.65 0.73 0.83 1.01 0.94 0.89 1.05 1.03 0.98 1.36 1.95 2.37 2.20 2.39 2.39 2.06 1.77 1.61 1.35 0.87 0.58 0.56 0.56 0.62 0.50 0.37 0.32 0.36 0.66 0.79 0.75 0.78 0.68 0.57 0.51 0.41 0.21 0.12
0.23 0.18 0.17 0.29 0.49 0.57 0.74 0.80 0.83 0.95 0.96 1.01 1.18 1.23 1.18 0.94 0.88 0.90 0.89 0.79 0.82 0.83 0.62 0.35 0.29 0.32 0.38 0.45 0.51 0.45 0.45 0.47 0.58 0.80 0.90 0.78 0.67 0.57 0.55 0.49 0.38 0.22 0.08
0.67 0.83 0.85 0.63 0.46 0.31 0.42 0.61 0.85 0.91 0.90 0.77 0.58 0.58 0.43 0.32 0.28 0.25 0.29 0.21 0.20 0.16 0.15 0.15 0.16 0.28 0.29 0.23 0.21 0.21 0.24 0.38 0.52 0.61 0.55 0.52 0.52 0.46 0.32 0.20 0.20 0.14 0.03
1.05 0.75 0.82 1.08 1.05 0.82 0.65 0.62 0.42 0.29 0.26 0.24 0.20 0.28 0.32 0.33 0.36 0.37 0.32 0.19 0.16 0.15 0.18 0.25 0.28 0.33 0.30 0.23 0.22 0.24 0.22 0.28 0.34 0.35 0.41 0.46 0.42 0.41 0.33 0.26 0.25 0.13 0.04
1.32 1.88 1.62 1.44 1.40 1.35 1.26 1.15 1.04 0.89 0.78 0.73 0.67 0.57 0.55 0.63 0.60 0.59 0.55 0.51 0.48 0.37 0.35 0.34 0.33 0.32 0.25 0.25 0.26 0.31 0.38 0.55 0.61 0.77 0.92 1.07 1.31 1.26 0.82 0.37 0.13 0.05 0.02
0.78 0.81 0.89 1.04 1.41 1.58 1.55 1.62 1.59 1.55 1.57 1.60 1.58 1.63 1.75 1.63 1.53 1.51 1.50 1.49 1.22 1.02 1.04 1.09 1.15 1.25 1.27 1.35 1.40 1.46 1.53 1.50 1.61 1.78 2.23 2.06 1.68 1.19 0.55 0.22 0.09 0.01 0.00
0.32 0.33 0.27 0.29 0.28 0.28 0.31 0.38 0.44 0.43 0.52 0.67 0.70 0.74 0.82 0.94 1.04 1.22 1.25 1.20 1.25 1.41 1.52 1.46 1.35 1.37 1.49 1.51 1.57 1.44 1.09 1.14 1.07 1.13 1.14 0.80 0.49 0.36 0.27 0.11 0.03 0.00 0.00
0.12 0.14 0.14 0.12 0.17 0.21 0.18 0.12 0.11 0.18 0.23 0.24 0.26 0.15 0.10 0.16 0.14 0.16 0.18 0.16 0.17 0.18 0.30 0.29 0.26 0.20 0.17 0.12 0.14 0.14 0.09 0.07 0.10 0.13 0.15 0.20 0.25 0.15 0.07 0.01 0.00 0.00 0.00
0.06 0.10 0.15 0.19 0.26 0.31 0.26 0.25 0.25 0.24 0.29 0.29 0.27 0.20 0.15 0.12 0.18 0.29 0.34 0.29 0.28 0.30 0.22 0.26 0.18 0.15 0.09 0.09 0.10 0.08 0.06 0.05 0.06 0.03 0.01 0.00 0.00 0.00 0.00 0.00 0.00 0.00 0.00
0.04 0.03 0.08 0.11 0.16 0.24 0.31 0.27 0.22 0.16 0.14 0.16 0.21 0.16 0.08 0.06 0.03 0.02 0.03 0.07 0.17 0.35 0.25 0.22 0.12 0.07 0.06 0.07 0.05 0.02 0.01 0.01 0.00 0.00 0.00 0.00 0.00 0.00 0.00 0.00 0.00 0.00 0.00
0.02 0.03 0.02 0.03 0.04 0.06 0.20 0.30 0.29 0.45 0.23 0.11 0.11 0.12 0.09 0.07 0.04 0.03 0.02 0.01 0.01 0.03 0.07 0.06 0.02 0.01 0.00 0.00 0.00 0.00 0.00 0.00 0.00 0.00 0.00 0.00 0.00 0.00 0.00 0.00 0.00 0.00 0.00

GFSGL_prec_precacc_042.txt.gz
Total_Precipitation_Accumulation
0.00 0.00 0.00 0.00 0.00 0.00 0.00 0.00 0.00 0.00 0.00 0.00 0.00 0.00 0.00 0.00 0.00 0.00 0.00 0.00 0.00 0.00 0.00 0.00 0.00 0.02 0.01 0.01 0.01 0.00 0.00 0.01 0.00 0.00 0.00 0.00 0.00 0.00 0.00 0.00 0.00 0.00 0.00
0.00 0.00 0.00 0.00 0.00 0.00 0.01 0.01 0.00 0.00 0.00 0.00 0.00 0.00 0.00 0.00 0.00 0.00 0.00 0.00 0.00 0.00 0.00 0.00 0.00 0.00 0.02 0.01 0.01 0.00 0.01 0.01 0.01 0.00 0.00 0.00 0.00 0.00 0.00 0.00 0.00 0.00 0.00
0.00 0.00 0.00 0.00 0.00 0.00 0.01 0.02 0.01 0.00 0.00 0.00 0.00 0.00 0.00 0.00 0.00 0.00 0.00 0.00 0.00 0.00 0.00 0.00 0.00 0.01 0.03 0.01 0.02 0.00 0.00 0.01 0.03 0.03 0.00 0.00 0.00 0.00 0.00 0.00 0.00 0.00 0.00
0.00 0.00 0.00 0.00 0.00 0.03 0.09 0.06 0.01 0.01 0.01 0.02 0.02 0.01 0.00 0.00 0.00 0.01 0.01 0.01 0.01 0.02 0.05 0.07 0.04 0.03 0.02 0.03 0.02 0.03 0.02 0.04 0.03 0.04 0.03 0.01 0.00 0.00 0.00 0.00 0.00 0.00 0.00
0.00 0.00 0.00 0.00 0.04 0.17 0.27 0.34 0.23 0.16 0.10 0.04 0.02 0.00 0.00 0.00 0.01 0.00 0.02 0.03 0.09 0.10 0.10 0.12 0.09 0.16 0.07 0.02 0.04 0.02 0.03 0.04 0.04 0.09 0.08 0.02 0.01 0.02 0.03 0.01 0.00 0.00 0.00
0.00 0.00 0.00 0.00 0.04 0.14 0.37 0.73 0.41 0.23 0.16 0.15 0.09 0.04 0.02 0.02 0.03 0.01 0.03 0.14 0.16 0.20 0.17 0.14 0.13 0.13 0.13 0.16 0.15 0.04 0.07 0.09 0.22 0.21 0.10 0.06 0.06 0.06 0.07 0.05 0.02 0.01 0.01
0.00 0.00 0.00 0.00 0.07 0.13 0.15 0.22 0.26 0.33 0.31 0.14 0.05 0.03 0.03 0.08 0.27 0.13 0.18 0.15 0.18 0.19 0.15 0.15 0.13 0.08 0.13 0.06 0.13 0.19 0.22 0.23 0.20 0.20 0.08 0.09 0.11 0.12 0.13 0.08 0.06 0.07 0.03
0.00 0.00 0.00 0.00 0.04 0.10 0.12 0.13 0.12 0.10 0.05 0.05 0.10 0.16 0.15 0.15 0.17 0.15 0.12 0.09 0.10 0.11 0.17 0.17 0.13 0.16 0.20 0.13 0.20 0.20 0.17 0.16 0.26 0.23 0.12 0.07 0.10 0.09 0.07 0.06 0.10 0.05 0.05
0.00 0.00 0.00 0.00 0.01 0.05 0.06 0.05 0.05 0.02 0.02 0.05 0.24 0.39 0.25 0.19 0.19 0.17 0.16 0.07 0.09 0.16 0.20 0.14 0.16 0.16 0.27 0.31 0.22 0.24 0.12 0.09 0.17 0.16 0.06 0.05 0.07 0.11 0.06 0.04 0.07 0.12 0.08
0.00 0.00 0.00 0.01 0.01 0.00 0.00 0.02 0.06 0.13 0.17 0.10 0.09 0.13 0.15 0.18 0.23 0.16 0.19 0.14 0.14 0.14 0.15 0.13 0.15 0.09 0.28 0.31 0.18 0.19 0.10 0.13 0.13 0.12 0.09 0.04 0.05 0.07 0.09 0.06 0.08 0.12 0.09
0.00 0.01 0.02 0.02 0.01 0.01 0.05 0.17 0.24 0.24 0.11 0.03 0.07 0.29 0.28 0.19 0.26 0.15 0.15 0.12 0.11 0.11 0.15 0.20 0.20 0.26 0.23 0.27 0.23 0.23 0.19 0.16 0.17 0.08 0.09 0.09 0.09 0.07 0.08 0.09 0.09 0.09 0.05
0.00 0.01 0.02 0.01 0.01 0.03 0.19 0.23 0.16 0.14 0.22 0.28 0.35 0.30 0.20 0.25 0.22 0.16 0.14 0.08 0.08 0.07 0.12 0.15 0.21 0.17 0.19 0.21 0.26 0.26 0.20 0.14 0.08 0.07 0.07 0.07 0.07 0.06 0.11 0.18 0.27 0.17 0.12
0.00 0.00 0.00 0.01 0.01 0.06 0.17 0.15 0.16 0.17 0.20 0.16 0.14 0.19 0.26 0.29 0.23 0.18 0.15 0.07 0.04 0.05 0.11 0.23 0.22 0.24 0.24 0.24 0.19 0.18 0.16 0.13 0.05 0.05 0.04 0.05 0.07 0.16 0.20 0.35 0.37 0.28 0.28
0.01 0.00 0.01 0.01 0.02 0.04 0.14 0.21 0.08 0.17 0.23 0.30 0.37 0.44 0.45 0.38 0.23 0.14 0.16 0.18 0.16 0.19 0.18 0.19 0.29 0.28 0.24 0.20 0.20 0.20 0.18 0.16 0.08 0.07 0.09 0.16 0.29 0.44 0.45 0.41 0.43 0.53 0.53
0.03 0.12 0.15 0.17 0.16 0.19 0.21 0.32 0.45 0.59 0.52 0.59 0.71 0.75 0.66 0.59 0.54 0.59 0.63 0.57 0.58 0.77 0.82 0.75 0.66 0.51 0.49 0.35 0.31 0.27 0.24 0.20 0.21 0.41 0.62 0.73 0.73 0.78 0.67 0.71 0.80 0.91 0.99
0.22 0.37 0.45 0.53 0.60 0.65 0.73 0.83 1.01 0.94 0.89 1.05 1.03 0.98 1.36 1.95 2.37 2.20 2.40 2.39 2.06 1.78 1.61 1.35 0.87 0.58 0.56 0.56 0.62 0.50 0.37 0.33 0.38 0.74 0.91 0.86 0.88 0.79 0.73 0.77 0.74 0.62 0.62
0.23 0.18 0.17 0.29 0.49 0.57 0.74 0.80 0.83 0.95 0.96 1.01 1.18 1.23 1.18 0.94 0.88 0.90 0.89 0.80 0.82 0.83 0.62 0.35 0.29 0.32 0.38 0.46 0.52 0.47 0.47 0.49 0.60 0.83 0.95 0.83 0.76 0.69 0.75 0.69 0.68 0.67 0.66
0.67 0.83 0.85 0.63 0.46 0.31 0.42 0.61 0.85 0.91 0.90 0.77 0.58 0.58 0.43 0.33 0.28 0.25 0.29 0.21 0.21 0.16 0.15 0.15 0.16 0.28 0.29 0.24 0.22 0.22 0.26 0.41 0.55 0.64 0.59 0.58 0.63 0.59 0.51 0.42 0.49 0.52 0.49
1.05 0.75 0.82 1.09 1.05 0.82 0.66 0.63 0.42 0.30 0.27 0.25 0.21 0.29 0.34 0.34 0.37 0.38 0.32 0.19 0.16 0.15 0.18 0.25 0.28 0.33 0.30 0.23 0.22 0.24 0.22 0.30 0.36 0.39 0.48 0.59 0.65 0.82 1.03 1.35 1.85 2.08 1.62
1.32 1.88 1.63 1.44 1.40 1.35 1.27 1.18 1.06 0.90 0.82 0.76 0.68 0.60 0.57 0.64 0.60 0.59 0.55 0.51 0.48 0.37 0.35 0.34 0.33 0.32 0.25 0.25 0.26 0.31 0.38 0.55 0.62 0.79 1.02 1.35 1.85 2.34 2.77 3.00 2.50 1.81 1.17
0.78 0.81 0.89 1.04 1.41 1.59 1.56 1.64 1.62 1.58 1.60 1.61 1.59 1.64 1.76 1.63 1.53 1.51 1.50 1.49 1.22 1.02 1.04 1.09 1.15 1.25 1.27 1.35 1.40 1.46 1.53 1.50 1.62 1.80 2.29 2.27 2.19 2.31 2.11 1.54 1.08 0.78 0.57
0.32 0.33 0.27 0.29 0.28 0.29 0.31 0.38 0.45 0.44 0.52 0.67 0.70 0.74 0.82 0.94 1.04 1.22 1.25 1.20 1.25 1.41 1.52 1.46 1.35 1.37 1.49 1.51 1.57 1.45 1.09 1.14 1.07 1.14 1.18 1.06 0.87 0.71 0.55 0.41 0.28 0.23 0.16
0.12 0.14 0.14 0.12 0.17 0.21 0.18 0.12 0.11 0.18 0.23 0.24 0.26 0.15 0.10 0.16 0.14 0.16 0.18 0.16 0.17 0.18 0.30 0.29 0.26 0.20 0.17 0.13 0.14 0.14 0.09 0.07 0.10 0.13 0.15 0.20 0.25 0.17 0.12 0.05 0.01 0.02 0.01
0.06 0.11 0.15 0.19 0.26 0.31 0.26 0.25 0.25 0.24 0.29 0.29 0.27 0.20 0.15 0.12 0.18 0.29 0.34 0.29 0.28 0.30 0.23 0.26 0.18 0.15 0.09 0.09 0.10 0.08 0.06 0.05 0.06 0.03 0.01 0.00 0.00 0.00 0.00 0.00 0.00 0.00 0.00
0.06 0.05 0.09 0.12 0.17 0.24 0.31 0.27 0.22 0.16 0.14 0.16 0.21 0.16 0.08 0.06 0.03 0.02 0.03 0.07 0.17 0.35 0.25 0.22 0.12 0.07 0.06 0.07 0.05 0.02 0.01 0.01 0.00 0.00 0.00 0.00 0.00 0.00 0.00 0.00 0.00 0.00 0.00
0.07 0.05 0.03 0.04 0.04 0.06 0.20 0.30 0.29 0.45 0.23 0.11 0.11 0.12 0.09 0.07 0.04 0.03 0.02 0.01 0.01 0.03 0.07 0.06 0.02 0.01 0.00 0.00 0.00 0.00 0.00 0.00 0.00 0.00 0.00 0.00 0.00 0.00 0.00 0.00 0.00 0.00 0.00

GFSGL_prec_precacc_045.txt.gz
Total_Precipitation_Accumulation
0.00 0.00 0.00 0.00 0.00 0.00 0.00 0.00 0.00 0.00 0.00 0.00 0.00 0.00 0.00 0.00 0.00 0.00 0.00 0.00 0.00 0.00 0.00 0.00 0.00 0.02 0.01 0.01 0.01 0.00 0.00 0.01 0.00 0.00 0.00 0.00 0.00 0.00 0.00 0.00 0.00 0.00 0.00
0.00 0.00 0.00 0.00 0.00 0.00 0.01 0.01 0.00 0.00 0.00 0.00 0.00 0.00 0.00 0.00 0.00 0.00 0.00 0.00 0.00 0.00 0.00 0.00 0.00 0.00 0.02 0.01 0.01 0.00 0.01 0.01 0.01 0.00 0.00 0.00 0.00 0.00 0.00 0.00 0.00 0.00 0.00
0.00 0.00 0.00 0.00 0.00 0.00 0.01 0.02 0.01 0.00 0.00 0.00 0.00 0.00 0.00 0.00 0.00 0.00 0.00 0.00 0.00 0.00 0.00 0.00 0.00 0.01 0.03 0.01 0.02 0.00 0.00 0.01 0.03 0.03 0.00 0.00 0.00 0.00 0.00 0.00 0.00 0.00 0.00
0.00 0.00 0.00 0.00 0.00 0.03 0.09 0.06 0.01 0.01 0.01 0.02 0.02 0.01 0.00 0.00 0.00 0.01 0.01 0.01 0.01 0.02 0.05 0.07 0.04 0.03 0.02 0.03 0.02 0.03 0.02 0.04 0.03 0.04 0.03 0.01 0.00 0.00 0.00 0.00 0.00 0.00 0.00
0.00 0.00 0.00 0.00 0.04 0.17 0.27 0.34 0.23 0.16 0.10 0.04 0.02 0.00 0.00 0.00 0.01 0.00 0.02 0.03 0.09 0.10 0.10 0.12 0.09 0.16 0.07 0.02 0.04 0.02 0.03 0.04 0.04 0.09 0.08 0.02 0.01 0.02 0.03 0.01 0.00 0.00 0.00
0.00 0.00 0.00 0.00 0.04 0.14 0.37 0.73 0.41 0.23 0.16 0.15 0.09 0.04 0.02 0.02 0.03 0.01 0.03 0.14 0.16 0.20 0.17 0.14 0.13 0.13 0.13 0.16 0.15 0.04 0.07 0.09 0.22 0.21 0.10 0.06 0.06 0.06 0.07 0.05 0.02 0.01 0.01
0.00 0.00 0.00 0.00 0.07 0.13 0.15 0.22 0.26 0.33 0.31 0.14 0.05 0.03 0.03 0.08 0.27 0.13 0.18 0.15 0.18 0.19 0.15 0.15 0.13 0.08 0.13 0.06 0.13 0.19 0.22 0.23 0.20 0.20 0.08 0.09 0.11 0.12 0.13 0.08 0.06 0.07 0.03
0.00 0.00 0.00 0.00 0.04 0.10 0.12 0.13 0.12 0.10 0.05 0.05 0.10 0.16 0.15 0.15 0.17 0.15 0.12 0.09 0.10 0.11 0.17 0.17 0.13 0.16 0.20 0.13 0.20 0.20 0.17 0.16 0.26 0.23 0.12 0.07 0.10 0.09 0.07 0.06 0.10 0.05 0.05
0.00 0.00 0.00 0.00 0.01 0.05 0.06 0.05 0.05 0.02 0.02 0.05 0.24 0.39 0.25 0.19 0.19 0.17 0.16 0.07 0.09 0.16 0.20 0.14 0.16 0.16 0.27 0.31 0.22 0.24 0.12 0.09 0.17 0.16 0.06 0.05 0.07 0.11 0.06 0.05 0.07 0.13 0.08
0.00 0.00 0.00 0.01 0.01 0.00 0.00 0.02 0.06 0.13 0.17 0.10 0.09 0.13 0.15 0.18 0.23 0.16 0.19 0.14 0.14 0.14 0.15 0.13 0.15 0.09 0.28 0.31 0.18 0.19 0.10 0.13 0.13 0.12 0.09 0.04 0.05 0.07 0.09 0.06 0.10 0.13 0.09
0.00 0.01 0.02 0.02 0.01 0.01 0.05 0.17 0.24 0.24 0.11 0.03 0.07 0.29 0.28 0.19 0.26 0.15 0.15 0.12 0.11 0.11 0.15 0.20 0.20 0.26 0.23 0.27 0.23 0.24 0.19 0.16 0.18 0.08 0.09 0.09 0.09 0.07 0.11 0.12 0.14 0.18 0.14
0.00 0.01 0.02 0.01 0.01 0.03 0.19 0.23 0.16 0.14 0.22 0.28 0.35 0.30 0.20 0.25 0.22 0.16 0.14 0.08 0.08 0.07 0.12 0.15 0.21 0.17 0.19 0.21 0.26 0.26 0.20 0.15 0.09 0.09 0.08 0.07 0.07 0.06 0.14 0.22 0.39 0.35 0.33
0.00 0.00 0.00 0.01 0.01 0.06 0.17 0.15 0.16 0.17 0.20 0.16 0.14 0.19 0.26 0.29 0.23 0.18 0.15 0.07 0.04 0.05 0.11 0.23 0.22 0.24 0.24 0.25 0.22 0.20 0.18 0.16 0.09 0.07 0.05 0.06 0.08 0.16 0.21 0.36 0.38 0.32 0.40
0.01 0.00 0.01 0.01 0.02 0.04 0.14 0.21 0.08 0.17 0.23 0.30 0.37 0.44 0.45 0.38 0.23 0.14 0.17 0.19 0.16 0.20 0.20 0.20 0.29 0.28 0.26 0.21 0.21 0.21 0.18 0.17 0.10 0.10 0.11 0.17 0.31 0.46 0.48 0.46 0.45 0.56 0.63
0.03 0.12 0.15 0.17 0.16 0.19 0.21 0.32 0.45 0.59 0.52 0.59 0.71 0.75 0.66 0.59 0.54 0.60 0.64 0.59 0.59 0.78 0.84 0.76 0.68 0.53 0.51 0.35 0.31 0.27 0.24 0.20 0.22 0.42 0.63 0.74 0.76 0.84 0.73 0.76 0.87 1.02 1.13
0.22 0.37 0.45 0.53 0.60 0.65 0.73 0.83 1.02 0.94 0.89 1.05 1.04 0.99 1.36 1.96 2.37 2.20 2.40 2.40 2.07 1.79 1.62 1.36 0.88 0.58 0.56 0.56 0.62 0.51 0.38 0.34 0.39 0.75 0.92 0.87 0.90 0.81 0.77 0.84 0.86 0.77 0.76
0.23 0.18 0.17 0.29 0.49 0.57 0.74 0.80 0.83 0.95 0.96 1.01 1.18 1.23 1.18 0.94 0.88 0.90 0.90 0.80 0.83 0.85 0.62 0.35 0.29 0.32 0.38 0.46 0.52 0.47 0.47 0.50 0.61 0.84 0.96 0.85 0.79 0.73 0.83 0.78 0.78 0.76 0.74
0.67 0.83 0.85 0.63 0.46 0.31 0.42 0.61 0.85 0.91 0.90 0.77 0.58 0.58 0.43 0.33 0.28 0.26 0.30 0.21 0.21 0.16 0.15 0.15 0.16 0.28 0.29 0.24 0.22 0.22 0.26 0.41 0.55 0.64 0.59 0.58 0.63 0.61 0.54 0.51 0.70 0.80 0.76
1.05 0.75 0.82 1.09 1.05 0.82 0.66 0.63 0.42 0.30 0.28 0.25 0.21 0.29 0.34 0.34 0.37 0.38 0.32 0.19 0.16 0.15 0.18 0.25 0.28 0.33 0.30 0.23 0.22 0.24 0.22 0.30 0.36 0.39 0.48 0.59 0.65 0.83 1.06 1.42 2.00 2.62 2.84
1.32 1.88 1.63 1.44 1.40 1.35 1.27 1.18 1.06 0.91 0.83 0.77 0.69 0.61 0.58 0.64 0.60 0.60 0.56 0.51 0.48 0.37 0.35 0.34 0.33 0.32 0.25 0.25 0.26 0.31 0.38 0.55 0.62 0.79 1.02 1.35 1.86 2.35 2.78 3.01 2.56 1.95 1.51
0.78 0.81 0.89 1.04 1.41 1.59 1.56 1.64 1.63 1.60 1.62 1.63 1.61 1.67 1.79 1.65 1.54 1.52 1.50 1.49 1.22 1.02 1.04 1.09 1.15 1.25 1.27 1.35 1.40 1.46 1.53 1.50 1.62 1.80 2.29 2.27 2.20 2.31 2.12 1.54 1.09 0.83 0.63
0.32 0.33 0.27 0.29 0.28 0.29 0.31 0.39 0.45 0.45 0.53 0.69 0.71 0.75 0.83 0.94 1.05 1.22 1.25 1.20 1.25 1.41 1.53 1.46 1.35 1.37 1.49 1.51 1.57 1.45 1.09 1.14 1.07 1.14 1.18 1.06 0.87 0.71 0.55 0.41 0.28 0.23 0.16
0.12 0.14 0.14 0.12 0.17 0.21 0.18 0.12 0.11 0.18 0.23 0.24 0.27 0.15 0.11 0.16 0.14 0.16 0.18 0.16 0.17 0.18 0.30 0.29 0.26 0.20 0.17 0.13 0.14 0.14 0.09 0.07 0.10 0.13 0.15 0.20 0.25 0.17 0.12 0.05 0.01 0.02 0.02
0.06 0.11 0.15 0.19 0.26 0.31 0.26 0.25 0.25 0.24 0.29 0.29 0.27 0.20 0.15 0.12 0.18 0.29 0.34 0.29 0.28 0.30 0.23 0.26 0.18 0.15 0.09 0.09 0.10 0.08 0.06 0.05 0.06 0.03 0.01 0.00 0.00 0.00 0.00 0.00 0.00 0.00 0.00
0.06 0.05 0.09 0.12 0.17 0.24 0.31 0.27 0.22 0.16 0.14 0.16 0.21 0.16 0.08 0.06 0.03 0.02 0.03 0.07 0.17 0.35 0.25 0.22 0.12 0.07 0.06 0.07 0.05 0.02 0.01 0.01 0.00 0.00 0.00 0.00 0.00 0.00 0.00 0.00 0.00 0.00 0.00
0.07 0.06 0.05 0.05 0.07 0.07 0.20 0.30 0.29 0.45 0.23 0.11 0.11 0.12 0.09 0.07 0.04 0.03 0.02 0.01 0.01 0.03 0.07 0.06 0.02 0.01 0.00 0.00 0.00 0.00 0.00 0.00 0.00 0.00 0.00 0.00 0.00 0.00 0.01 0.00 0.00 0.00 0.00

GFSGL_prec_precacc_048.txt.gz
Total_Precipitation_Accumulation
0.00 0.00 0.00 0.00 0.00 0.00 0.00 0.00 0.00 0.00 0.00 0.00 0.00 0.00 0.00 0.00 0.00 0.00 0.00 0.00 0.00 0.00 0.00 0.00 0.00 0.02 0.01 0.01 0.01 0.00 0.00 0.01 0.00 0.00 0.00 0.00 0.00 0.00 0.00 0.00 0.00 0.00 0.00
0.00 0.00 0.00 0.00 0.00 0.00 0.01 0.01 0.00 0.00 0.00 0.00 0.00 0.00 0.00 0.00 0.00 0.00 0.00 0.00 0.00 0.00 0.00 0.00 0.00 0.00 0.02 0.01 0.01 0.00 0.01 0.01 0.01 0.00 0.00 0.00 0.00 0.00 0.00 0.00 0.00 0.00 0.00
0.00 0.00 0.00 0.00 0.00 0.00 0.01 0.02 0.01 0.00 0.00 0.00 0.00 0.00 0.00 0.00 0.00 0.00 0.00 0.00 0.00 0.00 0.00 0.00 0.00 0.01 0.03 0.01 0.02 0.00 0.00 0.01 0.03 0.03 0.00 0.00 0.00 0.00 0.00 0.00 0.00 0.00 0.00
0.00 0.00 0.00 0.00 0.00 0.03 0.09 0.06 0.01 0.01 0.01 0.02 0.02 0.01 0.00 0.00 0.00 0.01 0.01 0.01 0.01 0.02 0.05 0.07 0.04 0.03 0.02 0.03 0.02 0.03 0.02 0.04 0.03 0.04 0.03 0.01 0.00 0.00 0.00 0.00 0.00 0.00 0.00
0.00 0.00 0.00 0.00 0.04 0.17 0.27 0.34 0.23 0.16 0.10 0.04 0.02 0.00 0.00 0.00 0.01 0.00 0.02 0.03 0.09 0.10 0.10 0.12 0.09 0.16 0.07 0.02 0.04 0.02 0.03 0.04 0.04 0.09 0.08 0.02 0.01 0.02 0.03 0.01 0.00 0.00 0.00
0.00 0.00 0.00 0.00 0.04 0.14 0.37 0.73 0.41 0.23 0.16 0.15 0.09 0.04 0.02 0.02 0.03 0.01 0.03 0.14 0.16 0.20 0.17 0.14 0.13 0.13 0.13 0.16 0.15 0.04 0.07 0.09 0.22 0.21 0.10 0.06 0.06 0.06 0.07 0.05 0.02 0.01 0.01
0.00 0.00 0.00 0.00 0.07 0.13 0.15 0.22 0.26 0.33 0.31 0.14 0.05 0.03 0.03 0.08 0.27 0.13 0.18 0.15 0.18 0.19 0.15 0.15 0.13 0.08 0.13 0.06 0.13 0.19 0.22 0.23 0.20 0.20 0.08 0.09 0.11 0.12 0.13 0.08 0.06 0.07 0.03
0.00 0.00 0.00 0.00 0.04 0.10 0.12 0.13 0.12 0.10 0.05 0.05 0.10 0.16 0.15 0.15 0.17 0.15 0.12 0.09 0.10 0.11 0.17 0.17 0.13 0.16 0.20 0.13 0.20 0.20 0.17 0.16 0.26 0.23 0.12 0.07 0.10 0.09 0.07 0.06 0.10 0.05 0.05
0.00 0.00 0.00 0.00 0.01 0.05 0.06 0.05 0.05 0.02 0.02 0.05 0.24 0.39 0.25 0.19 0.19 0.17 0.16 0.07 0.09 0.16 0.20 0.14 0.16 0.16 0.27 0.31 0.22 0.24 0.12 0.09 0.17 0.16 0.06 0.05 0.07 0.11 0.06 0.05 0.07 0.13 0.08
0.00 0.00 0.00 0.01 0.01 0.00 0.00 0.02 0.06 0.13 0.17 0.10 0.09 0.13 0.15 0.18 0.23 0.16 0.19 0.14 0.14 0.14 0.15 0.13 0.15 0.09 0.28 0.31 0.18 0.19 0.10 0.13 0.13 0.12 0.09 0.04 0.05 0.07 0.10 0.06 0.11 0.18 0.11
0.00 0.01 0.02 0.02 0.01 0.01 0.05 0.17 0.24 0.24 0.11 0.03 0.07 0.29 0.28 0.19 0.26 0.15 0.15 0.12 0.11 0.11 0.15 0.20 0.20 0.26 0.23 0.27 0.23 0.24 0.19 0.17 0.19 0.08 0.09 0.09 0.09 0.07 0.12 0.14 0.15 0.23 0.16
0.00 0.01 0.02 0.01 0.01 0.03 0.19 0.23 0.16 0.14 0.22 0.28 0.35 0.30 0.20 0.25 0.22 0.16 0.14 0.08 0.08 0.07 0.12 0.15 0.21 0.17 0.19 0.21 0.27 0.27 0.21 0.16 0.10 0.10 0.09 0.08 0.07 0.06 0.15 0.23 0.40 0.36 0.34
0.00 0.00 0.00 0.01 0.01 0.06 0.17 0.15 0.16 0.17 0.20 0.16 0.14 0.19 0.26 0.29 0.23 0.18 0.15 0.07 0.04 0.05 0.11 0.23 0.22 0.24 0.25 0.26 0.23 0.21 0.20 0.19 0.14 0.12 0.07 0.06 0.08 0.17 0.22 0.37 0.40 0.33 0.41
0.01 0.00 0.01 0.01 0.02 0.04 0.14 0.21 0.08 0.17 0.23 0.30 0.37 0.44 0.45 0.38 0.23 0.14 0.17 0.19 0.16 0.21 0.20 0.20 0.29 0.29 0.27 0.22 0.23 0.23 0.19 0.19 0.12 0.11 0.12 0.17 0.31 0.46 0.49 0.48 0.49 0.59 0.66
0.03 0.12 0.15 0.17 0.16 0.19 0.21 0.32 0.45 0.59 0.52 0.59 0.71 0.75 0.66 0.59 0.54 0.60 0.64 0.59 0.60 0.79 0.85 0.78 0.70 0.57 0.54 0.38 0.32 0.28 0.24 0.20 0.22 0.42 0.63 0.75 0.76 0.85 0.74 0.78 0.90 1.06 1.19
0.22 0.37 0.45 0.53 0.60 0.65 0.73 0.83 1.02 0.94 0.89 1.06 1.04 0.99 1.36 1.96 2.37 2.21 2.40 2.40 2.07 1.79 1.62 1.37 0.89 0.60 0.57 0.57 0.62 0.51 0.38 0.34 0.39 0.75 0.92 0.88 0.91 0.81 0.77 0.84 0.87 0.78 0.79
0.23 0.18 0.17 0.29 0.49 0.57 0.74 0.80 0.83 0.95 0.96 1.01 1.19 1.23 1.19 0.94 0.89 0.90 0.90 0.81 0.83 0.85 0.62 0.36 0.31 0.33 0.38 0.46 0.52 0.47 0.47 0.50 0.61 0.84 0.96 0.85 0.79 0.73 0.83 0.78 0.79 0.78 0.76
0.67 0.83 0.85 0.63 0.46 0.31 0.42 0.61 0.85 0.91 0.90 0.77 0.59 0.58 0.44 0.33 0.28 0.26 0.30 0.22 0.21 0.17 0.16 0.15 0.16 0.28 0.29 0.24 0.22 0.22 0.26 0.41 0.55 0.64 0.59 0.58 0.63 0.61 0.54 0.51 0.70 0.81 0.76
1.05 0.75 0.82 1.09 1.05 0.82 0.66 0.63 0.42 0.30 0.28 0.25 0.21 0.29 0.34 0.34 0.38 0.38 0.33 0.19 0.17 0.16 0.18 0.25 0.28 0.33 0.30 0.23 0.22 0.24 0.23 0.30 0.37 0.39 0.48 0.59 0.66 0.83 1.06 1.42 2.00 2.62 2.84
1.32 1.88 1.63 1.44 1.40 1.35 1.27 1.18 1.06 0.91 0.83 0.77 0.69 0.61 0.58 0.64 0.60 0.60 0.56 0.51 0.48 0.37 0.35 0.34 0.33 0.32 0.25 0.25 0.26 0.31 0.38 0.56 0.62 0.80 1.02 1.35 1.86 2.35 2.78 3.01 2.56 1.95 1.51
0.78 0.81 0.89 1.04 1.41 1.59 1.56 1.64 1.63 1.60 1.62 1.64 1.61 1.68 1.80 1.66 1.54 1.52 1.50 1.49 1.22 1.03 1.04 1.09 1.15 1.25 1.28 1.35 1.41 1.46 1.53 1.50 1.62 1.80 2.29 2.27 2.20 2.31 2.12 1.54 1.09 0.83 0.63
0.32 0.33 0.27 0.29 0.28 0.29 0.31 0.39 0.45 0.45 0.53 0.70 0.72 0.77 0.85 0.95 1.05 1.22 1.25 1.20 1.25 1.42 1.53 1.46 1.35 1.37 1.50 1.51 1.57 1.45 1.09 1.14 1.07 1.14 1.18 1.06 0.87 0.71 0.55 0.41 0.28 0.23 0.16
0.12 0.14 0.14 0.12 0.17 0.21 0.18 0.12 0.11 0.18 0.23 0.24 0.27 0.15 0.11 0.16 0.14 0.16 0.18 0.16 0.18 0.18 0.30 0.29 0.26 0.20 0.17 0.13 0.14 0.14 0.09 0.07 0.10 0.13 0.15 0.20 0.25 0.17 0.12 0.05 0.01 0.03 0.02
0.06 0.11 0.15 0.19 0.26 0.31 0.26 0.25 0.25 0.24 0.29 0.29 0.27 0.20 0.15 0.12 0.18 0.29 0.34 0.29 0.28 0.30 0.23 0.26 0.18 0.15 0.09 0.09 0.10 0.08 0.06 0.05 0.06 0.03 0.01 0.00 0.00 0.00 0.00 0.00 0.00 0.00 0.00
0.06 0.05 0.09 0.12 0.17 0.24 0.31 0.27 0.22 0.16 0.14 0.16 0.21 0.16 0.08 0.06 0.03 0.02 0.03 0.07 0.17 0.35 0.25 0.22 0.12 0.07 0.06 0.07 0.05 0.02 0.01 0.01 0.00 0.00 0.00 0.00 0.00 0.00 0.00 0.00 0.00 0.00 0.00
0.07 0.06 0.05 0.05 0.07 0.08 0.21 0.30 0.29 0.45 0.23 0.11 0.11 0.12 0.09 0.07 0.04 0.03 0.02 0.01 0.01 0.03 0.07 0.06 0.02 0.01 0.00 0.00 0.00 0.00 0.00 0.00 0.00 0.00 0.00 0.00 0.00 0.00 0.01 0.01 0.01 0.01 0.00

GFSGL_prec_precacc_051.txt.gz
Total_Precipitation_Accumulation
0.00 0.00 0.00 0.00 0.00 0.00 0.00 0.00 0.00 0.00 0.00 0.00 0.00 0.00 0.00 0.00 0.00 0.00 0.00 0.00 0.00 0.00 0.00 0.00 0.00 0.02 0.01 0.01 0.01 0.00 0.00 0.01 0.00 0.00 0.00 0.00 0.00 0.00 0.00 0.00 0.00 0.00 0.00
0.00 0.00 0.00 0.00 0.00 0.00 0.01 0.01 0.00 0.00 0.00 0.00 0.00 0.00 0.00 0.00 0.00 0.00 0.00 0.00 0.00 0.00 0.00 0.00 0.00 0.00 0.02 0.01 0.01 0.00 0.01 0.01 0.01 0.00 0.00 0.00 0.00 0.00 0.00 0.00 0.00 0.00 0.00
0.00 0.00 0.00 0.00 0.00 0.00 0.01 0.02 0.01 0.00 0.00 0.00 0.00 0.00 0.00 0.00 0.00 0.00 0.00 0.00 0.00 0.00 0.00 0.00 0.00 0.01 0.03 0.01 0.02 0.00 0.00 0.01 0.03 0.03 0.00 0.00 0.00 0.00 0.00 0.00 0.00 0.00 0.00
0.00 0.00 0.00 0.00 0.00 0.03 0.09 0.06 0.01 0.01 0.01 0.02 0.02 0.01 0.00 0.00 0.00 0.01 0.01 0.01 0.01 0.02 0.05 0.07 0.04 0.03 0.02 0.03 0.02 0.03 0.02 0.04 0.03 0.04 0.03 0.01 0.00 0.00 0.00 0.00 0.00 0.00 0.00
0.00 0.00 0.00 0.00 0.04 0.17 0.27 0.34 0.23 0.16 0.10 0.04 0.02 0.00 0.00 0.00 0.01 0.00 0.02 0.03 0.09 0.10 0.10 0.12 0.09 0.16 0.07 0.02 0.04 0.02 0.03 0.04 0.04 0.09 0.08 0.02 0.01 0.02 0.03 0.01 0.00 0.00 0.00
0.00 0.00 0.00 0.00 0.04 0.14 0.37 0.73 0.41 0.23 0.16 0.15 0.09 0.04 0.02 0.02 0.03 0.01 0.03 0.14 0.16 0.20 0.17 0.14 0.13 0.13 0.13 0.16 0.15 0.04 0.07 0.09 0.22 0.21 0.10 0.06 0.06 0.06 0.07 0.05 0.02 0.01 0.01
0.00 0.00 0.00 0.00 0.07 0.13 0.15 0.22 0.26 0.33 0.31 0.14 0.05 0.03 0.03 0.08 0.27 0.13 0.18 0.15 0.18 0.19 0.15 0.15 0.13 0.08 0.13 0.06 0.13 0.19 0.22 0.23 0.20 0.20 0.08 0.09 0.11 0.12 0.13 0.08 0.06 0.07 0.03
0.00 0.00 0.00 0.00 0.04 0.10 0.12 0.13 0.12 0.10 0.05 0.05 0.10 0.16 0.15 0.15 0.17 0.15 0.12 0.09 0.10 0.11 0.17 0.17 0.13 0.16 0.20 0.13 0.20 0.20 0.17 0.16 0.26 0.23 0.12 0.07 0.10 0.09 0.07 0.06 0.10 0.05 0.05
0.00 0.00 0.00 0.00 0.01 0.05 0.06 0.05 0.05 0.02 0.02 0.05 0.24 0.39 0.25 0.19 0.19 0.17 0.16 0.07 0.09 0.16 0.20 0.14 0.16 0.16 0.27 0.31 0.22 0.24 0.12 0.09 0.17 0.16 0.06 0.05 0.07 0.11 0.06 0.05 0.08 0.13 0.09
0.00 0.00 0.00 0.01 0.01 0.00 0.00 0.02 0.06 0.13 0.17 0.10 0.09 0.13 0.15 0.18 0.23 0.16 0.19 0.14 0.14 0.14 0.15 0.13 0.15 0.09 0.28 0.31 0.18 0.19 0.10 0.13 0.13 0.12 0.09 0.04 0.05 0.08 0.11 0.07 0.12 0.19 0.13
0.00 0.01 0.02 0.02 0.01 0.01 0.05 0.17 0.24 0.24 0.11 0.03 0.07 0.29 0.28 0.19 0.26 0.15 0.15 0.12 0.11 0.11 0.15 0.20 0.20 0.26 0.23 0.27 0.23 0.24 0.19 0.17 0.19 0.09 0.09 0.10 0.10 0.08 0.12 0.14 0.16 0.25 0.19
0.00 0.01 0.02 0.01 0.01 0.03 0.19 0.23 0.16 0.14 0.22 0.28 0.35 0.30 0.20 0.25 0.22 0.16 0.14 0.08 0.08 0.07 0.12 0.15 0.21 0.17 0.19 0.21 0.27 0.27 0.21 0.16 0.10 0.11 0.10 0.09 0.10 0.08 0.15 0.23 0.41 0.37 0.35
0.00 0.00 0.00 0.01 0.01 0.06 0.17 0.15 0.16 0.17 0.20 0.16 0.14 0.19 0.26 0.29 0.23 0.18 0.15 0.07 0.04 0.05 0.11 0.23 0.22 0.24 0.25 0.26 0.23 0.21 0.20 0.20 0.16 0.19 0.15 0.11 0.10 0.17 0.23 0.38 0.41 0.35 0.42
0.01 0.00 0.01 0.01 0.02 0.04 0.14 0.21 0.08 0.17 0.23 0.30 0.37 0.44 0.45 0.38 0.23 0.14 0.17 0.19 0.16 0.21 0.20 0.20 0.29 0.29 0.27 0.23 0.24 0.24 0.20 0.21 0.19 0.16 0.15 0.18 0.31 0.46 0.49 0.48 0.49 0.59 0.67
0.03 0.12 0.15 0.17 0.16 0.19 0.21 0.32 0.45 0.59 0.52 0.59 0.71 0.75 0.66 0.59 0.54 0.60 0.64 0.59 0.60 0.79 0.85 0.78 0.71 0.58 0.56 0.39 0.33 0.29 0.25 0.22 0.23 0.43 0.64 0.75 0.76 0.85 0.74 0.78 0.90 1.06 1.19
0.22 0.37 0.45 0.53 0.61 0.66 0.74 0.83 1.02 0.94 0.89 1.06 1.04 0.99 1.36 1.96 2.38 2.21 2.41 2.41 2.08 1.80 1.62 1.38 0.91 0.61 0.58 0.57 0.63 0.51 0.38 0.34 0.39 0.75 0.92 0.88 0.91 0.81 0.77 0.84 0.87 0.79 0.79
0.25 0.19 0.18 0.31 0.53 0.59 0.75 0.80 0.83 0.95 0.96 1.01 1.19 1.24 1.19 0.94 0.89 0.91 0.91 0.81 0.84 0.86 0.62 0.36 0.31 0.33 0.38 0.46 0.52 0.47 0.47 0.50 0.61 0.84 0.96 0.85 0.79 0.73 0.84 0.78 0.79 0.78 0.77
0.67 0.83 0.85 0.63 0.47 0.31 0.42 0.61 0.85 0.91 0.90 0.77 0.59 0.59 0.44 0.33 0.29 0.26 0.30 0.22 0.22 0.17 0.16 0.15 0.16 0.28 0.29 0.24 0.22 0.22 0.26 0.41 0.55 0.64 0.59 0.58 0.63 0.61 0.54 0.51 0.70 0.81 0.76
1.05 0.75 0.82 1.09 1.05 0.83 0.66 0.63 0.42 0.30 0.28 0.25 0.21 0.29 0.35 0.36 0.39 0.40 0.33 0.19 0.17 0.16 0.19 0.25 0.28 0.33 0.30 0.23 0.22 0.24 0.23 0.30 0.37 0.39 0.48 0.59 0.66 0.84 1.06 1.42 2.00 2.62 2.84
1.32 1.88 1.63 1.44 1.40 1.35 1.28 1.18 1.06 0.91 0.83 0.77 0.69 0.61 0.59 0.65 0.61 0.60 0.56 0.51 0.48 0.37 0.35 0.34 0.33 0.32 0.25 0.25 0.26 0.31 0.38 0.56 0.62 0.80 1.02 1.36 1.87 2.35 2.79 3.01 2.56 1.95 1.51
0.78 0.81 0.89 1.04 1.41 1.59 1.56 1.64 1.63 1.60 1.62 1.64 1.61 1.68 1.80 1.66 1.54 1.52 1.50 1.49 1.22 1.03 1.04 1.09 1.15 1.25 1.28 1.35 1.41 1.46 1.54 1.50 1.62 1.80 2.29 2.28 2.20 2.32 2.12 1.55 1.09 0.83 0.64
0.32 0.33 0.27 0.29 0.28 0.29 0.31 0.39 0.46 0.45 0.53 0.70 0.72 0.77 0.85 0.95 1.05 1.22 1.25 1.20 1.25 1.42 1.53 1.46 1.35 1.37 1.50 1.51 1.57 1.45 1.09 1.14 1.07 1.14 1.18 1.07 0.88 0.71 0.55 0.41 0.29 0.23 0.16
0.12 0.14 0.14 0.12 0.17 0.21 0.18 0.12 0.11 0.18 0.23 0.24 0.27 0.15 0.11 0.16 0.14 0.16 0.18 0.16 0.18 0.18 0.31 0.29 0.26 0.20 0.17 0.13 0.14 0.14 0.09 0.07 0.10 0.13 0.15 0.20 0.25 0.17 0.12 0.05 0.01 0.03 0.02
0.06 0.11 0.15 0.19 0.26 0.31 0.26 0.25 0.25 0.24 0.29 0.29 0.27 0.20 0.15 0.12 0.18 0.29 0.34 0.29 0.28 0.30 0.23 0.26 0.18 0.15 0.09 0.09 0.10 0.08 0.06 0.05 0.06 0.03 0.01 0.00 0.00 0.01 0.00 0.00 0.00 0.00 0.00
0.06 0.05 0.09 0.12 0.17 0.24 0.31 0.27 0.22 0.16 0.14 0.16 0.21 0.16 0.08 0.06 0.03 0.02 0.03 0.07 0.17 0.35 0.25 0.22 0.12 0.07 0.06 0.07 0.05 0.02 0.01 0.01 0.00 0.00 0.00 0.00 0.00 0.00 0.00 0.00 0.00 0.00 0.00
0.08 0.06 0.05 0.05 0.07 0.08 0.21 0.30 0.29 0.45 0.23 0.11 0.11 0.12 0.09 0.07 0.04 0.03 0.02 0.01 0.01 0.03 0.07 0.06 0.02 0.01 0.00 0.00 0.00 0.00 0.00 0.00 0.00 0.00 0.00 0.00 0.00 0.00 0.01 0.01 0.02 0.01 0.00

GFSGL_prec_precacc_054.txt.gz
Total_Precipitation_Accumulation
0.00 0.00 0.00 0.00 0.00 0.00 0.00 0.00 0.00 0.00 0.00 0.00 0.00 0.00 0.00 0.00 0.00 0.00 0.00 0.00 0.00 0.00 0.00 0.00 0.00 0.02 0.01 0.01 0.01 0.00 0.00 0.01 0.00 0.00 0.00 0.00 0.00 0.00 0.00 0.00 0.00 0.00 0.00
0.00 0.00 0.00 0.00 0.00 0.00 0.01 0.01 0.00 0.00 0.00 0.00 0.00 0.00 0.00 0.00 0.00 0.00 0.00 0.00 0.00 0.00 0.00 0.00 0.00 0.00 0.02 0.01 0.01 0.00 0.01 0.01 0.01 0.00 0.00 0.00 0.00 0.00 0.00 0.00 0.00 0.00 0.00
0.00 0.00 0.00 0.00 0.00 0.00 0.01 0.02 0.01 0.00 0.00 0.00 0.00 0.00 0.00 0.00 0.00 0.00 0.00 0.00 0.00 0.00 0.00 0.00 0.00 0.01 0.03 0.01 0.02 0.00 0.00 0.01 0.03 0.03 0.00 0.00 0.00 0.00 0.00 0.00 0.00 0.00 0.00
0.00 0.00 0.00 0.00 0.00 0.03 0.09 0.06 0.01 0.01 0.01 0.02 0.02 0.01 0.00 0.00 0.00 0.01 0.01 0.01 0.01 0.02 0.05 0.07 0.04 0.03 0.02 0.03 0.02 0.03 0.02 0.04 0.03 0.04 0.03 0.01 0.00 0.00 0.00 0.00 0.00 0.00 0.00
0.00 0.00 0.00 0.00 0.04 0.17 0.27 0.34 0.23 0.16 0.10 0.04 0.02 0.00 0.00 0.00 0.01 0.00 0.02 0.03 0.09 0.10 0.10 0.12 0.09 0.16 0.07 0.02 0.04 0.02 0.03 0.04 0.04 0.09 0.08 0.02 0.01 0.02 0.03 0.01 0.00 0.00 0.00
0.00 0.00 0.00 0.00 0.04 0.14 0.37 0.73 0.41 0.23 0.16 0.15 0.09 0.04 0.02 0.02 0.03 0.01 0.03 0.14 0.16 0.20 0.17 0.14 0.13 0.13 0.13 0.16 0.15 0.04 0.07 0.09 0.22 0.21 0.10 0.06 0.06 0.06 0.07 0.05 0.02 0.01 0.01
0.00 0.00 0.00 0.00 0.07 0.13 0.15 0.22 0.26 0.33 0.31 0.14 0.05 0.03 0.03 0.08 0.27 0.13 0.18 0.15 0.18 0.19 0.15 0.15 0.13 0.08 0.13 0.06 0.13 0.19 0.22 0.23 0.20 0.20 0.08 0.09 0.11 0.12 0.13 0.08 0.07 0.08 0.04
0.00 0.00 0.00 0.00 0.04 0.10 0.12 0.13 0.12 0.10 0.05 0.05 0.10 0.16 0.15 0.15 0.17 0.15 0.12 0.09 0.10 0.11 0.17 0.17 0.13 0.16 0.20 0.13 0.20 0.20 0.17 0.16 0.26 0.23 0.12 0.07 0.10 0.09 0.07 0.08 0.12 0.06 0.05
0.00 0.00 0.00 0.00 0.01 0.05 0.06 0.05 0.05 0.02 0.02 0.05 0.24 0.39 0.25 0.19 0.19 0.17 0.16 0.07 0.09 0.16 0.20 0.14 0.16 0.16 0.27 0.31 0.22 0.24 0.12 0.09 0.17 0.16 0.06 0.05 0.07 0.11 0.06 0.05 0.08 0.13 0.09
0.00 0.00 0.00 0.01 0.01 0.00 0.00 0.02 0.06 0.13 0.17 0.10 0.09 0.13 0.15 0.18 0.23 0.16 0.19 0.14 0.14 0.14 0.15 0.13 0.15 0.09 0.28 0.31 0.18 0.19 0.10 0.13 0.13 0.12 0.09 0.05 0.06 0.08 0.11 0.07 0.13 0.20 0.13
0.00 0.01 0.02 0.02 0.01 0.01 0.05 0.17 0.24 0.24 0.11 0.03 0.07 0.29 0.28 0.19 0.26 0.15 0.15 0.12 0.11 0.11 0.15 0.20 0.20 0.26 0.23 0.27 0.23 0.24 0.19 0.17 0.19 0.09 0.10 0.10 0.10 0.08 0.13 0.15 0.17 0.26 0.20
0.00 0.01 0.02 0.01 0.01 0.03 0.19 0.23 0.16 0.14 0.22 0.28 0.35 0.30 0.20 0.25 0.22 0.16 0.14 0.08 0.08 0.07 0.12 0.15 0.21 0.17 0.19 0.21 0.27 0.27 0.21 0.16 0.10 0.11 0.10 0.10 0.10 0.10 0.16 0.24 0.43 0.40 0.37
0.00 0.00 0.00 0.01 0.01 0.06 0.17 0.15 0.16 0.17 0.20 0.16 0.14 0.19 0.26 0.29 0.23 0.18 0.15 0.07 0.04 0.05 0.11 0.23 0.22 0.24 0.25 0.26 0.23 0.21 0.20 0.20 0.17 0.20 0.16 0.14 0.14 0.20 0.23 0.39 0.41 0.35 0.42
0.01 0.00 0.01 0.01 0.02 0.04 0.14 0.21 0.08 0.17 0.23 0.30 0.37 0.44 0.45 0.38 0.23 0.14 0.17 0.19 0.16 0.21 0.20 0.20 0.29 0.29 0.27 0.23 0.24 0.24 0.20 0.21 0.21 0.19 0.18 0.20 0.32 0.46 0.49 0.48 0.49 0.59 0.67
0.03 0.12 0.15 0.17 0.16 0.19 0.21 0.32 0.45 0.59 0.52 0.59 0.71 0.75 0.66 0.59 0.54 0.60 0.64 0.59 0.60 0.79 0.85 0.78 0.71 0.58 0.56 0.39 0.33 0.29 0.26 0.22 0.23 0.43 0.64 0.75 0.76 0.85 0.74 0.78 0.90 1.06 1.19
0.22 0.37 0.45 0.53 0.61 0.66 0.74 0.83 1.02 0.95 0.90 1.06 1.05 0.99 1.36 1.96 2.38 2.21 2.41 2.41 2.08 1.80 1.62 1.38 0.91 0.61 0.58 0.57 0.63 0.51 0.38 0.34 0.39 0.75 0.92 0.88 0.91 0.81 0.77 0.84 0.87 0.79 0.79
0.25 0.19 0.18 0.32 0.58 0.66 0.80 0.82 0.84 0.95 0.97 1.01 1.19 1.24 1.19 0.94 0.89 0.91 0.91 0.81 0.84 0.86 0.63 0.37 0.31 0.33 0.38 0.46 0.52 0.47 0.47 0.50 0.61 0.84 0.96 0.85 0.79 0.73 0.84 0.78 0.79 0.78 0.77
0.67 0.86 0.86 0.64 0.57 0.46 0.54 0.64 0.91 0.94 0.92 0.78 0.59 0.59 0.44 0.34 0.29 0.26 0.30 0.22 0.22 0.18 0.16 0.15 0.16 0.28 0.29 0.24 0.22 0.22 0.26 0.41 0.55 0.64 0.59 0.58 0.63 0.61 0.54 0.51 0.70 0.81 0.76
1.05 0.75 0.82 1.10 1.09 0.88 0.68 0.63 0.43 0.31 0.30 0.25 0.21 0.29 0.35 0.36 0.40 0.40 0.33 0.19 0.17 0.16 0.19 0.25 0.28 0.33 0.30 0.23 0.23 0.25 0.23 0.30 0.37 0.39 0.48 0.59 0.66 0.84 1.06 1.42 2.00 2.62 2.84
1.33 1.89 1.63 1.45 1.41 1.38 1.31 1.20 1.06 0.93 0.84 0.77 0.69 0.61 0.59 0.65 0.61 0.60 0.56 0.51 0.48 0.37 0.35 0.34 0.34 0.32 0.26 0.26 0.27 0.31 0.38 0.56 0.62 0.80 1.03 1.36 1.87 2.36 2.79 3.01 2.56 1.96 1.52
0.78 0.81 0.89 1.04 1.41 1.59 1.57 1.65 1.64 1.61 1.64 1.64 1.61 1.68 1.80 1.66 1.54 1.52 1.50 1.50 1.23 1.03 1.05 1.09 1.16 1.26 1.29 1.36 1.41 1.47 1.54 1.50 1.62 1.81 2.29 2.28 2.21 2.32 2.12 1.55 1.09 0.84 0.64
0.32 0.33 0.27 0.29 0.28 0.29 0.32 0.39 0.46 0.45 0.53 0.70 0.72 0.77 0.85 0.95 1.06 1.22 1.25 1.20 1.25 1.42 1.53 1.47 1.35 1.38 1.50 1.51 1.57 1.45 1.09 1.14 1.07 1.14 1.18 1.07 0.88 0.72 0.55 0.41 0.29 0.23 0.16
0.12 0.14 0.14 0.12 0.17 0.21 0.18 0.12 0.11 0.18 0.23 0.24 0.27 0.15 0.11 0.16 0.14 0.17 0.18 0.17 0.18 0.18 0.31 0.29 0.26 0.20 0.17 0.13 0.14 0.14 0.09 0.07 0.10 0.13 0.15 0.20 0.26 0.18 0.12 0.05 0.01 0.03 0.02
0.06 0.11 0.15 0.19 0.26 0.31 0.26 0.25 0.25 0.24 0.29 0.29 0.27 0.20 0.15 0.12 0.18 0.29 0.34 0.29 0.28 0.30 0.23 0.26 0.18 0.15 0.09 0.09 0.10 0.08 0.06 0.05 0.06 0.03 0.01 0.00 0.00 0.01 0.00 0.00 0.00 0.00 0.00
0.06 0.05 0.09 0.12 0.17 0.24 0.31 0.27 0.22 0.16 0.14 0.16 0.21 0.16 0.08 0.06 0.03 0.02 0.03 0.07 0.17 0.35 0.25 0.22 0.12 0.07 0.06 0.07 0.05 0.02 0.01 0.01 0.00 0.00 0.00 0.00 0.00 0.00 0.00 0.01 0.01 0.00 0.00
0.08 0.06 0.05 0.05 0.07 0.08 0.21 0.30 0.29 0.45 0.23 0.11 0.11 0.12 0.09 0.07 0.04 0.03 0.02 0.01 0.01 0.03 0.07 0.06 0.02 0.01 0.00 0.00 0.00 0.00 0.00 0.00 0.00 0.00 0.00 0.00 0.00 0.00 0.01 0.02 0.03 0.03 0.03

GFSGL_prec_precacc_057.txt.gz
Total_Precipitation_Accumulation
0.00 0.00 0.00 0.00 0.00 0.00 0.00 0.00 0.00 0.00 0.00 0.00 0.00 0.00 0.00 0.00 0.00 0.00 0.00 0.00 0.00 0.00 0.00 0.00 0.00 0.02 0.01 0.01 0.01 0.00 0.00 0.01 0.00 0.00 0.00 0.00 0.00 0.00 0.00 0.00 0.00 0.00 0.00
0.00 0.00 0.00 0.00 0.00 0.00 0.01 0.01 0.00 0.00 0.00 0.00 0.00 0.00 0.00 0.00 0.00 0.00 0.00 0.00 0.00 0.00 0.00 0.00 0.00 0.00 0.02 0.01 0.01 0.00 0.01 0.01 0.01 0.00 0.00 0.00 0.00 0.00 0.00 0.00 0.00 0.00 0.00
0.00 0.00 0.00 0.00 0.00 0.00 0.01 0.02 0.01 0.00 0.00 0.00 0.00 0.00 0.00 0.00 0.00 0.00 0.00 0.00 0.00 0.00 0.00 0.00 0.00 0.01 0.03 0.01 0.02 0.00 0.00 0.01 0.03 0.03 0.00 0.00 0.00 0.00 0.00 0.00 0.00 0.00 0.00
0.00 0.00 0.00 0.00 0.00 0.03 0.09 0.06 0.01 0.01 0.01 0.02 0.02 0.01 0.00 0.00 0.00 0.01 0.01 0.01 0.01 0.02 0.05 0.07 0.04 0.03 0.02 0.03 0.02 0.03 0.02 0.04 0.03 0.04 0.03 0.01 0.00 0.00 0.00 0.00 0.00 0.00 0.00
0.00 0.00 0.00 0.00 0.04 0.17 0.27 0.34 0.23 0.16 0.10 0.04 0.02 0.00 0.00 0.00 0.01 0.00 0.02 0.03 0.09 0.10 0.10 0.12 0.09 0.16 0.07 0.02 0.04 0.02 0.03 0.04 0.04 0.09 0.08 0.02 0.01 0.02 0.03 0.01 0.00 0.00 0.00
0.00 0.00 0.00 0.00 0.04 0.14 0.37 0.73 0.41 0.23 0.16 0.15 0.09 0.04 0.02 0.02 0.03 0.01 0.03 0.14 0.16 0.20 0.17 0.14 0.13 0.13 0.13 0.16 0.15 0.04 0.07 0.09 0.22 0.21 0.10 0.06 0.06 0.06 0.07 0.05 0.02 0.01 0.01
0.00 0.00 0.00 0.00 0.07 0.13 0.15 0.22 0.26 0.33 0.31 0.14 0.05 0.03 0.03 0.08 0.27 0.13 0.18 0.15 0.18 0.19 0.15 0.15 0.13 0.08 0.13 0.06 0.13 0.19 0.22 0.23 0.20 0.20 0.08 0.09 0.11 0.12 0.13 0.08 0.07 0.08 0.04
0.00 0.00 0.00 0.00 0.04 0.10 0.12 0.13 0.12 0.10 0.05 0.05 0.10 0.16 0.15 0.15 0.17 0.15 0.12 0.09 0.10 0.11 0.17 0.17 0.13 0.16 0.20 0.13 0.20 0.20 0.17 0.16 0.26 0.23 0.12 0.07 0.10 0.09 0.07 0.08 0.13 0.07 0.06
0.00 0.00 0.00 0.00 0.01 0.05 0.06 0.05 0.05 0.02 0.02 0.05 0.24 0.39 0.25 0.19 0.19 0.17 0.16 0.07 0.09 0.16 0.20 0.14 0.16 0.16 0.27 0.31 0.22 0.24 0.12 0.09 0.17 0.16 0.06 0.05 0.07 0.11 0.06 0.05 0.08 0.14 0.09
0.00 0.00 0.00 0.01 0.01 0.00 0.00 0.02 0.06 0.13 0.17 0.10 0.09 0.13 0.15 0.18 0.23 0.16 0.19 0.14 0.14 0.14 0.15 0.13 0.15 0.09 0.28 0.31 0.18 0.19 0.10 0.13 0.13 0.12 0.09 0.05 0.06 0.08 0.11 0.07 0.13 0.21 0.15
0.00 0.01 0.02 0.02 0.01 0.01 0.05 0.17 0.24 0.24 0.11 0.03 0.07 0.29 0.28 0.19 0.26 0.15 0.15 0.12 0.11 0.11 0.15 0.20 0.20 0.26 0.23 0.27 0.23 0.24 0.19 0.17 0.19 0.09 0.10 0.11 0.10 0.08 0.16 0.20 0.20 0.29 0.21
0.00 0.01 0.02 0.01 0.01 0.03 0.19 0.23 0.16 0.14 0.22 0.28 0.35 0.30 0.20 0.25 0.22 0.16 0.14 0.08 0.08 0.07 0.12 0.15 0.21 0.17 0.19 0.21 0.27 0.27 0.21 0.16 0.10 0.11 0.10 0.10 0.11 0.11 0.17 0.25 0.44 0.40 0.40
0.00 0.00 0.00 0.01 0.01 0.06 0.17 0.15 0.16 0.17 0.20 0.16 0.14 0.19 0.26 0.29 0.23 0.18 0.15 0.07 0.04 0.05 0.11 0.23 0.22 0.24 0.25 0.26 0.23 0.21 0.20 0.20 0.17 0.20 0.16 0.14 0.14 0.20 0.24 0.39 0.42 0.35 0.42
0.01 0.00 0.01 0.01 0.02 0.04 0.14 0.21 0.08 0.17 0.23 0.30 0.37 0.44 0.45 0.38 0.23 0.14 0.17 0.19 0.16 0.21 0.20 0.20 0.29 0.29 0.27 0.23 0.24 0.24 0.20 0.21 0.21 0.19 0.18 0.21 0.33 0.47 0.49 0.48 0.49 0.59 0.67
0.04 0.12 0.15 0.17 0.16 0.19 0.21 0.32 0.45 0.59 0.53 0.59 0.71 0.75 0.66 0.59 0.54 0.60 0.64 0.59 0.60 0.79 0.85 0.78 0.71 0.58 0.56 0.39 0.33 0.29 0.26 0.23 0.23 0.43 0.64 0.75 0.76 0.85 0.74 0.78 0.90 1.06 1.19
0.23 0.38 0.45 0.53 0.61 0.66 0.74 0.83 1.02 0.96 0.91 1.07 1.07 1.05 1.41 1.97 2.41 2.23 2.41 2.41 2.08 1.80 1.62 1.38 0.91 0.61 0.58 0.57 0.63 0.51 0.39 0.35 0.40 0.75 0.92 0.88 0.91 0.81 0.77 0.84 0.87 0.79 0.79
0.27 0.19 0.18 0.32 0.58 0.66 0.80 0.82 0.84 1.00 1.01 1.02 1.23 1.34 1.37 1.15 1.00 1.02 1.03 0.85 0.84 0.86 0.63 0.37 0.31 0.34 0.38 0.47 0.52 0.47 0.47 0.50 0.61 0.84 0.97 0.85 0.79 0.73 0.84 0.78 0.79 0.78 0.77
0.68 0.87 0.87 0.65 0.58 0.48 0.57 0.66 0.93 1.00 0.94 0.78 0.60 0.59 0.47 0.45 0.48 0.44 0.46 0.27 0.22 0.18 0.16 0.15 0.17 0.28 0.29 0.24 0.22 0.22 0.26 0.41 0.55 0.64 0.59 0.58 0.63 0.61 0.54 0.51 0.70 0.81 0.76
1.10 0.79 0.85 1.14 1.12 0.92 0.74 0.67 0.46 0.34 0.37 0.30 0.23 0.30 0.36 0.39 0.46 0.44 0.38 0.20 0.17 0.17 0.23 0.27 0.28 0.34 0.31 0.23 0.23 0.25 0.23 0.31 0.37 0.39 0.48 0.59 0.66 0.84 1.06 1.42 2.00 2.62 2.84
1.40 1.96 1.65 1.47 1.44 1.39 1.32 1.21 1.07 0.93 0.86 0.81 0.72 0.62 0.59 0.65 0.64 0.61 0.58 0.51 0.52 0.52 0.46 0.42 0.35 0.34 0.27 0.26 0.27 0.31 0.38 0.56 0.62 0.80 1.03 1.36 1.87 2.36 2.79 3.01 2.56 1.96 1.52
0.82 0.85 0.90 1.07 1.45 1.60 1.57 1.67 1.65 1.62 1.65 1.65 1.62 1.68 1.80 1.66 1.54 1.52 1.50 1.50 1.24 1.08 1.11 1.12 1.18 1.27 1.29 1.37 1.42 1.48 1.54 1.51 1.62 1.81 2.29 2.28 2.21 2.32 2.12 1.55 1.09 0.84 0.64
0.33 0.33 0.27 0.29 0.28 0.30 0.32 0.41 0.52 0.51 0.54 0.70 0.72 0.77 0.86 0.96 1.06 1.22 1.25 1.21 1.26 1.43 1.54 1.47 1.36 1.38 1.50 1.51 1.57 1.45 1.09 1.14 1.07 1.14 1.18 1.07 0.88 0.72 0.55 0.41 0.29 0.23 0.16
0.12 0.14 0.14 0.12 0.17 0.22 0.18 0.13 0.14 0.20 0.24 0.24 0.27 0.15 0.11 0.16 0.14 0.17 0.18 0.17 0.20 0.19 0.31 0.29 0.26 0.20 0.17 0.13 0.14 0.14 0.09 0.07 0.10 0.13 0.15 0.20 0.26 0.18 0.12 0.05 0.01 0.03 0.02
0.07 0.13 0.15 0.19 0.26 0.31 0.27 0.25 0.26 0.25 0.30 0.30 0.28 0.20 0.16 0.14 0.18 0.29 0.34 0.29 0.29 0.31 0.23 0.26 0.18 0.15 0.09 0.09 0.10 0.08 0.06 0.05 0.06 0.03 0.01 0.00 0.00 0.01 0.00 0.00 0.00 0.00 0.00
0.06 0.06 0.10 0.12 0.17 0.24 0.31 0.27 0.22 0.16 0.15 0.16 0.22 0.17 0.09 0.06 0.03 0.02 0.03 0.07 0.17 0.35 0.25 0.22 0.12 0.07 0.06 0.07 0.05 0.02 0.01 0.01 0.00 0.00 0.00 0.00 0.00 0.00 0.00 0.01 0.01 0.00 0.00
0.08 0.06 0.05 0.05 0.07 0.08 0.21 0.30 0.29 0.45 0.24 0.12 0.12 0.12 0.10 0.07 0.04 0.03 0.02 0.01 0.01 0.03 0.07 0.06 0.02 0.01 0.00 0.00 0.00 0.00 0.00 0.00 0.00 0.00 0.00 0.00 0.00 0.00 0.01 0.02 0.03 0.03 0.03

GFSGL_prec_precacc_060.txt.gz
Total_Precipitation_Accumulation
0.00 0.00 0.00 0.00 0.00 0.00 0.00 0.00 0.00 0.00 0.00 0.00 0.00 0.00 0.00 0.00 0.00 0.00 0.00 0.01 0.01 0.01 0.00 0.00 0.00 0.02 0.01 0.01 0.01 0.00 0.00 0.01 0.00 0.00 0.00 0.00 0.00 0.00 0.00 0.00 0.00 0.00 0.00
0.00 0.00 0.00 0.00 0.00 0.00 0.01 0.01 0.00 0.00 0.00 0.00 0.00 0.00 0.00 0.00 0.00 0.00 0.00 0.00 0.00 0.00 0.00 0.00 0.00 0.00 0.02 0.01 0.01 0.00 0.01 0.01 0.01 0.00 0.00 0.00 0.00 0.00 0.00 0.00 0.00 0.00 0.00
0.00 0.00 0.00 0.00 0.00 0.00 0.01 0.02 0.01 0.00 0.00 0.00 0.00 0.00 0.00 0.00 0.00 0.00 0.00 0.00 0.00 0.00 0.00 0.00 0.00 0.01 0.03 0.01 0.02 0.00 0.00 0.01 0.03 0.03 0.00 0.00 0.00 0.00 0.00 0.00 0.00 0.00 0.00
0.00 0.00 0.00 0.00 0.00 0.03 0.09 0.06 0.01 0.01 0.01 0.02 0.02 0.01 0.00 0.00 0.00 0.01 0.01 0.01 0.01 0.02 0.05 0.07 0.04 0.03 0.02 0.03 0.02 0.03 0.02 0.04 0.03 0.04 0.03 0.01 0.00 0.00 0.00 0.00 0.00 0.00 0.00
0.00 0.00 0.00 0.00 0.04 0.17 0.27 0.34 0.23 0.16 0.10 0.04 0.02 0.00 0.00 0.00 0.01 0.00 0.02 0.03 0.09 0.10 0.10 0.12 0.09 0.16 0.07 0.02 0.04 0.02 0.03 0.04 0.04 0.09 0.08 0.02 0.01 0.02 0.03 0.01 0.00 0.00 0.00
0.00 0.00 0.00 0.00 0.04 0.14 0.37 0.73 0.41 0.23 0.16 0.15 0.09 0.04 0.02 0.02 0.03 0.01 0.03 0.14 0.16 0.20 0.17 0.14 0.13 0.13 0.13 0.16 0.15 0.04 0.07 0.10 0.22 0.21 0.10 0.06 0.06 0.06 0.07 0.05 0.02 0.01 0.01
0.00 0.00 0.00 0.00 0.07 0.13 0.15 0.22 0.26 0.33 0.31 0.14 0.05 0.03 0.03 0.08 0.27 0.13 0.18 0.15 0.18 0.19 0.15 0.15 0.13 0.08 0.13 0.06 0.13 0.19 0.22 0.23 0.20 0.20 0.08 0.09 0.11 0.12 0.13 0.08 0.07 0.08 0.04
0.00 0.00 0.00 0.00 0.04 0.10 0.12 0.13 0.12 0.10 0.05 0.05 0.10 0.16 0.15 0.15 0.17 0.15 0.12 0.09 0.10 0.11 0.17 0.17 0.13 0.16 0.20 0.13 0.20 0.20 0.17 0.16 0.26 0.23 0.12 0.07 0.10 0.09 0.07 0.08 0.13 0.08 0.06
0.00 0.00 0.00 0.00 0.01 0.05 0.06 0.05 0.05 0.02 0.02 0.05 0.24 0.39 0.25 0.19 0.19 0.17 0.16 0.07 0.09 0.16 0.20 0.14 0.16 0.16 0.27 0.31 0.22 0.24 0.12 0.09 0.17 0.16 0.06 0.05 0.07 0.11 0.06 0.05 0.08 0.14 0.10
0.00 0.00 0.00 0.01 0.01 0.00 0.00 0.02 0.06 0.13 0.17 0.10 0.09 0.13 0.15 0.18 0.23 0.16 0.19 0.14 0.14 0.14 0.15 0.13 0.15 0.09 0.28 0.31 0.18 0.19 0.10 0.13 0.13 0.12 0.09 0.05 0.06 0.08 0.11 0.07 0.14 0.22 0.16
0.00 0.01 0.02 0.02 0.01 0.01 0.05 0.17 0.24 0.24 0.11 0.03 0.07 0.29 0.28 0.19 0.26 0.15 0.15 0.12 0.11 0.11 0.15 0.20 0.20 0.26 0.23 0.27 0.23 0.24 0.19 0.17 0.19 0.09 0.10 0.11 0.10 0.08 0.19 0.23 0.22 0.31 0.23
0.00 0.01 0.02 0.01 0.01 0.03 0.19 0.23 0.17 0.15 0.22 0.28 0.35 0.30 0.20 0.25 0.22 0.16 0.14 0.08 0.08 0.07 0.12 0.15 0.21 0.17 0.19 0.21 0.27 0.27 0.21 0.16 0.10 0.11 0.10 0.10 0.11 0.11 0.18 0.27 0.46 0.44 0.45
0.00 0.00 0.00 0.01 0.01 0.06 0.17 0.16 0.17 0.18 0.21 0.16 0.14 0.19 0.26 0.29 0.23 0.18 0.15 0.07 0.04 0.05 0.11 0.23 0.22 0.24 0.25 0.26 0.23 0.21 0.20 0.20 0.17 0.20 0.16 0.14 0.14 0.21 0.24 0.39 0.42 0.36 0.44
0.01 0.00 0.01 0.01 0.02 0.04 0.14 0.22 0.08 0.17 0.23 0.30 0.37 0.44 0.45 0.38 0.23 0.14 0.17 0.19 0.16 0.21 0.20 0.20 0.29 0.29 0.27 0.23 0.24 0.24 0.20 0.21 0.21 0.19 0.18 0.21 0.33 0.47 0.49 0.48 0.50 0.60 0.67
0.04 0.12 0.15 0.17 0.17 0.19 0.21 0.32 0.45 0.59 0.53 0.59 0.71 0.75 0.66 0.59 0.54 0.60 0.64 0.59 0.60 0.79 0.85 0.78 0.71 0.58 0.56 0.39 0.33 0.29 0.26 0.23 0.24 0.44 0.65 0.76 0.76 0.85 0.74 0.78 0.91 1.06 1.19
0.24 0.38 0.45 0.53 0.61 0.66 0.74 0.84 1.02 0.96 0.91 1.07 1.07 1.05 1.41 1.97 2.42 2.23 2.43 2.41 2.08 1.86 1.64 1.38 0.91 0.61 0.58 0.57 0.63 0.51 0.39 0.36 0.41 0.76 0.93 0.88 0.91 0.81 0.78 0.84 0.87 0.79 0.79
0.29 0.21 0.18 0.32 0.58 0.66 0.80 0.82 0.84 1.01 1.01 1.02 1.24 1.36 1.37 1.16 1.00 1.05 1.10 0.87 0.85 0.88 0.64 0.38 0.32 0.34 0.38 0.47 0.53 0.47 0.48 0.50 0.62 0.85 0.97 0.85 0.79 0.73 0.84 0.78 0.79 0.78 0.77
0.73 0.91 0.89 0.67 0.59 0.49 0.57 0.67 0.93 1.00 0.94 0.79 0.60 0.60 0.47 0.45 0.53 0.54 0.54 0.34 0.25 0.18 0.16 0.16 0.18 0.29 0.30 0.25 0.23 0.23 0.26 0.41 0.55 0.64 0.60 0.59 0.63 0.61 0.54 0.51 0.70 0.81 0.76
1.26 0.88 0.96 1.34 1.44 1.19 0.97 0.76 0.49 0.36 0.38 0.32 0.31 0.35 0.42 0.44 0.50 0.47 0.41 0.21 0.17 0.17 0.23 0.28 0.30 0.39 0.33 0.24 0.23 0.25 0.23 0.31 0.37 0.40 0.48 0.59 0.66 0.84 1.06 1.42 2.00 2.62 2.84
1.60 2.21 1.89 1.69 1.80 1.74 1.63 1.56 1.22 1.04 0.93 0.87 0.77 0.64 0.66 0.67 0.67 0.64 0.58 0.51 0.52 0.52 0.50 0.50 0.36 0.45 0.36 0.33 0.32 0.33 0.39 0.56 0.63 0.80 1.03 1.36 1.87 2.36 2.79 3.01 2.56 1.96 1.52
1.06 1.03 1.10 1.27 1.66 1.84 1.77 1.85 1.77 1.66 1.68 1.68 1.68 1.73 1.84 1.68 1.54 1.52 1.50 1.50 1.25 1.09 1.22 1.24 1.25 1.36 1.43 1.44 1.50 1.51 1.55 1.51 1.62 1.81 2.29 2.28 2.21 2.32 2.12 1.55 1.09 0.84 0.64
0.38 0.42 0.37 0.39 0.40 0.48 0.52 0.48 0.56 0.54 0.57 0.72 0.74 0.80 0.90 0.97 1.06 1.22 1.25 1.21 1.27 1.44 1.56 1.52 1.43 1.41 1.53 1.57 1.60 1.46 1.09 1.14 1.07 1.14 1.18 1.07 0.88 0.72 0.55 0.41 0.29 0.23 0.16
0.13 0.15 0.17 0.16 0.21 0.27 0.32 0.28 0.24 0.28 0.30 0.27 0.28 0.16 0.12 0.19 0.16 0.18 0.20 0.20 0.21 0.21 0.32 0.30 0.26 0.20 0.17 0.13 0.14 0.14 0.09 0.07 0.10 0.13 0.15 0.20 0.26 0.18 0.12 0.05 0.01 0.03 0.02
0.07 0.13 0.16 0.20 0.27 0.32 0.28 0.27 0.34 0.42 0.47 0.36 0.30 0.21 0.17 0.15 0.19 0.31 0.37 0.30 0.30 0.32 0.24 0.27 0.18 0.15 0.09 0.09 0.10 0.09 0.07 0.05 0.06 0.03 0.01 0.00 0.00 0.01 0.00 0.00 0.00 0.00 0.00
0.06 0.06 0.13 0.16 0.18 0.24 0.31 0.27 0.24 0.22 0.24 0.26 0.29 0.22 0.14 0.09 0.05 0.04 0.06 0.10 0.18 0.36 0.25 0.22 0.13 0.07 0.06 0.07 0.05 0.03 0.01 0.01 0.00 0.00 0.00 0.00 0.00 0.00 0.00 0.01 0.01 0.00 0.00
0.08 0.06 0.05 0.06 0.07 0.09 0.22 0.30 0.29 0.45 0.24 0.13 0.16 0.18 0.16 0.13 0.09 0.07 0.04 0.03 0.03 0.04 0.08 0.06 0.03 0.01 0.00 0.00 0.00 0.00 0.00 0.00 0.00 0.00 0.00 0.00 0.00 0.00 0.01 0.02 0.03 0.03 0.03

GFSGL_prec_precacc_063.txt.gz
Total_Precipitation_Accumulation
0.00 0.00 0.00 0.00 0.00 0.00 0.00 0.00 0.00 0.00 0.00 0.00 0.00 0.00 0.00 0.00 0.00 0.00 0.00 0.01 0.01 0.01 0.00 0.00 0.00 0.02 0.01 0.01 0.01 0.00 0.00 0.01 0.00 0.00 0.00 0.00 0.00 0.00 0.00 0.00 0.00 0.00 0.00
0.00 0.00 0.00 0.00 0.00 0.00 0.01 0.01 0.00 0.00 0.00 0.00 0.00 0.00 0.00 0.00 0.00 0.00 0.00 0.00 0.00 0.00 0.00 0.00 0.00 0.00 0.02 0.01 0.01 0.00 0.01 0.01 0.01 0.00 0.00 0.00 0.00 0.00 0.00 0.00 0.00 0.00 0.00
0.00 0.00 0.00 0.00 0.00 0.00 0.01 0.02 0.01 0.00 0.00 0.00 0.00 0.00 0.00 0.00 0.00 0.00 0.00 0.00 0.00 0.00 0.00 0.00 0.00 0.01 0.03 0.01 0.02 0.00 0.00 0.01 0.03 0.03 0.00 0.00 0.00 0.00 0.00 0.00 0.00 0.00 0.00
0.00 0.00 0.00 0.00 0.00 0.03 0.09 0.06 0.01 0.01 0.01 0.02 0.02 0.01 0.00 0.00 0.00 0.01 0.01 0.01 0.01 0.02 0.05 0.07 0.04 0.03 0.02 0.03 0.02 0.03 0.02 0.04 0.03 0.04 0.03 0.01 0.00 0.00 0.00 0.00 0.00 0.00 0.00
0.00 0.00 0.00 0.00 0.04 0.17 0.27 0.34 0.23 0.16 0.10 0.04 0.02 0.00 0.00 0.00 0.01 0.00 0.02 0.03 0.09 0.10 0.10 0.12 0.09 0.16 0.07 0.02 0.04 0.02 0.03 0.04 0.04 0.09 0.08 0.02 0.01 0.02 0.03 0.01 0.00 0.00 0.00
0.00 0.00 0.00 0.00 0.04 0.14 0.37 0.73 0.41 0.23 0.16 0.15 0.09 0.04 0.02 0.02 0.03 0.01 0.03 0.14 0.16 0.20 0.17 0.14 0.13 0.13 0.13 0.16 0.15 0.04 0.07 0.10 0.22 0.21 0.10 0.06 0.06 0.06 0.07 0.05 0.02 0.01 0.01
0.00 0.00 0.00 0.00 0.07 0.13 0.15 0.22 0.26 0.33 0.31 0.14 0.05 0.03 0.03 0.08 0.27 0.13 0.18 0.15 0.18 0.19 0.15 0.15 0.13 0.08 0.13 0.06 0.13 0.19 0.22 0.23 0.20 0.20 0.08 0.09 0.11 0.12 0.13 0.08 0.07 0.08 0.04
0.00 0.00 0.00 0.00 0.04 0.10 0.12 0.13 0.12 0.10 0.05 0.05 0.10 0.16 0.15 0.15 0.17 0.15 0.12 0.09 0.10 0.11 0.17 0.17 0.13 0.16 0.20 0.13 0.20 0.20 0.17 0.16 0.26 0.23 0.12 0.07 0.10 0.09 0.07 0.08 0.13 0.08 0.06
0.00 0.00 0.00 0.00 0.01 0.05 0.06 0.05 0.05 0.02 0.02 0.05 0.24 0.39 0.25 0.19 0.19 0.17 0.16 0.07 0.09 0.16 0.20 0.14 0.16 0.16 0.27 0.31 0.22 0.24 0.12 0.09 0.17 0.16 0.06 0.05 0.07 0.11 0.06 0.05 0.08 0.14 0.10
0.00 0.00 0.00 0.01 0.01 0.00 0.00 0.02 0.06 0.13 0.17 0.10 0.09 0.13 0.15 0.18 0.23 0.16 0.19 0.14 0.14 0.14 0.15 0.13 0.15 0.09 0.28 0.31 0.18 0.19 0.10 0.13 0.13 0.12 0.09 0.05 0.06 0.08 0.11 0.07 0.14 0.22 0.17
0.02 0.01 0.02 0.02 0.01 0.01 0.05 0.17 0.24 0.24 0.11 0.03 0.07 0.29 0.28 0.19 0.26 0.15 0.15 0.12 0.11 0.11 0.15 0.20 0.20 0.26 0.23 0.27 0.23 0.24 0.19 0.17 0.19 0.09 0.10 0.11 0.10 0.08 0.19 0.23 0.22 0.32 0.25
0.00 0.04 0.04 0.01 0.01 0.03 0.19 0.23 0.17 0.15 0.22 0.28 0.35 0.30 0.20 0.25 0.22 0.16 0.14 0.08 0.08 0.07 0.12 0.15 0.21 0.17 0.19 0.21 0.27 0.27 0.21 0.16 0.10 0.11 0.10 0.10 0.11 0.11 0.18 0.27 0.46 0.45 0.46
0.00 0.00 0.03 0.01 0.01 0.06 0.17 0.16 0.17 0.18 0.21 0.16 0.14 0.19 0.26 0.29 0.23 0.18 0.15 0.07 0.04 0.05 0.11 0.23 0.22 0.24 0.25 0.26 0.23 0.21 0.20 0.20 0.17 0.20 0.16 0.14 0.14 0.21 0.24 0.39 0.42 0.36 0.44
0.01 0.00 0.01 0.01 0.02 0.04 0.14 0.22 0.08 0.17 0.23 0.30 0.37 0.44 0.45 0.38 0.23 0.14 0.17 0.19 0.16 0.21 0.20 0.20 0.29 0.29 0.27 0.23 0.24 0.24 0.20 0.21 0.21 0.19 0.18 0.21 0.33 0.47 0.49 0.48 0.50 0.60 0.67
0.04 0.12 0.15 0.17 0.17 0.19 0.21 0.32 0.45 0.59 0.53 0.59 0.71 0.75 0.66 0.59 0.54 0.60 0.64 0.59 0.60 0.79 0.85 0.78 0.71 0.58 0.56 0.39 0.33 0.29 0.26 0.23 0.24 0.44 0.65 0.76 0.76 0.85 0.74 0.78 0.92 1.07 1.19
0.25 0.38 0.45 0.53 0.61 0.66 0.74 0.84 1.02 0.96 0.91 1.07 1.07 1.05 1.41 1.97 2.42 2.23 2.43 2.41 2.08 1.86 1.64 1.38 0.91 0.61 0.58 0.57 0.63 0.51 0.39 0.36 0.41 0.76 0.93 0.88 0.91 0.81 0.78 0.85 0.87 0.79 0.79
0.33 0.24 0.19 0.32 0.58 0.66 0.80 0.83 0.84 1.01 1.01 1.02 1.24 1.36 1.38 1.16 1.01 1.05 1.10 0.87 0.85 0.88 0.64 0.41 0.32 0.34 0.38 0.47 0.53 0.47 0.48 0.50 0.62 0.85 0.98 0.86 0.80 0.74 0.84 0.78 0.79 0.78 0.77
0.77 0.96 0.94 0.71 0.64 0.53 0.59 0.68 0.94 1.00 0.94 0.79 0.62 0.61 0.48 0.46 0.53 0.55 0.56 0.36 0.26 0.18 0.16 0.22 0.21 0.31 0.31 0.25 0.23 0.23 0.26 0.41 0.55 0.64 0.60 0.59 0.64 0.61 0.54 0.51 0.70 0.81 0.76
1.28 0.90 1.00 1.38 1.49 1.25 1.10 0.86 0.52 0.37 0.39 0.33 0.34 0.42 0.51 0.49 0.58 0.57 0.46 0.23 0.18 0.19 0.30 0.36 0.39 0.48 0.40 0.27 0.31 0.31 0.26 0.31 0.37 0.40 0.48 0.59 0.66 0.84 1.06 1.42 2.00 2.62 2.84
1.74 2.32 1.97 1.75 1.84 1.81 1.78 1.83 1.56 1.31 1.18 0.98 0.90 0.77 0.79 0.75 0.73 0.68 0.58 0.51 0.53 0.62 0.74 0.81 0.66 0.62 0.44 0.37 0.40 0.50 0.46 0.57 0.63 0.80 1.03 1.36 1.87 2.36 2.79 3.01 2.56 1.96 1.52
1.38 1.33 1.41 1.43 1.79 2.01 1.97 2.06 2.00 1.96 2.00 1.96 1.92 2.01 2.08 1.84 1.58 1.53 1.51 1.52 1.32 1.26 1.63 1.96 2.28 2.70 2.23 1.79 1.70 1.69 1.65 1.52 1.63 1.81 2.29 2.28 2.21 2.33 2.13 1.55 1.09 0.84 0.64
0.53 0.86 1.06 1.27 0.75 0.66 0.74 0.69 0.81 0.80 0.84 1.02 0.91 0.93 1.02 1.04 1.07 1.22 1.25 1.21 1.30 1.45 1.58 1.61 1.69 1.83 2.02 1.97 1.77 1.48 1.10 1.15 1.08 1.14 1.18 1.07 0.88 0.72 0.55 0.41 0.29 0.23 0.16
0.24 0.32 0.41 0.68 0.84 0.52 0.53 0.66 0.68 0.51 0.47 0.53 0.67 0.39 0.18 0.22 0.17 0.18 0.20 0.20 0.23 0.22 0.33 0.32 0.29 0.23 0.20 0.15 0.15 0.14 0.09 0.07 0.10 0.13 0.15 0.20 0.26 0.18 0.12 0.05 0.01 0.03 0.02
0.08 0.30 0.31 0.31 0.46 0.49 0.39 0.43 0.78 1.15 0.99 0.85 0.75 0.60 0.33 0.23 0.28 0.39 0.43 0.36 0.34 0.36 0.26 0.28 0.19 0.16 0.11 0.11 0.11 0.10 0.07 0.06 0.06 0.03 0.01 0.00 0.00 0.01 0.00 0.00 0.00 0.00 0.00
0.06 0.07 0.15 0.18 0.19 0.32 0.40 0.31 0.31 0.38 0.53 0.68 0.73 0.55 0.47 0.34 0.18 0.13 0.15 0.15 0.21 0.38 0.27 0.24 0.13 0.08 0.07 0.08 0.06 0.03 0.02 0.01 0.00 0.00 0.00 0.00 0.00 0.00 0.00 0.01 0.01 0.00 0.00
0.08 0.07 0.05 0.06 0.07 0.09 0.22 0.30 0.29 0.46 0.26 0.17 0.23 0.31 0.30 0.22 0.16 0.11 0.07 0.05 0.05 0.06 0.12 0.09 0.04 0.04 0.03 0.01 0.01 0.01 0.01 0.01 0.00 0.00 0.00 0.00 0.00 0.00 0.01 0.02 0.03 0.03 0.03

GFSGL_prec_precacc_069.txt.gz
Total_Precipitation_Accumulation
0.00 0.00 0.00 0.00 0.00 0.00 0.00 0.00 0.00 0.00 0.00 0.00 0.00 0.00 0.00 0.00 0.00 0.00 0.00 0.01 0.01 0.01 0.00 0.00 0.00 0.02 0.01 0.01 0.01 0.00 0.00 0.01 0.00 0.00 0.00 0.00 0.00 0.00 0.00 0.00 0.00 0.00 0.00
0.00 0.00 0.00 0.00 0.00 0.00 0.01 0.01 0.00 0.00 0.00 0.00 0.00 0.00 0.00 0.00 0.00 0.00 0.00 0.00 0.00 0.00 0.00 0.00 0.00 0.00 0.02 0.01 0.01 0.00 0.01 0.01 0.01 0.00 0.00 0.00 0.00 0.00 0.00 0.00 0.00 0.00 0.00
0.00 0.00 0.00 0.00 0.00 0.00 0.01 0.02 0.01 0.00 0.00 0.00 0.00 0.00 0.00 0.00 0.00 0.00 0.00 0.00 0.00 0.00 0.00 0.00 0.00 0.01 0.03 0.01 0.02 0.00 0.00 0.01 0.03 0.03 0.00 0.00 0.00 0.00 0.00 0.00 0.00 0.00 0.00
0.00 0.00 0.00 0.00 0.00 0.03 0.09 0.06 0.01 0.01 0.01 0.02 0.02 0.01 0.00 0.00 0.00 0.01 0.01 0.01 0.01 0.02 0.05 0.07 0.04 0.03 0.02 0.03 0.02 0.03 0.02 0.04 0.03 0.04 0.03 0.01 0.00 0.00 0.00 0.00 0.00 0.00 0.00
0.01 0.00 0.00 0.00 0.04 0.17 0.27 0.34 0.23 0.16 0.10 0.04 0.02 0.00 0.00 0.00 0.01 0.00 0.02 0.03 0.09 0.10 0.10 0.12 0.09 0.16 0.07 0.02 0.04 0.02 0.03 0.04 0.04 0.09 0.08 0.02 0.01 0.02 0.03 0.01 0.00 0.00 0.00
0.00 0.01 0.00 0.00 0.04 0.14 0.37 0.73 0.41 0.23 0.16 0.15 0.09 0.04 0.02 0.02 0.03 0.01 0.03 0.14 0.16 0.20 0.17 0.14 0.13 0.13 0.13 0.16 0.15 0.04 0.07 0.10 0.22 0.21 0.10 0.06 0.06 0.06 0.07 0.05 0.02 0.01 0.01
0.01 0.00 0.00 0.01 0.07 0.13 0.15 0.22 0.26 0.33 0.31 0.14 0.05 0.03 0.03 0.08 0.27 0.13 0.18 0.15 0.18 0.19 0.15 0.15 0.13 0.08 0.13 0.06 0.13 0.19 0.22 0.23 0.20 0.20 0.08 0.09 0.11 0.12 0.13 0.08 0.07 0.08 0.04
0.02 0.00 0.00 0.00 0.05 0.11 0.12 0.13 0.12 0.10 0.05 0.05 0.10 0.16 0.15 0.15 0.17 0.15 0.12 0.09 0.10 0.11 0.17 0.17 0.13 0.16 0.20 0.13 0.20 0.20 0.17 0.16 0.26 0.23 0.12 0.07 0.10 0.09 0.07 0.08 0.13 0.08 0.06
0.00 0.04 0.01 0.00 0.01 0.05 0.06 0.05 0.05 0.02 0.02 0.05 0.24 0.39 0.25 0.19 0.19 0.17 0.16 0.07 0.09 0.16 0.20 0.14 0.16 0.16 0.27 0.31 0.22 0.24 0.12 0.09 0.17 0.16 0.06 0.05 0.07 0.11 0.06 0.05 0.08 0.14 0.10
0.04 0.12 0.09 0.05 0.04 0.01 0.00 0.02 0.07 0.14 0.17 0.10 0.09 0.13 0.15 0.18 0.23 0.16 0.19 0.14 0.14 0.14 0.15 0.13 0.15 0.09 0.28 0.31 0.18 0.19 0.10 0.13 0.13 0.12 0.09 0.05 0.06 0.08 0.11 0.07 0.14 0.22 0.17
0.06 0.05 0.08 0.11 0.13 0.04 0.05 0.17 0.24 0.24 0.11 0.03 0.07 0.29 0.28 0.19 0.26 0.15 0.15 0.12 0.11 0.11 0.15 0.20 0.20 0.26 0.23 0.27 0.23 0.24 0.19 0.17 0.19 0.09 0.10 0.11 0.10 0.08 0.19 0.23 0.22 0.32 0.25
0.05 0.11 0.08 0.06 0.10 0.06 0.19 0.23 0.17 0.15 0.22 0.28 0.35 0.30 0.20 0.25 0.22 0.16 0.14 0.08 0.08 0.07 0.12 0.15 0.21 0.17 0.19 0.21 0.27 0.27 0.21 0.16 0.10 0.11 0.10 0.10 0.11 0.11 0.18 0.27 0.46 0.45 0.46
0.10 0.06 0.07 0.03 0.08 0.18 0.20 0.16 0.19 0.20 0.22 0.17 0.15 0.19 0.26 0.29 0.23 0.18 0.15 0.07 0.04 0.05 0.11 0.23 0.22 0.24 0.25 0.26 0.23 0.21 0.20 0.20 0.17 0.20 0.16 0.14 0.14 0.21 0.24 0.39 0.42 0.36 0.44
0.14 0.11 0.08 0.03 0.03 0.09 0.23 0.29 0.14 0.22 0.25 0.33 0.37 0.45 0.47 0.39 0.23 0.14 0.17 0.19 0.16 0.21 0.20 0.20 0.29 0.29 0.27 0.23 0.24 0.24 0.20 0.21 0.21 0.19 0.18 0.21 0.33 0.47 0.49 0.48 0.50 0.60 0.67
0.06 0.19 0.24 0.22 0.19 0.23 0.27 0.38 0.48 0.60 0.54 0.61 0.71 0.78 0.69 0.59 0.54 0.60 0.64 0.59 0.60 0.79 0.88 0.79 0.71 0.58 0.56 0.39 0.33 0.29 0.26 0.23 0.24 0.44 0.65 0.76 0.76 0.85 0.74 0.78 0.92 1.07 1.20
0.25 0.41 0.51 0.58 0.66 0.69 0.75 0.85 1.04 0.97 0.92 1.07 1.09 1.06 1.42 1.97 2.43 2.26 2.43 2.41 2.08 1.88 1.77 1.40 0.91 0.61 0.58 0.57 0.63 0.51 0.39 0.36 0.41 0.76 0.93 0.88 0.91 0.81 0.78 0.85 0.88 0.81 0.81
0.34 0.26 0.23 0.37 0.64 0.71 0.84 0.84 0.85 1.01 1.02 1.02 1.24 1.37 1.38 1.16 1.01 1.07 1.14 0.90 0.87 1.01 0.75 0.43 0.33 0.34 0.38 0.47 0.53 0.47 0.48 0.50 0.62 0.85 0.98 0.86 0.80 0.74 0.84 0.78 0.80 0.79 0.77
0.77 0.96 0.95 0.74 0.68 0.57 0.63 0.71 0.94 1.01 0.95 0.80 0.62 0.62 0.48 0.46 0.54 0.56 0.57 0.41 0.31 0.36 0.24 0.31 0.23 0.33 0.32 0.27 0.25 0.25 0.28 0.42 0.55 0.64 0.60 0.59 0.64 0.62 0.56 0.52 0.72 0.83 0.78
1.28 0.90 1.01 1.40 1.53 1.32 1.23 1.04 0.62 0.39 0.40 0.34 0.36 0.44 0.54 0.51 0.58 0.58 0.48 0.28 0.29 0.29 0.42 0.45 0.48 0.66 0.64 0.50 0.52 0.47 0.39 0.44 0.53 0.50 0.59 0.70 0.83 1.06 1.28 1.60 2.13 2.70 2.88
1.74 2.33 1.97 1.75 1.84 1.83 1.85 1.96 1.75 1.40 1.26 1.01 0.92 0.81 0.86 0.89 0.80 0.78 0.71 0.73 0.70 0.86 1.04 0.99 0.92 0.96 1.00 0.97 1.09 1.19 1.16 1.36 1.41 1.53 1.61 1.85 2.33 2.76 3.12 3.31 2.82 2.13 1.58
1.39 1.33 1.43 1.43 1.79 2.02 2.02 2.14 2.14 2.08 2.05 2.00 2.08 2.14 2.30 2.18 1.72 1.64 1.69 1.71 1.47 1.47 1.93 2.23 2.60 3.10 3.25 3.33 3.28 3.31 3.17 3.12 3.04 3.09 3.55 3.60 3.49 3.34 2.94 2.22 1.64 1.30 0.74
0.54 0.88 1.07 1.29 0.83 0.78 0.78 0.73 0.87 0.92 0.97 1.14 1.13 1.32 1.60 1.59 1.37 1.50 1.48 1.43 1.45 1.59 1.82 1.82 1.83 1.90 2.13 2.36 2.32 1.90 1.52 1.71 1.80 1.83 1.88 1.86 1.82 1.87 1.84 1.59 1.02 0.61 0.22
0.25 0.38 0.47 0.78 1.31 1.26 1.37 1.24 1.04 0.73 0.70 0.72 0.87 0.65 0.43 0.45 0.40 0.41 0.42 0.42 0.42 0.37 0.47 0.42 0.37 0.28 0.20 0.17 0.18 0.18 0.16 0.15 0.17 0.23 0.24 0.30 0.38 0.36 0.38 0.28 0.19 0.12 0.04
0.11 0.48 0.85 0.68 0.61 0.64 0.62 1.14 1.92 2.16 1.88 1.61 1.29 1.16 1.08 0.78 0.67 0.75 0.79 0.60 0.52 0.48 0.37 0.35 0.26 0.22 0.15 0.15 0.14 0.12 0.11 0.10 0.09 0.07 0.09 0.10 0.11 0.13 0.09 0.04 0.02 0.01 0.00
0.10 0.14 0.41 0.90 1.05 0.90 0.92 0.87 0.71 0.70 0.86 1.11 1.33 1.20 1.11 1.01 0.86 0.73 0.61 0.55 0.54 0.63 0.47 0.40 0.31 0.21 0.14 0.13 0.11 0.09 0.07 0.06 0.05 0.10 0.10 0.08 0.07 0.08 0.07 0.04 0.02 0.00 0.00
0.11 0.12 0.15 0.21 0.40 0.56 0.69 0.83 1.17 1.33 0.92 0.64 0.65 0.75 0.93 0.94 0.82 0.67 0.63 0.66 0.64 0.62 0.65 0.60 0.54 0.42 0.28 0.22 0.17 0.13 0.08 0.05 0.03 0.02 0.02 0.03 0.05 0.04 0.02 0.03 0.03 0.03 0.03

GFSGL_prec_precacc_072.txt.gz
Total_Precipitation_Accumulation
0.00 0.00 0.00 0.00 0.00 0.00 0.00 0.00 0.00 0.00 0.00 0.00 0.00 0.00 0.01 0.02 0.02 0.04 0.01 0.01 0.01 0.01 0.00 0.00 0.00 0.02 0.01 0.01 0.01 0.00 0.00 0.01 0.00 0.00 0.00 0.00 0.00 0.00 0.00 0.00 0.00 0.00 0.00
0.00 0.00 0.00 0.00 0.00 0.00 0.01 0.01 0.00 0.00 0.00 0.00 0.00 0.00 0.00 0.00 0.00 0.00 0.00 0.00 0.00 0.00 0.00 0.00 0.00 0.00 0.02 0.01 0.01 0.00 0.01 0.01 0.01 0.00 0.00 0.00 0.00 0.00 0.00 0.00 0.00 0.00 0.00
0.00 0.00 0.00 0.00 0.00 0.00 0.01 0.02 0.01 0.00 0.00 0.00 0.00 0.00 0.00 0.00 0.00 0.00 0.00 0.00 0.00 0.00 0.00 0.00 0.00 0.01 0.03 0.01 0.02 0.00 0.00 0.01 0.03 0.03 0.00 0.00 0.00 0.00 0.00 0.00 0.00 0.00 0.00
0.00 0.00 0.00 0.00 0.00 0.03 0.09 0.06 0.01 0.01 0.01 0.02 0.02 0.01 0.00 0.00 0.00 0.01 0.01 0.01 0.01 0.02 0.05 0.07 0.04 0.03 0.02 0.03 0.02 0.03 0.02 0.04 0.03 0.04 0.03 0.01 0.00 0.00 0.00 0.00 0.00 0.00 0.00
0.01 0.00 0.00 0.00 0.04 0.17 0.27 0.34 0.23 0.16 0.10 0.04 0.02 0.00 0.00 0.00 0.01 0.00 0.02 0.03 0.09 0.10 0.10 0.12 0.09 0.16 0.07 0.02 0.04 0.02 0.03 0.04 0.04 0.09 0.08 0.02 0.01 0.02 0.03 0.01 0.00 0.00 0.00
0.01 0.01 0.01 0.00 0.04 0.14 0.37 0.73 0.41 0.23 0.16 0.15 0.09 0.04 0.02 0.02 0.03 0.01 0.03 0.14 0.16 0.20 0.17 0.14 0.13 0.13 0.13 0.16 0.15 0.04 0.07 0.10 0.22 0.21 0.10 0.06 0.06 0.06 0.07 0.05 0.02 0.01 0.01
0.01 0.02 0.02 0.01 0.07 0.13 0.15 0.22 0.26 0.33 0.31 0.14 0.05 0.03 0.03 0.08 0.27 0.13 0.18 0.15 0.18 0.19 0.15 0.15 0.13 0.08 0.13 0.06 0.13 0.19 0.22 0.23 0.20 0.20 0.08 0.09 0.11 0.12 0.13 0.08 0.07 0.08 0.04
0.02 0.00 0.00 0.01 0.05 0.12 0.12 0.13 0.12 0.10 0.05 0.05 0.10 0.16 0.15 0.15 0.17 0.15 0.12 0.09 0.10 0.11 0.17 0.17 0.13 0.16 0.20 0.13 0.20 0.20 0.17 0.16 0.26 0.23 0.12 0.07 0.10 0.09 0.07 0.08 0.13 0.08 0.06
0.00 0.04 0.01 0.00 0.01 0.05 0.07 0.07 0.07 0.02 0.02 0.05 0.24 0.39 0.25 0.19 0.19 0.17 0.16 0.07 0.09 0.16 0.20 0.14 0.16 0.16 0.27 0.31 0.22 0.24 0.12 0.09 0.17 0.16 0.06 0.05 0.07 0.11 0.06 0.05 0.08 0.14 0.10
0.07 0.12 0.09 0.05 0.06 0.03 0.03 0.07 0.13 0.15 0.17 0.10 0.09 0.13 0.15 0.18 0.23 0.16 0.19 0.14 0.14 0.14 0.15 0.13 0.15 0.09 0.28 0.31 0.18 0.19 0.10 0.13 0.13 0.12 0.09 0.05 0.06 0.08 0.11 0.07 0.14 0.22 0.17
0.14 0.12 0.10 0.12 0.17 0.10 0.11 0.30 0.39 0.32 0.15 0.03 0.07 0.29 0.28 0.19 0.26 0.15 0.15 0.12 0.11 0.11 0.15 0.20 0.20 0.26 0.23 0.27 0.23 0.24 0.19 0.17 0.19 0.09 0.10 0.11 0.10 0.08 0.19 0.23 0.22 0.32 0.25
0.08 0.18 0.15 0.09 0.18 0.20 0.23 0.29 0.18 0.15 0.25 0.29 0.35 0.30 0.20 0.25 0.22 0.16 0.14 0.08 0.08 0.07 0.12 0.15 0.21 0.17 0.19 0.21 0.27 0.27 0.21 0.16 0.10 0.11 0.10 0.10 0.11 0.11 0.18 0.27 0.46 0.45 0.46
0.11 0.08 0.09 0.06 0.11 0.21 0.21 0.16 0.20 0.22 0.23 0.18 0.15 0.19 0.26 0.29 0.23 0.18 0.15 0.07 0.04 0.05 0.11 0.23 0.22 0.24 0.25 0.26 0.23 0.21 0.20 0.20 0.17 0.20 0.16 0.14 0.14 0.21 0.24 0.39 0.42 0.36 0.44
0.14 0.11 0.09 0.04 0.04 0.10 0.24 0.30 0.14 0.23 0.27 0.33 0.37 0.45 0.48 0.39 0.23 0.15 0.17 0.19 0.16 0.21 0.21 0.20 0.29 0.29 0.27 0.23 0.24 0.24 0.20 0.21 0.21 0.19 0.18 0.21 0.33 0.47 0.49 0.48 0.50 0.60 0.67
0.06 0.19 0.24 0.23 0.20 0.23 0.27 0.38 0.48 0.60 0.54 0.62 0.71 0.78 0.70 0.59 0.57 0.65 0.69 0.62 0.63 0.82 0.94 0.80 0.71 0.58 0.56 0.39 0.33 0.29 0.26 0.23 0.24 0.44 0.65 0.76 0.76 0.85 0.74 0.78 0.92 1.07 1.20
0.25 0.41 0.52 0.58 0.66 0.69 0.75 0.85 1.04 0.99 0.94 1.09 1.13 1.07 1.43 1.98 2.49 2.34 2.54 2.50 2.20 1.99 1.81 1.40 0.91 0.61 0.58 0.57 0.63 0.51 0.39 0.36 0.41 0.76 0.93 0.88 0.91 0.81 0.78 0.85 0.88 0.81 0.81
0.34 0.26 0.23 0.37 0.64 0.72 0.84 0.84 0.85 1.02 1.03 1.06 1.29 1.39 1.38 1.16 1.01 1.08 1.23 1.08 0.95 1.05 0.75 0.43 0.33 0.34 0.38 0.47 0.53 0.47 0.48 0.50 0.62 0.85 0.98 0.86 0.80 0.74 0.84 0.78 0.80 0.80 0.78
0.77 0.96 0.95 0.74 0.68 0.57 0.63 0.71 0.94 1.01 0.95 0.80 0.62 0.62 0.48 0.46 0.56 0.60 0.64 0.47 0.33 0.36 0.24 0.31 0.23 0.33 0.32 0.27 0.26 0.25 0.28 0.42 0.55 0.64 0.60 0.59 0.64 0.62 0.56 0.52 0.73 0.86 0.86
1.28 0.90 1.01 1.40 1.53 1.32 1.23 1.04 0.62 0.39 0.40 0.34 0.36 0.44 0.54 0.53 0.61 0.61 0.48 0.29 0.30 0.31 0.44 0.47 0.51 0.68 0.65 0.52 0.53 0.47 0.39 0.44 0.53 0.50 0.59 0.70 0.83 1.06 1.28 1.61 2.18 2.81 3.02
1.74 2.33 1.98 1.75 1.84 1.83 1.85 1.96 1.75 1.40 1.27 1.01 0.92 0.82 0.87 0.91 0.81 0.81 0.76 0.78 0.71 0.87 1.09 1.05 1.00 1.02 1.04 0.97 1.13 1.21 1.17 1.36 1.41 1.54 1.62 1.86 2.35 2.76 3.12 3.33 2.87 2.21 1.74
1.39 1.34 1.43 1.43 1.79 2.02 2.02 2.14 2.14 2.09 2.06 2.01 2.09 2.14 2.31 2.18 1.72 1.66 1.71 1.74 1.48 1.47 1.94 2.27 2.65 3.14 3.28 3.36 3.32 3.32 3.18 3.12 3.04 3.10 3.55 3.63 3.49 3.35 3.02 2.31 1.71 1.39 1.15
0.54 0.88 1.07 1.29 0.83 0.78 0.78 0.73 0.87 0.92 0.98 1.14 1.14 1.33 1.61 1.59 1.37 1.50 1.48 1.43 1.45 1.60 1.83 1.84 1.87 1.96 2.16 2.39 2.35 1.93 1.54 1.72 1.80 1.83 1.88 1.86 1.82 1.87 1.91 1.73 1.42 1.17 0.95
0.25 0.38 0.47 0.78 1.31 1.26 1.37 1.24 1.04 0.73 0.70 0.73 0.87 0.65 0.43 0.46 0.40 0.41 0.42 0.42 0.43 0.41 0.54 0.50 0.45 0.37 0.28 0.23 0.23 0.19 0.16 0.16 0.18 0.23 0.24 0.30 0.39 0.37 0.38 0.29 0.24 0.24 0.26
0.11 0.48 0.85 0.68 0.61 0.64 0.62 1.14 1.92 2.17 1.89 1.62 1.31 1.19 1.11 0.79 0.68 0.76 0.81 0.63 0.56 0.53 0.44 0.43 0.31 0.30 0.24 0.26 0.25 0.20 0.17 0.14 0.11 0.08 0.09 0.10 0.11 0.14 0.11 0.08 0.06 0.04 0.03
0.10 0.14 0.41 0.91 1.05 0.90 0.92 0.87 0.72 0.71 0.87 1.12 1.34 1.21 1.14 1.06 0.91 0.78 0.66 0.62 0.62 0.71 0.54 0.47 0.39 0.34 0.31 0.25 0.21 0.17 0.12 0.09 0.06 0.10 0.10 0.08 0.07 0.08 0.11 0.09 0.06 0.04 0.02
0.14 0.16 0.16 0.22 0.42 0.58 0.69 0.83 1.19 1.41 0.97 0.67 0.67 0.77 0.96 1.00 0.90 0.80 0.78 0.79 0.74 0.72 0.73 0.67 0.62 0.54 0.47 0.44 0.39 0.34 0.26 0.20 0.17 0.16 0.12 0.12 0.13 0.11 0.08 0.07 0.08 0.09 0.07

GFSGL_prec_precacc_075.txt.gz
Total_Precipitation_Accumulation
0.00 0.00 0.00 0.00 0.00 0.00 0.00 0.00 0.00 0.00 0.00 0.00 0.00 0.00 0.01 0.03 0.02 0.05 0.02 0.01 0.01 0.01 0.00 0.00 0.00 0.02 0.01 0.01 0.01 0.00 0.00 0.01 0.00 0.00 0.00 0.00 0.00 0.00 0.00 0.00 0.00 0.00 0.00
0.00 0.00 0.00 0.00 0.00 0.00 0.01 0.01 0.00 0.00 0.00 0.00 0.00 0.00 0.00 0.00 0.00 0.00 0.01 0.02 0.03 0.01 0.00 0.00 0.00 0.00 0.02 0.01 0.01 0.00 0.01 0.01 0.01 0.00 0.00 0.00 0.00 0.00 0.00 0.00 0.00 0.00 0.00
0.00 0.00 0.00 0.00 0.00 0.00 0.01 0.02 0.01 0.00 0.00 0.00 0.00 0.00 0.00 0.00 0.00 0.00 0.01 0.03 0.01 0.00 0.00 0.00 0.00 0.01 0.03 0.01 0.02 0.00 0.00 0.01 0.03 0.03 0.00 0.00 0.00 0.00 0.00 0.00 0.00 0.00 0.00
0.00 0.00 0.00 0.00 0.00 0.03 0.09 0.06 0.01 0.01 0.01 0.02 0.02 0.01 0.00 0.00 0.00 0.01 0.01 0.01 0.01 0.02 0.05 0.07 0.04 0.03 0.02 0.03 0.02 0.03 0.02 0.04 0.03 0.04 0.03 0.01 0.00 0.00 0.00 0.00 0.00 0.00 0.00
0.01 0.00 0.00 0.00 0.04 0.17 0.27 0.34 0.23 0.16 0.10 0.04 0.02 0.00 0.00 0.00 0.01 0.00 0.02 0.03 0.09 0.10 0.10 0.12 0.09 0.16 0.07 0.02 0.04 0.02 0.03 0.04 0.04 0.09 0.08 0.02 0.01 0.02 0.03 0.01 0.00 0.00 0.00
0.01 0.01 0.01 0.00 0.04 0.14 0.37 0.73 0.41 0.23 0.16 0.15 0.09 0.04 0.02 0.02 0.03 0.01 0.03 0.14 0.16 0.20 0.17 0.14 0.13 0.13 0.13 0.16 0.15 0.04 0.07 0.10 0.22 0.21 0.10 0.06 0.06 0.06 0.07 0.05 0.02 0.01 0.01
0.01 0.02 0.02 0.01 0.07 0.13 0.15 0.22 0.26 0.33 0.31 0.14 0.05 0.03 0.03 0.08 0.27 0.13 0.18 0.15 0.18 0.19 0.15 0.15 0.13 0.08 0.13 0.06 0.13 0.19 0.22 0.23 0.20 0.20 0.08 0.09 0.11 0.12 0.13 0.08 0.07 0.08 0.04
0.02 0.00 0.00 0.01 0.05 0.12 0.12 0.13 0.12 0.10 0.05 0.05 0.10 0.16 0.15 0.15 0.17 0.15 0.12 0.09 0.10 0.11 0.17 0.17 0.13 0.16 0.20 0.13 0.20 0.20 0.17 0.16 0.26 0.23 0.12 0.07 0.10 0.09 0.07 0.08 0.13 0.08 0.06
0.00 0.05 0.02 0.00 0.01 0.05 0.07 0.07 0.07 0.02 0.02 0.05 0.24 0.39 0.25 0.19 0.19 0.17 0.16 0.07 0.09 0.16 0.20 0.14 0.16 0.16 0.27 0.31 0.22 0.24 0.12 0.09 0.17 0.16 0.06 0.05 0.07 0.11 0.06 0.05 0.08 0.14 0.10
0.09 0.14 0.10 0.05 0.06 0.04 0.04 0.07 0.14 0.15 0.18 0.10 0.09 0.13 0.15 0.18 0.23 0.16 0.19 0.14 0.14 0.14 0.15 0.13 0.15 0.09 0.28 0.31 0.18 0.19 0.10 0.13 0.13 0.12 0.09 0.05 0.06 0.08 0.11 0.07 0.14 0.22 0.17
0.15 0.14 0.13 0.13 0.17 0.12 0.12 0.31 0.41 0.34 0.17 0.04 0.07 0.29 0.28 0.19 0.26 0.15 0.15 0.12 0.11 0.11 0.15 0.20 0.20 0.26 0.23 0.27 0.23 0.24 0.19 0.17 0.19 0.09 0.10 0.11 0.10 0.08 0.19 0.23 0.22 0.32 0.25
0.08 0.18 0.17 0.13 0.21 0.24 0.29 0.37 0.25 0.16 0.25 0.29 0.36 0.30 0.20 0.25 0.22 0.16 0.14 0.08 0.08 0.07 0.12 0.15 0.21 0.17 0.19 0.21 0.27 0.27 0.21 0.16 0.10 0.11 0.10 0.10 0.11 0.11 0.18 0.27 0.46 0.45 0.46
0.11 0.08 0.09 0.07 0.13 0.24 0.28 0.26 0.24 0.23 0.24 0.19 0.15 0.19 0.26 0.29 0.23 0.18 0.15 0.07 0.04 0.05 0.11 0.23 0.22 0.24 0.25 0.26 0.23 0.21 0.20 0.20 0.17 0.20 0.16 0.14 0.14 0.21 0.24 0.39 0.42 0.36 0.44
0.14 0.11 0.09 0.04 0.05 0.10 0.25 0.32 0.18 0.25 0.28 0.34 0.38 0.45 0.48 0.39 0.23 0.15 0.17 0.20 0.19 0.21 0.21 0.20 0.29 0.29 0.27 0.23 0.24 0.24 0.20 0.21 0.21 0.19 0.18 0.21 0.33 0.47 0.49 0.48 0.50 0.60 0.67
0.06 0.19 0.24 0.23 0.20 0.23 0.27 0.38 0.49 0.62 0.55 0.63 0.72 0.79 0.70 0.59 0.57 0.66 0.71 0.65 0.69 0.87 0.97 0.80 0.71 0.58 0.56 0.39 0.33 0.29 0.26 0.23 0.24 0.44 0.65 0.76 0.76 0.85 0.74 0.78 0.92 1.07 1.20
0.25 0.41 0.52 0.58 0.66 0.69 0.75 0.85 1.04 0.99 0.94 1.09 1.15 1.09 1.43 1.98 2.50 2.39 2.72 2.66 2.36 2.09 1.82 1.40 0.91 0.61 0.58 0.57 0.63 0.51 0.39 0.36 0.41 0.76 0.93 0.88 0.91 0.81 0.78 0.85 0.88 0.81 0.81
0.34 0.26 0.23 0.37 0.64 0.72 0.84 0.84 0.85 1.02 1.03 1.06 1.31 1.43 1.40 1.18 1.10 1.23 1.50 1.33 1.14 1.14 0.75 0.43 0.33 0.34 0.38 0.47 0.53 0.47 0.48 0.50 0.62 0.85 0.98 0.86 0.80 0.74 0.84 0.78 0.80 0.80 0.78
0.77 0.97 0.95 0.74 0.68 0.57 0.63 0.71 0.94 1.01 0.95 0.80 0.62 0.63 0.51 0.53 0.74 0.82 0.87 0.57 0.36 0.37 0.24 0.31 0.23 0.33 0.32 0.27 0.26 0.25 0.28 0.42 0.55 0.64 0.60 0.59 0.64 0.62 0.56 0.52 0.73 0.86 0.86
1.28 0.90 1.01 1.40 1.53 1.32 1.23 1.04 0.62 0.39 0.40 0.34 0.36 0.44 0.54 0.57 0.74 0.76 0.65 0.34 0.31 0.32 0.45 0.47 0.51 0.68 0.65 0.52 0.54 0.47 0.39 0.44 0.53 0.50 0.59 0.70 0.83 1.06 1.28 1.61 2.18 2.81 3.02
1.74 2.34 1.98 1.75 1.84 1.83 1.85 1.96 1.75 1.40 1.27 1.01 0.92 0.82 0.87 0.92 0.82 0.86 0.85 0.90 0.77 0.88 1.09 1.06 1.01 1.02 1.05 0.98 1.13 1.21 1.17 1.36 1.41 1.54 1.62 1.86 2.35 2.77 3.12 3.33 2.87 2.21 1.74
1.39 1.34 1.44 1.44 1.79 2.02 2.02 2.15 2.14 2.09 2.07 2.01 2.09 2.14 2.31 2.19 1.73 1.67 1.73 1.80 1.56 1.54 1.96 2.27 2.65 3.15 3.28 3.36 3.32 3.32 3.18 3.12 3.05 3.10 3.55 3.63 3.49 3.36 3.04 2.33 1.75 1.43 1.17
0.54 0.88 1.07 1.30 0.84 0.78 0.78 0.73 0.87 0.92 0.98 1.14 1.14 1.33 1.61 1.59 1.38 1.51 1.49 1.43 1.45 1.63 1.86 1.86 1.93 2.04 2.18 2.39 2.35 1.93 1.54 1.72 1.80 1.84 1.89 1.87 1.83 1.87 1.91 1.75 1.46 1.24 1.02
0.26 0.38 0.47 0.78 1.31 1.27 1.37 1.24 1.04 0.73 0.70 0.73 0.87 0.65 0.43 0.46 0.41 0.42 0.43 0.43 0.44 0.42 0.54 0.50 0.45 0.38 0.28 0.25 0.25 0.24 0.19 0.19 0.21 0.28 0.28 0.31 0.40 0.38 0.39 0.30 0.25 0.26 0.29
0.11 0.48 0.85 0.68 0.62 0.65 0.62 1.14 1.92 2.18 1.89 1.62 1.31 1.19 1.12 0.80 0.70 0.78 0.81 0.64 0.57 0.54 0.45 0.43 0.32 0.30 0.24 0.27 0.26 0.22 0.19 0.25 0.27 0.18 0.13 0.13 0.13 0.15 0.12 0.10 0.09 0.06 0.05
0.11 0.14 0.42 0.91 1.06 0.90 0.93 0.87 0.72 0.71 0.87 1.12 1.34 1.21 1.14 1.07 0.93 0.81 0.69 0.63 0.64 0.73 0.57 0.49 0.41 0.36 0.32 0.27 0.22 0.18 0.17 0.17 0.15 0.19 0.19 0.15 0.13 0.12 0.13 0.11 0.08 0.06 0.04
0.16 0.17 0.19 0.24 0.44 0.60 0.70 0.83 1.19 1.41 0.98 0.67 0.69 0.79 0.97 1.02 0.93 0.83 0.81 0.83 0.78 0.75 0.77 0.71 0.67 0.60 0.52 0.50 0.45 0.40 0.31 0.24 0.22 0.22 0.18 0.17 0.18 0.19 0.17 0.14 0.12 0.12 0.14

GFSGL_prec_precacc_078.txt.gz
Total_Precipitation_Accumulation
0.00 0.00 0.00 0.00 0.00 0.00 0.00 0.00 0.00 0.00 0.00 0.00 0.00 0.07 0.10 0.04 0.02 0.05 0.02 0.01 0.03 0.02 0.00 0.00 0.00 0.02 0.01 0.01 0.01 0.00 0.00 0.01 0.00 0.00 0.00 0.00 0.00 0.00 0.00 0.00 0.00 0.00 0.00
0.00 0.00 0.00 0.00 0.00 0.00 0.01 0.01 0.00 0.00 0.00 0.00 0.00 0.11 0.07 0.03 0.03 0.02 0.01 0.03 0.07 0.02 0.00 0.00 0.00 0.00 0.02 0.01 0.01 0.00 0.01 0.01 0.01 0.00 0.00 0.00 0.00 0.00 0.00 0.00 0.00 0.00 0.00
0.00 0.00 0.00 0.00 0.00 0.00 0.01 0.02 0.01 0.00 0.00 0.00 0.00 0.03 0.07 0.03 0.01 0.00 0.02 0.05 0.01 0.02 0.00 0.00 0.00 0.01 0.03 0.01 0.02 0.00 0.00 0.01 0.03 0.03 0.00 0.00 0.00 0.00 0.00 0.00 0.00 0.00 0.00
0.00 0.00 0.00 0.00 0.00 0.03 0.09 0.06 0.01 0.01 0.01 0.02 0.02 0.01 0.02 0.03 0.02 0.02 0.01 0.05 0.03 0.03 0.07 0.07 0.04 0.03 0.02 0.03 0.02 0.03 0.02 0.04 0.03 0.04 0.03 0.01 0.00 0.00 0.00 0.00 0.00 0.00 0.00
0.01 0.00 0.00 0.00 0.04 0.17 0.27 0.34 0.23 0.16 0.10 0.04 0.02 0.00 0.00 0.00 0.01 0.01 0.02 0.04 0.11 0.13 0.11 0.12 0.09 0.16 0.07 0.02 0.04 0.02 0.03 0.04 0.04 0.09 0.08 0.02 0.01 0.02 0.03 0.01 0.00 0.00 0.00
0.01 0.01 0.01 0.00 0.04 0.14 0.37 0.73 0.41 0.23 0.16 0.15 0.09 0.04 0.02 0.02 0.03 0.01 0.03 0.14 0.16 0.21 0.17 0.14 0.13 0.13 0.13 0.16 0.15 0.04 0.07 0.10 0.22 0.21 0.10 0.06 0.06 0.06 0.07 0.05 0.02 0.01 0.01
0.02 0.02 0.02 0.01 0.07 0.13 0.15 0.22 0.26 0.33 0.31 0.14 0.05 0.03 0.03 0.08 0.27 0.13 0.18 0.15 0.18 0.19 0.15 0.15 0.13 0.08 0.13 0.06 0.13 0.19 0.22 0.23 0.20 0.20 0.08 0.09 0.11 0.12 0.13 0.08 0.07 0.08 0.04
0.03 0.01 0.01 0.01 0.06 0.12 0.12 0.13 0.12 0.10 0.05 0.05 0.10 0.16 0.15 0.15 0.17 0.15 0.12 0.09 0.10 0.11 0.17 0.17 0.13 0.16 0.20 0.13 0.20 0.20 0.17 0.16 0.26 0.23 0.12 0.07 0.10 0.09 0.07 0.08 0.13 0.08 0.06
0.02 0.08 0.05 0.01 0.02 0.06 0.08 0.08 0.07 0.02 0.02 0.05 0.24 0.39 0.25 0.19 0.19 0.17 0.16 0.07 0.09 0.16 0.20 0.14 0.16 0.16 0.27 0.31 0.22 0.24 0.12 0.09 0.17 0.16 0.06 0.05 0.07 0.11 0.06 0.05 0.08 0.14 0.10
0.12 0.20 0.19 0.13 0.11 0.06 0.08 0.14 0.19 0.17 0.18 0.10 0.09 0.13 0.15 0.18 0.23 0.16 0.19 0.14 0.14 0.14 0.15 0.13 0.15 0.09 0.28 0.31 0.18 0.19 0.10 0.13 0.13 0.12 0.09 0.05 0.06 0.08 0.11 0.07 0.14 0.22 0.17
0.15 0.14 0.14 0.16 0.23 0.20 0.19 0.36 0.51 0.45 0.26 0.09 0.09 0.30 0.28 0.19 0.26 0.15 0.15 0.12 0.11 0.11 0.15 0.20 0.20 0.26 0.23 0.27 0.23 0.24 0.19 0.17 0.19 0.09 0.10 0.11 0.10 0.08 0.19 0.23 0.22 0.32 0.25
0.08 0.18 0.17 0.13 0.21 0.26 0.36 0.43 0.30 0.24 0.36 0.41 0.47 0.35 0.21 0.25 0.22 0.16 0.14 0.08 0.08 0.07 0.12 0.15 0.21 0.17 0.19 0.21 0.27 0.27 0.21 0.16 0.10 0.11 0.10 0.10 0.11 0.11 0.18 0.27 0.46 0.45 0.46
0.11 0.08 0.09 0.07 0.13 0.25 0.31 0.32 0.30 0.27 0.26 0.23 0.24 0.25 0.30 0.31 0.23 0.18 0.16 0.08 0.04 0.05 0.11 0.23 0.22 0.24 0.25 0.26 0.23 0.21 0.20 0.20 0.17 0.20 0.16 0.14 0.14 0.21 0.24 0.39 0.42 0.36 0.44
0.14 0.11 0.09 0.04 0.05 0.10 0.25 0.33 0.19 0.27 0.29 0.35 0.42 0.52 0.56 0.48 0.27 0.15 0.22 0.34 0.26 0.21 0.21 0.20 0.30 0.29 0.27 0.23 0.24 0.24 0.20 0.21 0.21 0.19 0.18 0.21 0.33 0.47 0.49 0.48 0.50 0.60 0.67
0.06 0.19 0.24 0.23 0.20 0.23 0.27 0.38 0.49 0.62 0.56 0.65 0.75 0.82 0.74 0.63 0.64 0.77 0.81 0.79 0.84 1.03 1.07 0.81 0.71 0.58 0.56 0.39 0.33 0.29 0.26 0.23 0.24 0.44 0.65 0.76 0.76 0.85 0.74 0.78 0.92 1.07 1.20
0.25 0.41 0.52 0.58 0.66 0.69 0.75 0.85 1.04 0.99 0.94 1.09 1.17 1.11 1.45 2.01 2.60 2.49 2.84 2.98 2.68 2.46 1.91 1.40 0.91 0.61 0.58 0.57 0.63 0.51 0.39 0.36 0.41 0.76 0.93 0.88 0.91 0.81 0.78 0.85 0.88 0.81 0.81
0.35 0.26 0.23 0.37 0.64 0.72 0.84 0.84 0.85 1.02 1.03 1.06 1.31 1.43 1.41 1.20 1.13 1.29 1.60 1.65 1.53 1.28 0.76 0.43 0.33 0.34 0.38 0.47 0.53 0.47 0.48 0.50 0.62 0.85 0.98 0.86 0.80 0.74 0.84 0.78 0.80 0.80 0.78
0.77 0.97 0.95 0.74 0.68 0.57 0.63 0.71 0.94 1.01 0.95 0.80 0.62 0.63 0.51 0.53 0.76 0.86 1.05 0.79 0.41 0.38 0.24 0.32 0.23 0.33 0.33 0.28 0.26 0.25 0.28 0.42 0.56 0.64 0.60 0.59 0.64 0.62 0.56 0.52 0.73 0.86 0.86
1.28 0.90 1.01 1.40 1.53 1.32 1.23 1.04 0.62 0.39 0.40 0.34 0.36 0.44 0.54 0.57 0.74 0.77 0.72 0.46 0.40 0.36 0.46 0.48 0.51 0.68 0.65 0.52 0.54 0.48 0.40 0.44 0.53 0.50 0.59 0.70 0.83 1.06 1.28 1.61 2.18 2.81 3.02
1.74 2.34 1.98 1.75 1.84 1.83 1.85 1.96 1.75 1.40 1.27 1.01 0.92 0.82 0.87 0.92 0.82 0.87 0.85 0.96 0.85 0.90 1.10 1.06 1.01 1.03 1.05 0.99 1.14 1.22 1.20 1.39 1.43 1.55 1.62 1.86 2.35 2.77 3.12 3.33 2.87 2.22 1.76
1.40 1.34 1.44 1.44 1.79 2.02 2.02 2.15 2.15 2.09 2.07 2.02 2.09 2.14 2.31 2.19 1.73 1.67 1.73 1.80 1.59 1.60 1.98 2.27 2.66 3.16 3.29 3.39 3.37 3.38 3.22 3.15 3.07 3.11 3.56 3.64 3.50 3.37 3.04 2.33 1.75 1.43 1.18
0.54 0.88 1.07 1.30 0.84 0.78 0.78 0.74 0.87 0.92 0.98 1.14 1.14 1.33 1.61 1.59 1.38 1.51 1.49 1.44 1.46 1.65 1.92 1.97 2.04 2.12 2.23 2.44 2.40 1.97 1.56 1.76 1.81 1.85 1.90 1.87 1.84 1.88 1.92 1.76 1.48 1.26 1.04
0.28 0.39 0.47 0.79 1.32 1.28 1.38 1.24 1.05 0.73 0.70 0.73 0.87 0.65 0.43 0.46 0.41 0.42 0.43 0.43 0.44 0.42 0.55 0.53 0.50 0.43 0.31 0.29 0.32 0.29 0.22 0.21 0.23 0.29 0.30 0.33 0.43 0.41 0.41 0.32 0.29 0.29 0.30
0.12 0.49 0.86 0.69 0.62 0.66 0.63 1.14 1.92 2.18 1.89 1.62 1.31 1.19 1.12 0.80 0.70 0.78 0.81 0.64 0.57 0.54 0.45 0.43 0.32 0.30 0.24 0.27 0.30 0.29 0.26 0.31 0.32 0.24 0.21 0.21 0.20 0.24 0.16 0.14 0.13 0.10 0.08
0.11 0.15 0.43 0.93 1.07 0.91 0.94 0.87 0.72 0.71 0.87 1.12 1.35 1.21 1.14 1.07 0.93 0.81 0.69 0.63 0.64 0.74 0.57 0.49 0.41 0.37 0.33 0.27 0.23 0.19 0.22 0.23 0.19 0.24 0.21 0.19 0.20 0.20 0.21 0.20 0.17 0.14 0.10
0.17 0.18 0.20 0.25 0.45 0.61 0.71 0.84 1.20 1.41 0.98 0.68 0.69 0.79 0.98 1.02 0.93 0.83 0.81 0.84 0.79 0.76 0.78 0.73 0.68 0.61 0.53 0.50 0.46 0.43 0.35 0.27 0.27 0.28 0.23 0.20 0.22 0.24 0.24 0.22 0.20 0.20 0.19

GFSGL_prec_precacc_081.txt.gz
Total_Precipitation_Accumulation
0.00 0.00 0.00 0.00 0.00 0.00 0.00 0.00 0.00 0.00 0.00 0.00 0.01 0.12 0.10 0.04 0.02 0.07 0.02 0.03 0.04 0.02 0.00 0.00 0.00 0.02 0.01 0.01 0.01 0.00 0.00 0.01 0.00 0.00 0.00 0.00 0.00 0.00 0.00 0.00 0.00 0.00 0.00
0.00 0.00 0.00 0.00 0.00 0.00 0.01 0.01 0.00 0.00 0.00 0.00 0.02 0.15 0.07 0.03 0.03 0.02 0.01 0.03 0.07 0.02 0.00 0.00 0.00 0.00 0.02 0.01 0.01 0.00 0.01 0.01 0.01 0.00 0.00 0.00 0.00 0.00 0.00 0.00 0.00 0.00 0.00
0.00 0.00 0.00 0.00 0.00 0.00 0.01 0.02 0.01 0.00 0.00 0.00 0.00 0.05 0.07 0.03 0.01 0.00 0.02 0.05 0.01 0.02 0.00 0.00 0.00 0.01 0.03 0.01 0.02 0.00 0.00 0.01 0.03 0.03 0.00 0.00 0.00 0.00 0.00 0.00 0.00 0.00 0.00
0.00 0.00 0.00 0.00 0.00 0.03 0.09 0.06 0.01 0.01 0.01 0.02 0.02 0.01 0.03 0.03 0.02 0.02 0.03 0.14 0.06 0.03 0.07 0.07 0.04 0.03 0.02 0.03 0.02 0.03 0.02 0.04 0.03 0.04 0.03 0.01 0.00 0.00 0.00 0.00 0.00 0.00 0.00
0.02 0.00 0.00 0.00 0.04 0.17 0.27 0.34 0.23 0.16 0.10 0.04 0.02 0.00 0.00 0.00 0.01 0.01 0.02 0.05 0.13 0.13 0.11 0.12 0.09 0.16 0.07 0.02 0.04 0.03 0.04 0.04 0.04 0.09 0.08 0.02 0.01 0.02 0.03 0.01 0.00 0.00 0.00
0.04 0.03 0.02 0.03 0.06 0.15 0.37 0.73 0.41 0.23 0.16 0.15 0.09 0.04 0.02 0.02 0.03 0.01 0.03 0.14 0.16 0.23 0.17 0.14 0.13 0.13 0.13 0.16 0.15 0.04 0.07 0.10 0.22 0.21 0.10 0.06 0.06 0.06 0.07 0.05 0.02 0.01 0.01
0.03 0.04 0.03 0.02 0.09 0.15 0.16 0.22 0.26 0.33 0.31 0.14 0.05 0.03 0.03 0.08 0.27 0.13 0.18 0.15 0.18 0.19 0.16 0.16 0.13 0.08 0.13 0.06 0.13 0.19 0.22 0.23 0.20 0.20 0.08 0.09 0.11 0.12 0.13 0.08 0.07 0.08 0.04
0.03 0.01 0.01 0.02 0.07 0.13 0.15 0.15 0.13 0.11 0.06 0.06 0.10 0.17 0.15 0.15 0.17 0.15 0.12 0.09 0.10 0.11 0.17 0.17 0.13 0.16 0.20 0.13 0.20 0.20 0.17 0.16 0.26 0.23 0.12 0.07 0.10 0.09 0.07 0.08 0.13 0.08 0.06
0.02 0.08 0.06 0.04 0.08 0.09 0.11 0.14 0.16 0.09 0.04 0.06 0.25 0.42 0.27 0.19 0.19 0.17 0.16 0.07 0.09 0.16 0.20 0.14 0.16 0.16 0.27 0.31 0.22 0.24 0.12 0.09 0.17 0.16 0.06 0.05 0.07 0.11 0.06 0.05 0.08 0.14 0.10
0.13 0.22 0.24 0.18 0.16 0.09 0.09 0.17 0.27 0.30 0.29 0.19 0.14 0.17 0.18 0.19 0.23 0.16 0.19 0.14 0.14 0.14 0.15 0.13 0.15 0.09 0.28 0.31 0.18 0.19 0.10 0.13 0.13 0.12 0.09 0.05 0.06 0.08 0.11 0.07 0.14 0.22 0.17
0.15 0.14 0.14 0.17 0.26 0.24 0.24 0.40 0.53 0.51 0.36 0.22 0.22 0.39 0.34 0.24 0.28 0.16 0.16 0.12 0.11 0.11 0.15 0.20 0.20 0.26 0.23 0.27 0.23 0.24 0.19 0.17 0.19 0.09 0.10 0.11 0.10 0.08 0.19 0.23 0.22 0.32 0.25
0.08 0.18 0.17 0.13 0.21 0.27 0.38 0.46 0.32 0.26 0.39 0.49 0.61 0.47 0.36 0.39 0.30 0.18 0.15 0.10 0.09 0.07 0.12 0.15 0.21 0.17 0.19 0.21 0.27 0.27 0.21 0.16 0.10 0.11 0.10 0.10 0.11 0.11 0.18 0.27 0.46 0.45 0.46
0.11 0.08 0.09 0.07 0.13 0.25 0.31 0.33 0.32 0.30 0.30 0.27 0.30 0.32 0.41 0.49 0.36 0.28 0.30 0.21 0.16 0.10 0.11 0.24 0.22 0.24 0.25 0.26 0.23 0.21 0.20 0.20 0.17 0.20 0.16 0.14 0.14 0.21 0.24 0.39 0.42 0.36 0.44
0.14 0.11 0.09 0.04 0.05 0.10 0.25 0.33 0.19 0.27 0.30 0.36 0.44 0.56 0.63 0.58 0.39 0.36 0.52 0.63 0.51 0.32 0.25 0.21 0.30 0.29 0.27 0.23 0.24 0.24 0.20 0.21 0.21 0.19 0.18 0.21 0.33 0.47 0.49 0.48 0.50 0.60 0.67
0.06 0.19 0.24 0.23 0.20 0.23 0.27 0.38 0.49 0.62 0.56 0.65 0.75 0.83 0.75 0.66 0.73 1.01 1.15 1.18 1.20 1.35 1.29 0.82 0.72 0.58 0.56 0.39 0.33 0.29 0.26 0.23 0.24 0.44 0.65 0.76 0.76 0.85 0.74 0.78 0.92 1.07 1.20
0.25 0.41 0.52 0.58 0.66 0.69 0.75 0.85 1.04 0.99 0.94 1.09 1.17 1.11 1.45 2.02 2.64 2.56 2.99 3.23 3.00 2.76 2.31 1.56 0.96 0.64 0.58 0.58 0.63 0.51 0.39 0.36 0.41 0.76 0.93 0.88 0.91 0.81 0.78 0.85 0.88 0.81 0.81
0.35 0.26 0.23 0.37 0.64 0.72 0.84 0.84 0.85 1.02 1.03 1.06 1.31 1.43 1.41 1.20 1.14 1.31 1.65 1.72 1.65 1.40 0.82 0.49 0.38 0.37 0.42 0.51 0.53 0.47 0.48 0.51 0.62 0.85 0.98 0.86 0.80 0.74 0.84 0.78 0.80 0.80 0.78
0.77 0.97 0.95 0.74 0.68 0.57 0.63 0.71 0.94 1.01 0.95 0.80 0.62 0.63 0.51 0.53 0.76 0.86 1.05 0.81 0.45 0.43 0.27 0.35 0.27 0.36 0.36 0.32 0.27 0.25 0.28 0.42 0.56 0.64 0.60 0.59 0.64 0.62 0.56 0.53 0.73 0.86 0.86
1.28 0.90 1.01 1.40 1.53 1.32 1.23 1.04 0.62 0.39 0.40 0.34 0.36 0.44 0.54 0.57 0.74 0.77 0.72 0.46 0.40 0.37 0.47 0.49 0.52 0.72 0.69 0.59 0.62 0.52 0.42 0.45 0.55 0.58 0.65 0.75 0.88 1.09 1.31 1.63 2.18 2.81 3.02
1.74 2.34 1.99 1.76 1.84 1.84 1.85 1.96 1.75 1.40 1.27 1.01 0.92 0.82 0.87 0.92 0.82 0.87 0.85 0.96 0.85 0.90 1.10 1.08 1.04 1.06 1.08 1.07 1.28 1.37 1.32 1.47 1.54 1.67 1.74 1.98 2.47 2.86 3.19 3.41 2.93 2.26 1.79
1.40 1.34 1.45 1.44 1.80 2.03 2.02 2.15 2.15 2.09 2.07 2.02 2.09 2.14 2.31 2.19 1.73 1.67 1.73 1.80 1.59 1.60 1.98 2.28 2.66 3.19 3.34 3.44 3.47 3.51 3.31 3.23 3.12 3.15 3.63 3.73 3.60 3.44 3.12 2.39 1.82 1.51 1.29
0.55 0.89 1.08 1.30 0.84 0.78 0.79 0.74 0.87 0.93 0.98 1.14 1.14 1.33 1.61 1.59 1.38 1.51 1.49 1.44 1.46 1.65 1.92 1.98 2.05 2.15 2.27 2.48 2.45 2.04 1.66 1.85 1.89 1.89 1.93 1.95 1.92 1.97 2.01 1.83 1.52 1.28 1.06
0.28 0.40 0.48 0.80 1.32 1.29 1.39 1.25 1.05 0.73 0.70 0.73 0.87 0.65 0.43 0.46 0.41 0.42 0.43 0.43 0.44 0.42 0.55 0.53 0.50 0.44 0.32 0.29 0.34 0.30 0.24 0.25 0.27 0.34 0.37 0.40 0.48 0.46 0.47 0.39 0.35 0.33 0.34
0.12 0.49 0.87 0.70 0.63 0.67 0.63 1.15 1.93 2.19 1.90 1.63 1.31 1.19 1.12 0.81 0.70 0.78 0.81 0.64 0.57 0.54 0.45 0.43 0.32 0.30 0.24 0.27 0.30 0.31 0.28 0.37 0.38 0.28 0.24 0.27 0.25 0.33 0.21 0.18 0.16 0.13 0.13
0.12 0.16 0.43 0.93 1.08 0.92 0.95 0.88 0.73 0.71 0.88 1.13 1.35 1.22 1.14 1.07 0.93 0.81 0.69 0.63 0.64 0.74 0.57 0.49 0.41 0.37 0.33 0.27 0.23 0.20 0.24 0.27 0.24 0.32 0.29 0.25 0.24 0.25 0.25 0.22 0.19 0.16 0.12
0.18 0.19 0.21 0.26 0.45 0.61 0.72 0.85 1.20 1.42 0.98 0.68 0.69 0.79 0.98 1.02 0.93 0.83 0.81 0.84 0.79 0.76 0.78 0.73 0.68 0.61 0.53 0.50 0.47 0.44 0.35 0.28 0.28 0.30 0.25 0.21 0.22 0.25 0.24 0.22 0.21 0.21 0.21

GFSGL_prec_precacc_084.txt.gz
Total_Precipitation_Accumulation
0.00 0.00 0.00 0.00 0.00 0.00 0.00 0.00 0.00 0.00 0.03 0.06 0.29 0.16 0.12 0.05 0.04 0.10 0.05 0.06 0.10 0.04 0.02 0.04 0.02 0.02 0.01 0.01 0.01 0.00 0.00 0.01 0.00 0.00 0.00 0.00 0.00 0.00 0.00 0.00 0.00 0.00 0.00
0.00 0.00 0.00 0.00 0.00 0.00 0.01 0.01 0.00 0.00 0.00 0.01 0.03 0.18 0.11 0.06 0.07 0.09 0.02 0.04 0.12 0.05 0.01 0.01 0.01 0.00 0.03 0.01 0.01 0.00 0.01 0.01 0.01 0.00 0.00 0.00 0.00 0.00 0.00 0.00 0.00 0.00 0.00
0.02 0.00 0.00 0.00 0.00 0.00 0.01 0.02 0.01 0.00 0.00 0.00 0.00 0.07 0.09 0.03 0.04 0.04 0.06 0.06 0.05 0.05 0.02 0.03 0.01 0.01 0.04 0.02 0.03 0.01 0.00 0.01 0.03 0.03 0.00 0.00 0.00 0.00 0.00 0.00 0.00 0.00 0.00
0.31 0.35 0.04 0.01 0.00 0.03 0.10 0.08 0.01 0.01 0.01 0.02 0.02 0.01 0.03 0.03 0.02 0.02 0.08 0.19 0.08 0.06 0.10 0.08 0.04 0.03 0.03 0.04 0.02 0.03 0.02 0.04 0.03 0.04 0.03 0.01 0.00 0.00 0.00 0.00 0.00 0.00 0.00
0.16 0.28 0.25 0.09 0.07 0.19 0.29 0.36 0.26 0.16 0.10 0.04 0.02 0.00 0.00 0.01 0.01 0.01 0.03 0.07 0.15 0.14 0.13 0.14 0.09 0.16 0.07 0.02 0.04 0.03 0.05 0.04 0.04 0.09 0.08 0.02 0.01 0.02 0.03 0.01 0.00 0.00 0.00
0.31 0.30 0.29 0.19 0.12 0.22 0.44 0.78 0.45 0.25 0.17 0.16 0.09 0.04 0.02 0.02 0.03 0.01 0.03 0.14 0.18 0.26 0.19 0.14 0.13 0.13 0.13 0.16 0.15 0.04 0.07 0.10 0.22 0.21 0.10 0.06 0.06 0.06 0.07 0.05 0.02 0.01 0.01
0.10 0.11 0.15 0.13 0.19 0.21 0.21 0.30 0.34 0.39 0.34 0.16 0.06 0.05 0.04 0.08 0.27 0.13 0.18 0.15 0.19 0.22 0.18 0.17 0.14 0.08 0.13 0.06 0.13 0.19 0.22 0.23 0.20 0.20 0.08 0.09 0.11 0.12 0.13 0.08 0.07 0.08 0.04
0.10 0.04 0.05 0.09 0.16 0.21 0.20 0.18 0.18 0.17 0.12 0.11 0.12 0.20 0.17 0.15 0.17 0.15 0.12 0.09 0.10 0.11 0.18 0.18 0.14 0.16 0.20 0.14 0.21 0.20 0.17 0.16 0.26 0.23 0.12 0.07 0.10 0.09 0.07 0.08 0.13 0.08 0.06
0.03 0.09 0.07 0.04 0.12 0.16 0.16 0.17 0.19 0.12 0.08 0.10 0.29 0.47 0.31 0.21 0.20 0.17 0.17 0.10 0.09 0.16 0.20 0.14 0.16 0.17 0.27 0.31 0.22 0.24 0.12 0.09 0.17 0.16 0.06 0.05 0.07 0.11 0.06 0.05 0.08 0.14 0.10
0.13 0.22 0.24 0.18 0.17 0.13 0.14 0.20 0.33 0.36 0.40 0.31 0.19 0.22 0.22 0.21 0.25 0.16 0.20 0.15 0.14 0.14 0.15 0.13 0.15 0.09 0.28 0.31 0.18 0.19 0.10 0.13 0.13 0.12 0.09 0.05 0.06 0.08 0.11 0.07 0.14 0.22 0.17
0.15 0.14 0.14 0.17 0.26 0.24 0.25 0.42 0.55 0.54 0.40 0.25 0.27 0.46 0.40 0.31 0.35 0.21 0.19 0.16 0.13 0.12 0.15 0.20 0.20 0.26 0.23 0.27 0.23 0.24 0.19 0.17 0.19 0.09 0.10 0.11 0.10 0.08 0.19 0.23 0.22 0.32 0.25
0.08 0.18 0.17 0.13 0.21 0.27 0.38 0.47 0.33 0.27 0.40 0.49 0.61 0.49 0.43 0.56 0.51 0.38 0.40 0.32 0.28 0.17 0.15 0.16 0.22 0.19 0.19 0.21 0.27 0.27 0.21 0.16 0.10 0.11 0.10 0.10 0.11 0.11 0.18 0.27 0.46 0.45 0.46
0.11 0.08 0.09 0.07 0.13 0.25 0.31 0.33 0.32 0.30 0.30 0.27 0.30 0.32 0.41 0.52 0.45 0.54 0.64 0.40 0.32 0.23 0.21 0.28 0.23 0.27 0.29 0.27 0.24 0.21 0.20 0.20 0.17 0.20 0.16 0.14 0.14 0.21 0.24 0.39 0.42 0.36 0.44
0.14 0.11 0.09 0.04 0.05 0.10 0.25 0.33 0.19 0.27 0.30 0.36 0.44 0.56 0.63 0.60 0.44 0.46 0.67 0.76 0.71 0.47 0.41 0.28 0.30 0.30 0.28 0.24 0.25 0.25 0.20 0.21 0.21 0.19 0.18 0.21 0.33 0.47 0.49 0.48 0.50 0.60 0.67
0.06 0.19 0.24 0.23 0.20 0.23 0.27 0.38 0.49 0.62 0.56 0.65 0.75 0.83 0.76 0.67 0.76 1.04 1.17 1.24 1.32 1.47 1.40 0.93 0.79 0.61 0.57 0.40 0.33 0.30 0.27 0.23 0.24 0.44 0.65 0.76 0.76 0.85 0.74 0.78 0.92 1.07 1.20
0.25 0.41 0.52 0.58 0.66 0.69 0.75 0.85 1.04 0.99 0.94 1.09 1.17 1.11 1.45 2.02 2.64 2.56 3.00 3.25 3.05 2.82 2.39 1.81 1.40 0.89 0.69 0.69 0.73 0.59 0.46 0.39 0.41 0.78 0.93 0.89 0.92 0.81 0.78 0.85 0.88 0.81 0.81
0.35 0.26 0.23 0.37 0.64 0.72 0.84 0.84 0.85 1.02 1.03 1.06 1.31 1.43 1.41 1.20 1.14 1.31 1.65 1.72 1.65 1.41 0.85 0.55 0.48 0.47 0.52 0.71 0.78 0.70 0.63 0.56 0.69 0.96 1.09 0.93 0.82 0.75 0.84 0.78 0.80 0.80 0.78
0.77 0.97 0.95 0.74 0.68 0.57 0.63 0.71 0.94 1.01 0.95 0.80 0.62 0.63 0.51 0.53 0.76 0.86 1.05 0.81 0.45 0.43 0.28 0.36 0.27 0.36 0.37 0.35 0.39 0.44 0.41 0.53 0.75 0.89 0.81 0.67 0.72 0.74 0.64 0.58 0.77 0.88 0.87
1.28 0.90 1.01 1.40 1.53 1.32 1.23 1.04 0.62 0.39 0.40 0.34 0.36 0.44 0.54 0.57 0.74 0.77 0.72 0.46 0.40 0.37 0.47 0.49 0.52 0.72 0.70 0.64 0.67 0.62 0.57 0.88 1.10 1.28 1.02 0.88 0.99 1.21 1.40 1.72 2.27 2.96 3.19
1.74 2.34 1.99 1.76 1.84 1.84 1.85 1.96 1.75 1.40 1.27 1.01 0.92 0.82 0.87 0.92 0.82 0.87 0.85 0.96 0.85 0.90 1.10 1.08 1.04 1.08 1.12 1.11 1.31 1.45 1.41 1.61 1.70 1.92 1.97 2.12 2.59 3.00 3.31 3.55 3.13 2.47 1.99
1.40 1.34 1.45 1.44 1.80 2.03 2.03 2.15 2.15 2.09 2.07 2.02 2.09 2.14 2.31 2.19 1.73 1.67 1.73 1.80 1.59 1.60 1.98 2.28 2.67 3.20 3.36 3.48 3.54 3.60 3.41 3.36 3.36 3.35 3.79 3.89 3.77 3.60 3.35 2.53 1.93 1.67 1.43
0.55 0.89 1.08 1.30 0.84 0.78 0.79 0.74 0.88 0.93 0.98 1.15 1.14 1.33 1.61 1.59 1.38 1.51 1.49 1.44 1.46 1.65 1.92 1.98 2.05 2.15 2.28 2.49 2.48 2.11 1.76 1.98 2.10 2.20 2.21 2.21 2.12 2.13 2.27 2.05 1.67 1.38 1.14
0.28 0.40 0.48 0.80 1.32 1.29 1.40 1.25 1.05 0.74 0.71 0.73 0.88 0.66 0.43 0.46 0.41 0.42 0.43 0.43 0.44 0.42 0.55 0.53 0.50 0.44 0.32 0.30 0.34 0.31 0.25 0.27 0.31 0.42 0.49 0.58 0.69 0.69 0.68 0.55 0.46 0.38 0.37
0.12 0.49 0.87 0.70 0.64 0.67 0.64 1.15 1.93 2.20 1.91 1.64 1.32 1.20 1.13 0.81 0.70 0.78 0.82 0.64 0.57 0.54 0.45 0.43 0.32 0.30 0.24 0.27 0.30 0.31 0.29 0.38 0.39 0.30 0.26 0.29 0.28 0.37 0.26 0.24 0.23 0.17 0.17
0.12 0.16 0.43 0.94 1.08 0.93 0.95 0.89 0.73 0.72 0.88 1.13 1.35 1.22 1.15 1.08 0.94 0.81 0.69 0.63 0.64 0.74 0.57 0.49 0.41 0.37 0.33 0.27 0.23 0.20 0.24 0.27 0.24 0.32 0.29 0.26 0.25 0.25 0.27 0.24 0.21 0.18 0.14
0.18 0.19 0.21 0.26 0.46 0.62 0.72 0.85 1.21 1.42 0.99 0.69 0.69 0.80 0.98 1.03 0.93 0.84 0.82 0.84 0.79 0.76 0.78 0.73 0.68 0.61 0.53 0.50 0.47 0.44 0.36 0.28 0.28 0.30 0.25 0.21 0.22 0.25 0.25 0.23 0.23 0.23 0.22